GFSWCAN_sfc_temp_000.txt.gz
Temp
51 50 51 51 51 51 51 51 51 51 51 51 52 52 52 52 53 54 54 56 52 43 47 53 55 50 48 43 36 44 43 39 36 33 32 30 33 31 29 36 33 32 26 28 27 27 27 46 47 37 41 42 46 47
51 50 50 50 50 50 50 50 50 50 50 51 51 51 51 51 52 53 51 55 55 48 49 53 55 56 56 54 47 44 44 43 39 34 33 29 32 33 28 31 40 34 37 32 33 33 43 46 48 48 48 48 45 44
50 50 50 50 49 50 50 50 50 50 50 50 50 50 51 51 52 52 51 52 49 39 45 47 50 55 60 57 57 42 38 49 45 45 36 35 33 35 33 33 35 41 46 35 37 43 46 48 52 53 49 45 47 46
49 49 50 49 49 49 49 49 49 50 49 50 50 50 50 50 51 52 50 52 49 42 34 43 53 53 59 58 56 54 53 52 51 45 36 34 34 41 35 39 37 42 42 39 39 44 46 48 49 48 49 48 47 47
49 49 49 49 49 49 49 49 48 48 49 49 49 50 50 51 51 51 50 51 52 47 37 38 47 54 57 58 56 55 52 49 40 38 34 35 36 37 35 35 35 43 43 37 37 47 45 47 48 49 46 44 43 42
49 48 49 49 49 49 49 48 48 48 48 49 49 50 50 50 51 50 45 48 51 53 40 35 45 45 50 52 51 50 50 47 46 40 35 39 44 40 34 34 43 47 50 52 46 50 48 47 47 46 45 44 46 47
48 48 48 48 48 48 48 49 48 48 48 49 49 50 50 49 51 47 45 48 52 52 36 36 36 40 44 47 45 45 47 45 45 42 37 38 39 43 33 36 47 49 49 51 52 48 42 44 42 46 47 48 48 48
48 48 47 47 47 47 47 48 49 48 48 48 49 50 50 49 49 45 47 49 51 46 39 35 35 36 45 36 34 39 36 39 42 41 38 36 38 35 34 45 45 47 49 48 47 46 45 45 47 47 48 47 44 42
47 47 47 47 47 47 47 48 48 49 48 48 49 49 47 45 41 43 48 48 46 44 36 33 33 33 43 38 36 35 37 33 38 33 35 37 33 34 38 41 43 44 43 44 45 43 44 43 44 45 45 43 40 38
47 47 47 47 47 47 47 47 48 48 48 48 47 43 35 39 48 47 44 38 37 36 37 33 36 34 42 34 33 33 33 32 31 33 37 33 36 44 47 48 48 44 44 43 38 36 38 38 38 39 38 38 36 35
47 47 48 47 47 47 47 48 48 49 48 45 37 35 42 47 43 38 33 34 34 32 33 33 34 34 40 34 33 33 32 32 27 27 32 24 29 35 43 42 43 43 43 43 43 42 40 39 38 36 34 34 31 30
47 47 47 47 46 47 47 48 48 46 44 45 43 45 43 41 35 33 31 32 32 29 32 32 34 37 35 40 33 32 29 29 25 29 28 26 28 38 39 39 40 40 42 42 41 41 40 39 38 34 33 32 30 28
46 47 47 46 46 47 47 48 48 47 48 46 39 35 37 33 30 27 26 29 28 32 34 34 33 34 34 34 32 28 27 25 24 27 27 24 34 38 39 40 41 42 39 36 40 40 39 38 35 29 29 28 25 28
46 46 46 46 46 46 47 47 47 47 43 33 31 27 29 25 27 26 28 30 33 33 33 33 32 31 30 23 28 25 25 22 19 22 18 26 32 36 37 38 38 38 33 31 35 35 32 30 30 25 34 33 31 32
46 46 46 46 46 46 46 47 47 43 34 29 29 22 24 29 30 32 33 33 33 34 33 31 29 28 22 19 19 18 17 23 23 18 21 26 33 34 35 36 34 31 30 30 34 30 29 28 27 29 30 33 29 31
46 45 44 45 46 46 46 46 45 42 31 28 27 21 27 28 29 31 32 32 34 32 28 28 23 19 18 18 15 13 14 15 18 19 24 28 33 33 33 32 33 32 32 33 34 32 32 29 31 31 31 33 30 32
45 40 45 45 45 46 47 42 36 31 26 24 20 29 25 27 22 31 28 33 36 32 21 20 16 20 21 12 12 22 17 19 22 25 27 30 33 33 33 32 30 32 33 33 33 32 32 32 25 30 30 30 28 31
39 44 46 46 44 44 41 35 31 28 24 23 20 20 21 21 31 29 31 32 34 32 23 22 24 17 14 11 14 19 20 21 25 26 27 29 32 33 34 33 34 34 34 34 32 31 30 28 27 29 29 30 30 29
43 44 46 46 43 34 30 31 32 22 22 21 22 21 22 21 22 23 24 32 33 32 27 19 13 12 15 17 15 17 16 18 25 31 33 32 32 32 34 34 33 32 32 32 33 33 33 31 32 34 33 28 30 29
44 45 45 45 43 32 26 25 31 25 22 25 22 21 22 22 21 20 29 27 31 30 28 26 19 21 20 26 25 24 27 27 25 26 32 34 31 32 32 32 33 34 33 33 31 25 28 30 30 31 30 30 30 29
42 41 42 40 37 31 27 23 23 25 25 24 24 25 21 17 20 28 29 24 29 27 24 25 24 29 30 29 27 29 30 29 31 28 31 31 34 28 30 31 30 29 28 30 27 31 27 29 32 32 32 32 32 32
37 42 36 37 32 28 24 26 25 25 23 21 21 22 17 16 17 22 22 28 27 25 27 28 32 32 30 31 33 32 33 33 33 31 28 28 29 30 30 28 23 27 32 33 33 33 33 34 34 33 32 32 31 29
40 37 33 33 25 23 20 26 21 23 18 17 19 17 13 12 18 25 15 23 24 28 34 34 34 33 33 35 32 32 33 33 32 30 28 27 27 23 23 25 22 27 30 33 33 33 33 34 33 32 32 31 30 28
39 30 27 27 21 12 20 27 25 20 14 17 13 10 14 15 19 14 14 15 26 27 27 32 32 32 29 29 29 32 34 30 29 27 23 23 22 24 24 32 33 33 33 33 33 33 32 32 30 29 30 30 29 28
23 26 28 24 27 22 22 13 12 12 11 10 8 8 15 15 12 7 12 24 23 24 27 29 26 30 29 30 24 28 27 29 27 26 23 23 20 22 31 33 32 33 33 32 32 32 32 32 30 30 28 27 28 28
17 21 24 22 16 16 16 8 8 12 6 7 10 15 8 9 8 12 18 18 16 19 18 22 22 21 25 28 29 26 28 25 25 22 23 23 24 28 29 28 28 31 32 32 31 32 31 32 30 23 21 27 26 28
13 16 23 25 24 21 12 9 13 10 7 10 10 9 10 13 10 18 22 23 24 24 25 25 27 26 27 29 28 27 24 25 27 27 26 30 32 31 31 29 28 31 33 33 32 32 31 31 30 28 28 29 30 30
20 15 19 19 19 19 13 6 8 11 13 18 13 10 14 14 17 22 26 28 26 26 26 26 28 30 30 28 23 22 21 21 20 23 21 22 25 26 25 31 32 32 32 33 32 32 32 31 32 32 29 30 30 30
24 19 23 19 16 17 18 17 16 20 23 19 14 11 15 21 21 21 25 25 27 25 27 33 31 28 31 29 28 29 29 24 21 22 26 27 28 24 19 24 30 30 32 32 32 31 31 31 32 32 31 31 31 28
19 24 20 9 14 15 20 21 17 17 20 29 26 24 25 25 28 29 27 28 22 30 30 26 25 28 31 30 28 23 25 29 31 29 26 23 23 24 29 30 30 30 31 31 31 28 26 26 29 30 29 27 27 26
16 12 11 9 12 18 23 18 16 17 13 19 27 25 28 30 23 21 18 23 27 30 30 29 29 29 28 27 26 25 25 22 22 21 18 17 20 23 26 28 30 30 28 17 18 20 21 24 25 27 26 25 25 24
9 13 15 14 23 22 21 19 19 21 21 15 26 19 20 16 22 19 20 19 21 21 20 21 21 20 22 21 23 22 21 19 16 15 15 14 15 16 17 19 21 24 22 17 17 19 21 23 24 23 23 23 22 21
10 7 6 7 9 8 14 14 11 10 7 14 22 24 23 20 22 18 18 20 17 16 16 17 18 20 20 23 23 21 19 19 20 21 19 19 16 16 15 16 17 19 19 18 18 18 17 17 15 14 14 14 12 11

GFSWCAN_sfc_temp_003.txt.gz
Temp
50 50 51 51 51 51 51 51 51 51 51 51 52 52 52 52 52 53 52 53 50 41 46 50 52 48 45 42 36 43 41 37 36 32 28 29 22 30 29 34 31 32 29 25 27 26 24 44 45 37 42 43 44 43
51 50 50 50 50 50 51 51 50 50 50 50 51 52 51 52 52 53 50 53 52 48 49 51 54 54 54 53 46 42 43 41 38 35 33 29 29 32 28 32 38 33 37 31 36 33 42 45 48 49 48 44 41 41
50 50 50 49 50 50 50 50 50 50 50 50 50 51 51 51 52 53 50 50 48 38 45 47 49 53 57 56 56 42 36 47 41 43 35 34 33 33 33 34 35 39 44 33 37 43 46 48 50 53 48 44 46 46
49 49 49 49 50 49 49 49 49 49 50 50 50 50 50 51 52 52 49 50 47 41 34 41 51 51 55 56 54 53 51 48 46 40 34 34 34 41 34 39 37 42 41 38 40 45 46 48 48 46 47 45 42 43
48 48 48 49 49 49 49 49 49 49 49 50 50 50 50 51 51 49 48 49 51 47 36 38 45 51 54 53 52 51 50 47 39 37 34 35 36 37 35 35 34 43 42 37 36 47 45 47 45 44 42 42 43 42
48 48 48 48 48 49 48 48 48 48 48 49 49 50 50 50 51 51 46 48 51 52 39 36 43 44 48 49 48 48 48 46 44 41 36 39 44 39 33 34 43 47 50 48 45 50 46 44 45 46 43 44 45 44
48 48 48 47 47 48 48 48 48 48 48 48 49 49 50 50 51 48 45 46 50 50 37 35 36 38 42 44 42 43 44 43 44 41 37 38 39 43 33 34 43 47 47 49 49 47 42 43 40 45 45 45 45 45
47 47 47 47 47 47 48 48 48 48 48 48 49 49 49 49 49 46 48 50 50 46 39 35 35 36 42 35 34 39 36 38 40 41 38 35 36 35 34 42 43 43 45 44 44 43 42 43 43 44 45 45 41 39
47 47 47 47 47 47 48 48 48 48 48 49 49 49 48 46 42 44 48 48 47 45 36 33 33 33 41 37 35 34 36 33 36 33 34 37 34 34 38 40 41 42 41 41 41 41 41 40 42 42 40 38 36 35
47 47 46 46 47 47 47 47 48 48 48 48 47 43 36 39 47 47 44 39 38 36 37 33 36 34 42 34 33 34 33 32 31 33 36 32 33 40 43 43 43 41 41 41 35 35 38 37 36 35 35 35 34 33
47 47 47 47 47 47 47 48 48 48 48 44 38 35 42 47 44 37 34 34 34 33 34 34 34 34 39 34 33 33 32 32 27 25 31 27 27 34 38 37 38 39 40 39 40 39 39 38 37 36 34 34 33 31
47 47 47 47 47 47 48 48 48 46 44 44 42 45 43 40 35 34 32 32 32 31 32 32 34 37 34 39 33 32 29 29 23 29 28 23 28 36 36 38 38 39 40 41 40 40 40 40 39 35 33 32 30 27
47 47 47 47 47 47 47 48 47 48 47 44 39 35 37 33 31 29 28 29 28 32 33 33 32 33 34 35 31 28 25 24 25 24 23 25 32 35 36 37 38 39 36 34 37 37 37 36 35 30 31 29 30 31
46 46 47 46 47 47 47 48 48 46 42 32 30 30 31 28 30 28 23 24 32 33 33 33 32 30 30 25 26 25 23 21 24 21 18 24 31 34 35 35 35 34 30 30 33 33 31 30 30 29 24 29 29 30
46 46 46 46 46 47 47 48 47 42 34 30 27 21 25 27 31 32 33 33 33 34 33 32 31 28 25 19 24 19 18 19 24 17 19 25 33 33 33 34 33 30 29 29 33 30 29 29 28 29 30 27 27 33
46 46 44 46 46 47 47 46 43 39 30 28 26 20 29 30 29 31 32 32 35 33 32 30 18 16 17 15 14 18 14 13 18 16 22 27 32 33 32 32 32 31 30 31 32 31 31 28 28 31 29 26 27 29
45 40 45 46 46 46 46 41 36 32 25 21 18 30 20 27 21 29 31 33 35 32 27 20 15 19 19 11 12 20 15 17 18 23 25 29 32 32 32 31 29 30 32 31 32 31 31 31 27 23 25 32 27 27
40 44 45 46 45 43 40 35 28 26 24 22 20 19 28 21 32 31 29 25 33 31 27 23 23 14 11 10 12 18 19 20 24 25 26 29 31 31 32 31 33 33 32 31 29 29 29 26 27 29 30 31 27 25
43 44 45 46 43 36 31 30 32 22 21 19 21 21 20 21 23 22 20 24 32 32 31 26 12 12 15 17 15 14 12 16 24 30 28 31 31 31 32 33 32 32 31 30 31 31 32 31 30 31 30 30 30 31
45 45 44 44 43 29 26 24 30 25 21 24 20 21 21 21 20 21 30 25 29 30 29 26 20 20 20 23 25 23 25 25 24 24 29 30 30 31 32 32 31 31 30 29 28 24 29 31 31 30 31 31 31 31
42 41 42 39 33 31 28 22 21 23 24 23 23 23 20 21 25 21 28 31 27 28 26 25 20 25 29 30 27 28 29 28 29 26 28 30 31 28 29 30 29 26 25 25 24 28 30 32 33 34 33 33 33 33
39 41 35 36 30 25 25 24 24 23 21 19 19 21 16 14 19 25 22 28 27 27 27 26 32 32 31 30 32 31 32 32 31 30 28 28 26 28 24 24 21 20 29 31 30 31 32 33 33 34 33 33 32 29
40 37 32 32 23 19 20 24 18 22 17 16 18 16 12 10 17 24 19 25 23 28 31 30 32 34 33 34 31 32 32 32 30 30 28 28 27 24 21 22 18 22 29 31 33 33 32 33 33 32 32 32 30 27
39 30 24 21 16 13 19 27 24 17 13 15 12 9 12 11 15 11 13 14 25 25 26 31 30 29 27 28 28 31 33 29 28 27 25 21 23 24 23 24 23 25 30 32 32 32 33 33 33 30 26 30 29 28
23 25 20 23 27 23 20 12 12 17 15 8 8 7 13 12 11 5 11 18 16 18 25 25 23 26 25 25 23 27 26 28 27 25 27 22 18 17 20 22 24 29 27 31 30 32 31 32 32 31 30 27 25 25
12 20 25 24 23 12 15 11 17 13 3 5 7 11 4 5 7 11 17 18 14 17 17 18 18 19 22 27 26 26 28 26 25 23 24 24 23 21 21 27 28 24 23 29 31 31 31 31 31 30 30 29 23 27
12 18 24 24 22 20 12 6 10 7 4 8 7 6 6 7 7 16 20 21 23 23 24 24 27 26 27 29 28 28 26 22 27 27 24 25 26 27 27 29 25 24 28 32 31 30 29 30 30 30 30 30 28 27
18 17 19 18 15 14 9 3 6 10 12 16 11 9 12 12 16 21 25 25 24 24 26 26 26 28 28 27 22 20 24 22 16 18 18 21 25 22 17 28 30 29 27 29 30 30 30 30 30 31 31 30 29 31
25 20 17 12 13 15 18 16 14 18 21 18 13 9 14 20 19 20 25 24 21 22 20 25 25 16 21 31 29 30 24 29 26 20 21 18 22 25 25 23 29 30 30 31 31 32 31 30 29 29 30 31 32 32
18 23 23 21 21 20 20 20 15 15 18 24 23 23 23 20 21 19 18 18 17 16 19 21 23 22 27 30 28 27 26 24 27 27 24 19 17 16 20 27 28 29 29 29 28 26 21 19 21 24 25 27 28 27
15 11 9 6 9 14 18 12 7 8 10 16 18 22 27 23 14 12 16 14 14 23 23 22 25 23 23 22 21 19 20 19 19 20 17 12 10 10 10 14 18 23 27 24 24 15 11 14 16 18 21 23 23 24
15 12 12 9 13 17 9 13 12 12 17 7 24 12 9 11 11 10 16 15 15 15 14 16 16 18 21 21 19 17 19 19 19 18 18 16 15 11 10 11 12 13 14 22 19 13 12 12 12 13 14 19 18 16
4 -1 -2 2 7 7 8 10 6 6 1 4 19 11 9 15 15 13 17 17 15 15 15 16 17 18 19 21 20 20 20 20 20 21 20 17 14 11 6 5 5 7 9 10 13 13 12 9 7 7 7 9 9 8

GFSWCAN_sfc_temp_006.txt.gz
Temp
50 50 50 50 51 51 51 51 51 51 51 51 51 52 52 52 52 53 50 51 49 40 44 49 50 46 44 41 36 41 40 36 36 33 29 30 20 29 29 34 30 30 25 22 27 26 23 42 42 36 41 43 46 45
50 50 49 50 50 50 51 51 50 50 50 50 51 51 51 51 52 53 50 51 50 46 47 48 50 51 51 51 44 39 42 39 37 33 33 29 27 28 30 30 35 31 35 33 36 32 41 47 46 49 48 44 42 39
49 50 49 49 50 50 50 50 50 50 50 50 50 51 51 52 52 52 49 48 46 38 44 46 47 52 55 54 53 42 35 45 40 41 33 32 28 31 32 32 31 39 42 36 37 41 43 47 50 47 44 43 42 41
48 48 50 49 49 49 50 50 50 49 49 50 50 50 50 51 51 52 49 47 46 40 34 41 48 49 53 53 51 52 50 46 43 38 34 33 34 41 34 39 36 39 41 38 37 44 45 45 42 42 42 43 42 43
48 48 48 48 48 49 49 49 49 49 49 50 51 50 50 51 50 50 48 49 50 46 36 37 45 48 50 50 49 48 48 45 40 37 34 35 35 36 34 35 35 41 39 34 38 45 43 44 44 44 43 42 43 42
48 48 47 48 48 48 48 48 48 48 49 49 49 50 50 50 51 49 44 47 49 51 39 34 42 41 45 48 47 45 46 44 42 40 35 39 44 39 33 33 43 46 47 50 45 49 47 44 44 45 43 41 43 40
48 48 47 47 47 48 48 48 48 48 48 48 49 49 50 50 52 48 44 46 49 47 36 35 35 36 41 43 41 42 43 41 41 40 37 37 38 42 33 35 44 45 46 47 48 46 39 40 40 44 45 43 42 41
47 47 47 47 47 47 47 48 48 48 48 48 48 48 49 49 49 47 47 49 50 44 39 35 35 34 41 35 34 39 35 38 41 40 37 35 37 35 34 40 41 44 46 44 41 41 40 42 44 43 41 39 37 36
47 47 47 47 47 47 47 47 48 48 48 48 48 49 48 46 42 44 48 48 47 44 37 33 34 33 41 36 35 33 36 33 37 33 34 36 33 34 37 37 37 39 38 38 39 39 40 39 37 38 37 36 34 33
47 46 46 46 47 47 47 48 47 48 48 48 47 43 36 39 47 48 45 40 39 37 37 33 36 34 41 33 33 34 33 33 32 33 36 32 33 40 39 38 37 37 38 39 35 36 37 34 34 35 35 35 34 32
47 47 46 47 47 47 47 47 47 48 48 43 38 35 42 47 43 38 34 34 34 33 34 34 34 34 39 34 33 33 32 32 24 25 31 28 27 33 35 35 36 37 38 38 37 37 38 37 36 34 33 34 32 31
47 47 47 47 47 47 47 47 48 46 44 44 43 44 42 40 35 34 32 32 32 30 32 32 34 36 34 39 33 32 30 29 24 28 27 20 27 33 34 34 35 36 36 36 37 37 37 36 35 33 32 32 31 30
47 46 47 47 47 48 47 47 47 48 47 43 39 35 37 33 31 29 25 29 29 32 33 33 32 33 34 35 31 30 25 22 25 22 20 23 31 33 33 34 36 36 34 32 35 34 34 33 32 28 30 30 28 28
46 46 46 46 46 47 47 47 47 46 43 34 31 31 29 28 30 30 30 25 27 33 33 33 31 31 29 29 28 21 23 23 23 16 16 22 31 33 33 33 33 34 29 28 32 32 29 28 28 28 25 26 24 26
46 46 46 46 46 47 48 47 46 43 37 31 29 25 27 27 29 32 32 33 33 34 33 32 30 28 26 23 25 20 21 19 21 17 18 25 32 32 33 34 33 29 27 27 32 28 26 26 26 28 29 27 25 24
46 46 44 46 46 47 47 46 43 40 32 29 26 21 27 29 28 31 32 32 34 33 32 29 21 22 19 18 16 19 16 15 17 15 21 26 32 32 33 31 31 31 30 31 31 29 29 25 26 29 29 27 26 25
45 40 45 46 46 45 45 41 37 31 28 23 20 29 19 21 23 25 32 32 35 32 27 25 17 18 19 11 14 18 14 17 18 21 24 28 32 32 32 31 28 29 30 30 30 29 29 29 25 23 24 30 28 27
41 44 46 46 45 43 39 34 29 28 24 22 21 20 29 25 23 25 28 29 31 30 28 25 23 13 9 10 13 18 19 19 21 22 26 29 31 31 32 30 32 32 31 30 27 27 26 24 26 29 29 29 29 28
43 44 45 45 43 34 30 30 31 23 21 20 21 23 21 23 28 25 24 27 31 32 29 22 12 14 17 18 16 12 10 16 23 27 27 31 30 30 31 31 31 31 30 28 29 29 30 28 29 30 29 29 30 32
44 44 44 44 43 30 26 25 29 25 21 24 20 22 21 21 25 27 29 25 26 29 28 23 20 19 19 22 24 23 24 25 23 24 28 26 29 30 31 31 31 30 29 28 26 24 26 27 28 29 28 32 32 32
42 41 41 38 31 31 27 21 21 22 23 22 21 21 17 25 26 25 27 28 28 27 21 23 19 25 28 27 27 27 28 27 28 25 26 28 29 28 29 30 28 25 22 21 26 30 32 31 32 33 33 32 33 33
38 41 34 35 27 24 24 24 23 22 20 18 17 18 11 10 19 24 28 27 26 23 26 27 32 28 29 30 30 30 31 31 30 28 26 27 27 25 25 25 19 21 20 22 25 27 31 33 33 33 33 32 32 33
39 36 29 26 23 19 21 23 18 20 14 14 15 14 10 8 14 25 23 27 23 27 27 27 30 32 32 33 30 31 31 31 29 29 28 28 28 25 21 22 19 20 22 25 24 26 31 33 33 33 33 32 32 30
38 29 25 21 17 15 24 21 21 17 12 10 10 12 11 10 15 20 17 12 23 23 25 30 28 26 25 27 25 29 30 28 28 26 25 21 23 25 23 23 20 21 24 27 27 31 31 30 33 32 32 30 30 29
26 25 20 20 23 18 17 9 10 20 21 9 9 8 9 10 9 7 9 16 13 14 21 22 21 25 23 20 21 25 25 27 25 24 28 23 21 16 20 21 22 23 21 16 19 23 30 31 31 30 31 30 29 29
13 23 22 17 21 12 10 12 16 15 1 4 12 8 1 3 6 11 15 16 12 14 13 15 16 17 21 26 24 23 28 23 22 20 28 24 24 23 20 18 21 22 19 27 29 29 29 29 29 29 29 30 29 29
13 20 25 23 21 16 7 4 8 5 2 7 6 3 4 6 5 15 19 19 22 22 23 23 25 25 27 28 26 25 22 20 24 26 21 21 23 24 24 22 27 27 27 29 27 28 28 28 28 28 29 30 30 30
14 15 18 19 20 15 7 2 4 8 10 14 9 8 11 11 15 20 24 25 24 23 23 23 23 25 25 26 22 18 24 24 23 15 19 26 26 26 23 21 25 29 26 28 29 29 29 29 29 28 27 27 28 30
23 20 17 16 8 7 12 14 12 16 21 18 14 10 14 19 19 19 21 20 16 19 19 19 21 14 19 19 20 24 25 27 28 26 24 24 15 22 23 21 22 27 28 28 29 29 27 22 20 23 22 25 28 29
20 19 13 9 12 14 18 23 16 13 15 18 19 21 20 18 13 15 16 17 19 20 23 23 25 25 26 26 27 26 23 24 25 25 23 17 17 16 16 16 17 22 25 27 27 27 25 11 13 14 16 18 17 18
10 12 15 12 12 13 16 7 2 4 5 11 11 18 25 16 14 9 14 10 13 14 15 13 14 15 15 17 18 19 21 19 19 17 16 16 17 16 15 14 13 14 18 21 23 22 12 7 4 4 9 16 18 14
17 11 10 7 10 10 3 11 3 4 6 4 20 3 6 7 3 8 14 12 12 12 12 13 12 13 17 19 19 19 19 17 16 17 16 15 15 13 11 9 7 6 4 10 7 5 3 1 1 2 1 5 7 7
-0 -0 4 -1 6 7 3 6 3 6 -1 -3 0 0 -1 4 7 11 16 16 14 13 12 13 15 16 18 17 17 17 17 17 16 15 14 15 11 8 4 1 -2 -2 -1 -0 0 -1 1 -1 -2 -1 1 1 2 3

GFSWCAN_sfc_temp_009.txt.gz
Temp
50 50 50 50 50 50 51 51 51 51 51 51 51 51 51 51 52 54 52 52 51 42 47 51 52 47 46 45 40 44 43 40 37 34 33 33 31 35 35 38 35 36 33 29 29 29 27 47 46 39 45 45 46 46
49 50 49 49 49 50 50 50 50 50 50 51 51 51 51 51 51 53 52 51 51 48 49 50 53 55 55 53 46 42 46 42 41 35 34 33 31 29 33 33 40 35 39 36 36 37 46 49 50 50 47 45 42 42
49 49 49 49 49 49 50 50 50 50 49 50 51 51 51 52 52 53 50 49 48 39 45 49 49 53 56 56 55 45 40 47 43 45 38 35 33 35 32 32 34 41 44 38 37 44 47 49 50 46 45 42 44 44
48 48 48 49 49 49 49 50 49 49 49 49 50 50 51 51 51 52 50 48 47 41 34 43 49 51 55 55 55 54 49 46 44 42 35 34 33 42 35 40 38 44 43 39 38 46 47 47 47 44 44 44 44 45
48 48 48 48 48 48 49 49 49 49 49 49 49 49 50 51 51 50 49 50 50 48 37 38 46 49 50 52 52 51 49 45 42 38 34 35 38 38 36 36 36 44 42 38 38 48 44 45 46 45 43 43 45 44
48 48 47 47 47 48 48 49 49 49 49 49 50 50 50 50 51 49 45 49 50 49 39 35 43 42 46 48 49 47 48 45 44 41 36 40 45 41 33 33 43 48 49 50 46 47 46 44 45 47 45 44 45 44
47 47 47 47 47 47 48 48 48 48 48 49 49 49 50 50 52 48 44 48 49 48 37 35 35 39 42 43 42 43 44 44 45 41 37 38 38 42 33 34 45 47 47 48 48 46 40 43 42 46 46 46 44 44
47 47 47 47 47 47 47 47 48 48 49 49 49 49 49 49 49 47 48 49 49 45 40 34 35 35 42 36 36 40 38 40 42 41 37 36 38 36 34 41 41 43 45 43 42 43 43 44 45 45 45 44 42 41
47 47 47 47 47 47 47 47 47 48 49 49 49 49 49 47 43 45 48 49 48 45 37 33 34 34 40 37 36 36 37 34 38 34 35 37 35 34 36 37 38 38 40 39 41 42 43 42 43 43 42 41 40 40
46 46 46 47 47 47 47 47 47 48 48 49 47 44 36 40 47 48 45 40 39 38 38 34 37 35 41 35 34 35 34 33 32 34 37 33 33 38 38 39 40 40 41 42 39 38 40 39 39 39 39 40 39 38
47 46 46 46 47 46 47 47 47 48 47 43 38 35 42 47 43 39 34 35 35 33 35 35 35 35 39 35 34 33 32 33 29 31 32 31 31 35 38 38 39 40 41 41 42 41 40 38 37 37 37 37 36 35
47 47 47 47 47 46 47 47 47 45 43 44 43 44 42 40 35 33 32 32 33 32 33 33 34 37 35 39 33 32 31 31 24 31 29 28 32 36 37 38 39 39 40 40 40 38 38 37 37 35 35 35 34 33
47 47 47 47 47 47 47 47 47 46 46 43 39 35 37 33 31 31 28 30 31 33 33 33 32 33 34 35 32 31 27 26 29 26 25 28 35 36 37 37 38 39 38 35 37 38 37 37 35 32 31 32 30 31
46 46 46 47 47 46 46 47 47 46 42 35 34 31 31 29 30 28 28 29 31 33 33 33 31 32 30 30 29 26 26 25 24 20 22 29 34 36 36 36 37 37 30 30 34 35 31 30 30 29 27 28 27 28
46 46 46 46 47 47 47 47 46 44 37 31 32 27 29 28 31 32 33 33 33 34 33 32 31 32 26 26 26 24 23 21 23 23 26 31 34 35 36 36 36 31 27 29 34 31 29 28 28 29 31 30 30 28
46 46 43 46 47 47 46 46 43 40 33 31 27 25 28 27 29 32 33 32 35 33 32 31 26 26 24 24 22 20 20 18 24 24 28 31 34 34 34 34 33 33 32 33 33 32 31 28 27 31 30 29 28 27
46 41 46 46 45 45 45 40 36 31 30 25 22 27 25 24 28 31 33 33 35 33 28 26 24 24 23 20 19 22 19 24 25 28 29 31 33 34 34 33 29 30 32 32 32 31 31 31 28 26 28 33 32 31
41 44 46 46 44 43 38 35 31 29 25 25 23 25 29 29 24 24 31 32 33 32 29 27 26 18 17 17 20 23 24 26 26 28 32 33 34 34 34 33 34 34 33 33 30 29 29 27 29 31 31 32 31 33
43 44 46 45 43 34 30 30 31 24 22 22 23 26 26 28 29 28 29 31 31 31 28 25 19 20 22 23 24 22 21 24 29 32 32 33 33 32 32 33 33 33 32 31 32 32 32 30 30 31 31 32 31 32
43 43 42 44 43 31 27 24 30 25 22 24 23 26 23 25 27 28 29 31 33 32 29 26 24 25 25 27 28 28 29 29 28 28 30 31 33 32 33 34 34 34 33 32 30 25 30 32 33 34 32 31 31 31
40 40 41 38 32 31 27 22 22 23 24 23 22 22 20 27 26 27 28 31 29 28 26 27 25 29 30 30 31 31 31 31 30 29 30 31 33 32 33 33 33 31 29 29 28 29 26 30 33 33 32 31 32 33
38 40 34 33 28 26 24 24 23 23 21 19 19 20 13 13 22 25 29 27 27 27 28 28 30 31 31 31 33 32 33 33 32 31 28 29 29 29 29 30 28 29 28 29 29 28 30 31 33 33 32 32 33 33
39 36 29 26 23 18 21 24 17 20 15 15 15 15 12 10 16 26 24 28 27 28 30 30 32 34 33 33 31 32 32 31 30 30 29 29 30 30 28 29 27 26 26 29 29 29 29 32 33 33 33 33 32 32
38 29 26 18 16 16 22 15 19 19 14 13 11 14 13 13 20 21 19 18 24 25 26 31 30 29 28 28 28 30 32 31 30 29 28 27 28 30 30 29 29 27 29 31 28 28 29 31 28 32 32 31 31 31
24 24 19 18 20 16 11 16 18 22 18 18 15 12 10 12 11 12 17 18 17 19 23 24 24 27 26 26 25 28 26 29 29 28 31 27 29 26 29 29 26 27 28 27 27 27 27 31 32 31 30 29 29 29
15 23 14 12 12 12 10 15 17 17 12 10 15 8 4 6 8 12 17 20 17 20 19 20 22 23 25 27 27 28 30 28 27 26 31 29 28 27 28 27 26 28 29 28 28 29 29 29 29 29 29 30 29 29
16 20 22 23 20 15 7 7 10 6 11 11 7 4 5 7 7 17 21 22 24 24 25 26 27 27 29 31 28 28 26 25 27 29 27 26 27 27 27 28 28 30 30 30 30 28 28 28 28 29 28 29 29 28
13 14 14 16 17 12 6 2 4 8 10 15 10 9 11 12 16 21 23 24 21 24 25 24 24 24 25 26 26 25 26 25 28 27 25 26 27 26 26 26 27 27 28 28 29 29 29 29 27 26 26 27 27 28
19 15 15 19 17 16 11 16 16 18 20 17 14 10 15 20 17 16 18 18 19 22 22 22 24 23 24 24 27 24 25 27 27 26 27 26 26 24 21 22 22 24 26 27 29 29 28 27 25 24 24 23 23 22
19 17 11 8 10 12 17 20 15 12 15 17 18 20 20 14 14 13 14 13 13 13 15 17 18 19 18 18 17 20 20 20 20 21 23 22 19 18 18 17 18 19 20 22 24 26 26 18 17 17 16 19 17 16
11 20 13 13 11 12 11 2 1 3 4 9 6 16 20 12 12 10 13 10 7 8 11 11 11 13 14 14 15 17 19 19 19 18 18 17 16 15 14 14 14 13 14 18 22 21 16 12 10 10 11 10 9 10
18 16 12 11 10 6 4 10 5 3 1 3 8 -1 4 6 1 8 12 11 11 10 11 11 11 12 16 19 18 17 17 16 15 15 15 15 14 12 11 9 8 7 9 9 10 10 8 7 7 6 6 6 5 6
9 12 12 6 8 8 2 3 3 7 1 -2 -2 -2 -1 1 -1 6 10 12 11 9 8 10 12 17 15 14 13 13 13 13 13 11 10 10 8 6 6 4 3 4 6 6 5 5 4 4 3 3 2 1 1 1

GFSWCAN_sfc_temp_012.txt.gz
Temp
50 50 50 50 50 50 50 51 51 51 52 52 52 52 52 51 52 63 60 60 64 54 58 59 60 58 58 61 53 54 54 51 46 37 37 40 36 45 43 48 43 43 37 34 35 31 30 54 54 41 50 52 46 45
49 49 49 49 49 50 50 50 50 51 51 51 52 52 52 52 52 57 64 60 60 62 59 59 60 62 63 66 61 55 56 55 55 45 40 38 34 34 39 39 50 42 48 45 44 45 57 59 56 58 54 50 43 45
48 49 49 49 49 49 50 50 50 50 50 50 51 52 52 52 52 57 63 60 62 51 57 60 59 61 65 64 67 57 54 58 55 57 48 41 35 45 34 39 41 52 54 45 44 52 55 56 59 56 50 44 48 50
48 48 48 48 49 48 49 49 49 49 49 50 50 51 51 52 52 55 61 59 59 50 37 53 58 58 61 63 64 64 60 56 56 55 39 37 37 52 39 49 47 53 52 48 47 52 54 57 52 50 46 46 46 52
48 48 48 48 48 48 48 49 49 49 49 49 49 49 51 51 52 58 59 59 60 59 44 50 55 55 59 60 61 62 61 57 50 42 36 38 48 45 42 42 42 55 52 42 38 51 47 49 48 48 45 48 50 49
48 48 48 48 48 48 48 48 48 49 49 49 49 50 51 51 52 62 57 60 60 62 48 42 54 52 55 58 58 58 59 55 53 48 42 48 54 50 34 36 49 56 58 57 48 48 50 49 48 51 50 50 50 51
47 48 47 48 48 48 48 48 48 48 49 49 49 50 51 50 59 57 55 55 54 61 44 41 43 49 50 52 52 55 53 54 51 48 42 47 50 47 37 35 50 52 49 50 52 50 46 48 47 50 50 52 52 53
47 47 47 47 48 48 47 47 48 48 49 49 49 49 49 49 50 54 55 51 55 52 47 38 38 42 50 42 39 46 43 46 45 45 40 42 42 41 36 46 46 48 46 46 47 51 51 50 51 51 53 52 49 50
47 47 47 47 47 48 48 47 48 48 48 49 49 49 50 48 45 48 48 51 54 54 42 36 35 35 47 41 40 41 45 37 45 36 37 41 37 36 42 40 42 44 46 45 49 50 50 48 49 50 49 49 47 46
47 47 46 47 47 47 48 48 47 48 48 49 49 45 36 42 48 49 47 46 43 43 42 37 46 39 47 38 37 39 38 37 35 37 42 33 35 38 41 43 45 46 47 49 44 43 45 45 46 46 45 46 45 45
47 47 47 47 47 47 47 47 47 48 48 44 39 36 43 47 46 41 35 36 36 34 36 36 36 36 43 38 37 37 34 35 32 37 35 34 36 40 44 45 47 48 49 48 48 48 47 46 45 44 43 43 41 40
47 47 47 47 47 47 47 47 47 46 45 44 43 45 43 40 35 34 32 32 33 34 34 34 35 38 36 41 37 34 34 34 31 40 32 31 42 44 45 45 46 48 47 47 47 46 46 45 45 42 41 41 39 37
46 47 47 47 47 47 47 47 47 46 46 45 40 33 35 32 32 32 30 32 33 35 35 35 33 36 36 38 33 35 32 32 38 29 32 40 43 44 45 46 46 47 45 42 45 46 45 44 42 38 36 36 34 36
46 46 47 47 47 47 47 46 46 45 43 37 33 31 33 31 33 34 35 36 36 36 36 35 33 35 33 32 33 31 32 34 28 27 30 39 43 45 45 45 45 44 37 37 41 41 38 35 35 34 33 33 32 33
46 46 46 47 47 46 46 45 45 47 41 34 35 30 32 32 34 34 35 36 35 37 37 34 34 38 32 30 32 30 27 27 31 31 38 41 43 43 42 42 43 40 34 36 41 38 34 34 34 34 36 35 35 33
46 46 46 46 47 46 45 45 44 43 37 36 33 30 32 32 32 33 34 33 36 34 35 37 32 31 29 31 27 28 28 28 33 36 40 43 41 40 41 41 41 41 39 39 39 39 37 34 33 36 35 34 33 32
45 42 46 46 45 44 44 44 42 36 35 32 30 32 32 33 34 34 36 35 37 34 32 34 29 29 30 28 27 31 29 34 37 39 42 41 40 41 42 40 36 37 38 39 40 39 38 36 34 33 33 38 36 36
41 44 46 46 46 44 41 42 38 37 31 32 32 31 32 33 32 33 35 36 35 34 35 34 34 28 28 27 30 34 36 38 39 40 42 42 42 41 41 41 41 41 40 40 36 37 36 33 35 39 37 37 35 35
45 45 46 46 48 43 38 36 39 33 30 32 31 32 32 32 32 32 33 34 37 39 36 34 30 30 31 33 34 35 36 37 40 42 42 42 41 39 39 40 38 39 40 39 39 41 41 39 38 39 39 38 34 35
44 43 43 43 46 41 33 34 39 36 33 32 32 32 32 31 31 32 33 35 37 36 33 31 33 35 36 39 39 40 41 42 40 37 38 41 41 40 39 40 41 42 41 41 40 35 38 39 42 41 39 38 34 33
39 40 40 41 37 38 35 34 33 34 34 33 32 35 29 31 30 30 31 34 32 33 33 36 35 39 39 40 41 41 40 40 39 38 37 38 43 41 41 42 42 41 38 38 36 38 34 36 39 39 34 33 33 34
37 41 36 37 33 32 33 34 35 34 34 32 32 34 30 28 28 29 33 30 31 36 39 39 41 41 40 38 40 40 41 41 40 39 36 37 37 39 39 40 38 36 37 36 38 35 36 38 37 35 33 33 34 34
39 39 34 33 30 30 27 34 30 30 29 28 30 29 28 29 28 31 27 31 34 39 41 41 41 40 40 41 40 40 40 39 39 40 39 39 40 39 37 38 37 34 34 38 40 37 35 35 34 33 34 33 33 32
40 32 29 28 29 24 30 27 30 28 28 27 27 24 25 28 27 25 24 28 34 37 36 37 39 39 40 36 37 41 41 41 40 40 40 38 38 40 41 40 39 37 37 38 36 35 34 33 32 33 32 32 32 31
31 27 29 23 27 24 23 24 24 27 23 23 21 23 24 25 24 23 23 31 34 34 37 38 37 38 38 39 40 41 38 40 39 39 41 39 37 37 37 40 40 38 37 32 32 32 32 32 32 32 32 31 31 31
22 25 25 24 23 25 24 20 21 23 24 20 22 24 23 25 23 25 30 34 33 35 34 34 35 38 39 39 38 40 41 39 38 36 39 40 37 34 32 32 33 35 36 34 32 31 31 31 31 31 31 31 30 30
21 23 28 30 28 25 22 21 23 23 19 19 25 21 23 21 23 30 35 32 33 31 32 34 33 34 34 34 36 37 36 36 34 36 37 36 35 35 32 30 30 32 33 32 32 31 30 30 30 30 30 30 30 30
26 27 21 25 24 27 23 23 22 21 25 27 26 21 23 25 28 29 28 27 26 29 31 31 31 30 29 31 31 31 30 31 31 32 32 32 32 31 30 30 30 28 31 31 31 31 30 30 29 29 29 29 29 29
27 27 27 21 21 23 24 26 27 30 32 28 27 28 28 28 21 21 22 22 25 25 23 22 24 24 27 27 28 28 27 26 24 24 26 27 30 26 26 26 27 28 28 29 29 29 28 28 27 26 26 27 27 27
25 28 25 21 20 23 30 30 30 29 30 32 32 31 27 19 18 21 21 20 18 17 18 19 19 19 19 19 20 23 24 23 21 20 19 20 20 21 22 22 22 23 24 25 27 28 28 26 25 25 23 22 21 21
26 26 25 25 24 29 28 22 24 23 26 29 28 29 29 17 17 18 17 18 18 18 17 16 17 19 19 18 18 18 18 19 18 18 18 19 19 19 18 18 19 19 21 23 23 23 22 22 21 19 18 16 15 15
25 24 24 21 25 25 23 23 24 23 26 25 27 21 18 19 13 14 15 16 15 13 12 13 13 15 18 18 18 18 16 16 15 14 13 14 14 14 15 15 15 17 18 19 19 18 17 16 16 15 15 12 11 10
19 20 19 19 20 23 22 21 22 21 22 21 19 18 15 15 8 12 17 16 14 13 12 13 14 15 18 17 15 16 16 16 14 13 11 11 9 9 10 12 12 14 15 16 16 15 14 12 11 10 9 8 7 6

GFSWCAN_sfc_temp_015.txt.gz
Temp
50 50 50 50 50 51 51 51 52 52 52 53 53 52 52 52 53 65 67 68 69 61 63 66 67 64 65 66 55 60 58 57 53 39 40 44 38 49 48 54 46 41 37 34 38 33 32 59 57 43 52 57 55 49
49 49 50 49 50 50 50 51 51 51 52 52 53 52 52 52 52 55 71 69 70 68 63 66 66 67 67 69 68 62 61 59 60 51 45 45 39 37 42 42 59 46 51 47 48 47 61 61 57 59 59 55 50 45
48 48 49 49 49 49 50 50 50 51 51 51 52 53 52 52 52 57 72 70 72 57 63 65 63 66 71 69 71 61 61 66 62 66 53 43 36 48 35 44 50 57 62 49 49 56 57 58 59 57 56 52 50 48
48 48 48 49 49 49 49 49 49 50 50 51 51 52 52 52 53 55 70 68 69 58 40 58 65 64 66 69 69 69 67 64 65 61 42 38 40 57 43 53 51 56 58 52 50 57 57 60 55 53 53 51 48 55
48 48 48 48 49 49 48 48 48 49 50 50 50 49 52 53 53 65 69 67 68 64 48 54 61 62 64 65 66 67 65 62 57 45 39 41 53 53 50 47 47 57 54 48 44 55 50 50 51 53 51 50 54 53
48 48 48 48 48 48 48 48 48 48 49 49 49 51 51 52 53 69 64 68 68 67 52 43 60 58 62 64 63 63 64 63 62 53 43 55 61 54 37 39 54 61 62 62 55 57 52 49 51 55 54 54 55 54
48 48 48 48 48 48 48 48 48 48 49 48 49 50 51 51 63 62 61 60 56 69 50 44 49 55 57 60 60 61 59 56 55 51 47 49 53 53 40 39 55 59 58 55 55 52 44 49 49 55 54 55 55 57
48 48 47 47 48 48 48 48 48 48 49 49 49 49 49 49 51 58 62 55 58 63 55 42 42 45 55 47 45 56 48 51 51 52 44 45 51 46 38 50 55 56 53 50 49 50 50 52 55 55 56 56 53 53
47 47 47 47 47 47 48 48 48 48 48 49 48 49 52 52 50 58 49 53 63 59 48 38 37 36 54 45 44 44 48 40 49 38 41 46 40 39 48 52 52 52 50 49 52 54 54 52 52 53 53 52 50 49
48 47 47 47 47 47 48 47 48 48 48 48 49 46 38 43 48 50 54 50 48 47 49 38 49 40 51 41 38 39 40 39 35 38 42 33 35 46 49 51 52 52 53 53 48 47 48 47 49 50 49 50 49 47
48 47 47 47 47 48 48 47 48 48 48 44 39 37 44 47 47 41 37 40 41 36 40 43 43 41 49 40 37 40 36 36 33 37 37 36 38 46 49 49 51 52 53 53 53 51 51 50 49 48 47 46 44 44
48 48 47 47 47 48 48 47 48 48 45 44 44 45 43 40 36 36 34 33 34 35 36 35 37 45 39 45 37 34 34 35 33 44 34 33 46 50 49 49 51 52 52 51 51 50 50 49 49 46 44 43 43 40
47 47 47 47 47 47 48 46 46 46 47 44 37 34 34 32 32 32 30 33 33 34 35 35 33 35 36 38 34 35 33 34 42 32 34 43 49 49 50 50 50 52 49 46 49 50 49 48 46 41 39 40 36 39
47 47 47 47 47 46 47 46 46 46 46 36 33 32 32 32 33 34 35 35 36 36 35 35 33 34 34 34 35 32 33 37 30 29 32 46 47 49 51 50 50 48 38 41 44 45 43 39 39 36 34 34 33 35
47 47 47 47 46 46 46 45 45 52 44 35 35 31 32 33 34 34 35 36 37 39 38 37 37 40 34 32 34 32 29 29 33 35 41 46 48 49 47 46 46 43 36 38 45 42 35 35 36 37 39 38 39 34
46 46 49 47 46 45 45 45 44 45 43 39 34 32 34 34 33 33 34 33 39 38 38 39 34 33 32 33 30 30 30 30 36 40 45 46 44 45 45 45 45 46 44 44 44 43 41 36 34 39 39 36 34 33
45 48 47 46 44 44 45 42 42 40 38 35 33 35 35 35 34 33 36 36 40 36 33 35 31 31 32 31 30 37 32 37 41 43 46 46 43 44 45 45 39 41 42 43 43 43 42 41 37 36 34 42 41 38
48 49 46 46 49 44 42 47 43 41 33 38 35 33 35 35 35 35 37 37 36 35 36 34 37 30 30 29 33 38 41 43 45 45 45 45 46 46 46 45 45 45 44 43 41 41 40 37 37 41 44 44 42 40
48 46 46 46 47 43 37 39 44 36 35 38 35 36 35 34 35 36 36 35 38 39 38 36 32 33 34 37 37 38 40 42 42 44 46 46 45 44 43 43 43 42 42 42 42 43 44 44 44 44 44 43 41 40
44 44 44 45 47 42 36 37 44 40 37 38 37 37 35 34 33 33 34 35 37 37 34 33 35 39 40 44 45 44 45 46 44 41 42 45 47 45 43 43 43 44 44 44 44 39 43 43 44 45 44 42 37 36
40 40 41 44 43 44 41 40 38 40 39 39 38 40 32 33 32 32 33 37 33 35 36 41 40 43 45 45 45 46 44 44 43 42 41 41 45 45 44 45 45 44 43 42 39 41 39 41 42 44 36 35 34 35
37 40 35 39 35 36 38 41 40 41 40 37 36 40 32 30 30 31 34 32 33 40 44 43 45 45 44 42 44 45 44 44 44 43 38 39 40 42 43 45 44 41 41 39 41 38 39 42 42 39 36 33 34 35
38 36 34 34 31 32 29 41 33 35 31 31 35 31 31 31 33 36 30 36 39 44 46 46 45 44 43 45 44 44 44 43 43 44 44 43 44 44 42 43 42 38 37 40 43 41 39 38 37 34 34 34 34 33
39 32 30 30 32 27 32 30 36 33 33 31 31 28 29 32 32 30 29 35 41 44 42 42 44 44 44 42 43 45 46 47 44 44 44 43 42 43 44 44 43 42 42 42 40 37 36 34 33 34 33 32 32 32
31 28 31 26 31 28 27 28 28 30 27 28 26 28 28 31 28 28 28 37 38 36 37 41 42 43 42 42 43 44 45 44 42 41 44 44 41 40 40 42 42 43 42 35 33 33 32 33 33 32 32 32 31 31
26 28 29 28 28 29 29 25 26 27 28 26 27 30 29 29 26 27 35 35 34 34 32 32 34 38 40 41 39 39 40 41 39 36 40 42 41 36 35 33 33 36 40 37 34 32 32 32 31 31 31 31 31 30
26 26 31 35 34 31 28 28 31 29 25 25 28 26 27 24 26 34 35 32 33 32 34 35 33 34 33 34 35 34 34 33 31 31 33 34 35 35 32 31 31 33 33 33 32 32 31 31 30 31 30 31 31 30
30 31 25 28 30 33 27 28 27 26 29 34 32 25 25 28 30 30 29 29 30 32 33 33 32 31 30 30 30 30 29 29 30 32 34 36 36 29 28 29 31 29 30 31 31 31 31 30 30 29 29 29 29 30
29 31 30 24 26 28 29 29 30 35 39 34 30 30 31 28 25 26 26 27 29 28 26 25 26 27 29 29 29 28 26 24 22 20 20 23 24 25 25 25 26 27 27 27 29 29 28 28 27 27 27 27 27 27
27 32 28 25 24 26 31 35 32 32 37 36 36 34 29 23 22 24 24 24 22 21 22 23 23 23 22 22 22 24 24 23 20 18 17 17 19 22 23 22 21 22 23 24 25 27 28 27 28 28 26 25 23 23
30 30 28 29 28 31 30 29 30 30 30 32 33 30 26 21 20 20 21 22 22 21 21 20 21 21 20 19 19 18 18 22 20 19 18 18 19 19 19 19 20 20 20 22 23 23 22 23 24 23 21 19 18 18
28 27 27 25 28 29 29 28 29 28 30 29 30 27 23 23 18 18 19 20 20 17 16 17 16 17 19 20 20 20 18 19 19 17 17 15 15 16 15 16 17 17 18 18 20 20 19 20 19 19 19 16 14 13
25 26 26 25 26 26 28 26 28 27 27 26 25 24 21 20 14 17 21 20 17 16 15 16 17 18 19 19 19 19 18 19 18 17 16 14 13 13 12 14 12 12 14 17 18 17 16 16 15 14 12 11 10 8

GFSWCAN_sfc_temp_018.txt.gz
Temp
51 51 51 51 51 51 51 52 52 53 53 54 53 52 52 52 53 61 67 69 67 60 65 68 70 67 67 66 54 61 57 57 52 38 40 44 38 46 48 54 42 38 36 33 38 34 32 60 58 43 51 54 54 52
50 50 50 50 50 51 51 51 52 52 53 54 55 52 52 52 53 54 69 71 71 66 62 68 67 68 67 67 67 62 61 59 58 49 46 46 36 37 40 42 60 45 49 45 45 43 58 62 57 58 56 54 49 51
48 49 49 49 50 50 50 50 51 51 52 52 54 54 52 52 53 55 70 69 71 59 62 63 62 67 70 69 71 59 60 67 63 64 50 43 34 45 35 43 49 58 63 49 49 55 58 60 59 56 55 52 53 51
48 48 48 49 49 49 49 49 50 50 51 51 52 55 53 53 53 54 69 68 68 56 38 57 67 65 68 70 70 69 67 65 64 58 41 37 36 56 43 49 49 54 58 53 50 57 58 59 56 54 53 52 51 53
47 47 47 48 49 49 49 49 49 49 50 50 50 49 52 54 53 64 69 68 69 62 45 54 64 65 67 67 68 67 65 62 56 44 37 39 51 51 48 47 45 56 53 46 44 56 53 52 53 53 49 48 52 54
47 47 47 47 48 48 49 48 48 49 48 48 49 50 52 53 52 67 62 67 68 68 51 42 61 60 64 65 65 64 64 62 61 51 42 52 61 52 37 38 53 60 61 62 54 57 53 52 52 53 52 54 55 54
47 47 48 47 47 48 48 48 48 48 48 48 48 50 51 52 62 59 57 57 54 64 49 42 48 56 58 63 60 61 60 55 57 53 48 48 52 54 38 38 54 59 61 59 57 54 49 50 49 55 55 56 54 56
47 47 47 47 47 48 48 48 48 48 48 48 49 49 50 48 51 58 59 56 56 62 55 42 42 46 57 48 45 55 47 52 50 51 46 45 51 43 38 50 56 59 59 54 53 54 52 51 52 54 56 55 52 51
47 47 47 47 47 47 48 48 48 48 49 49 49 49 54 56 55 58 50 52 64 58 48 37 37 36 55 45 43 45 48 39 49 39 40 46 39 37 46 51 54 56 52 51 53 54 53 52 53 53 52 51 48 47
47 47 47 47 47 47 47 47 48 48 48 48 50 46 38 43 49 51 57 53 51 52 50 38 50 41 51 40 38 39 40 39 35 39 42 35 36 49 55 54 56 55 55 54 48 47 49 48 49 49 49 49 48 45
48 47 47 47 47 48 48 47 48 48 49 45 40 37 44 47 49 44 41 42 42 38 42 43 45 41 49 39 37 40 35 36 34 38 37 36 35 45 52 52 53 55 54 54 54 53 52 50 48 47 46 43 41 41
48 47 47 47 47 48 47 48 48 48 45 44 43 45 43 40 36 37 34 35 36 39 38 35 38 45 41 49 40 36 34 34 32 41 34 33 44 51 50 49 51 52 53 52 52 51 50 50 49 44 42 41 40 37
47 47 47 47 47 48 47 47 47 46 47 43 38 35 36 32 31 31 30 32 33 33 34 34 33 36 37 40 34 33 32 32 38 33 32 40 47 49 50 51 51 52 45 45 49 50 49 47 44 39 37 38 34 36
47 48 47 47 46 47 46 47 47 49 46 36 33 32 32 32 33 33 33 33 34 34 34 34 33 34 33 33 32 32 33 35 31 29 31 43 47 49 50 50 49 46 36 40 41 42 40 37 36 35 33 33 31 33
47 48 48 47 46 45 46 46 47 53 45 36 35 31 32 33 34 33 33 34 35 37 35 34 34 36 33 32 33 32 30 29 31 32 36 42 44 47 44 46 44 40 34 35 42 39 33 34 34 36 36 36 36 32
47 47 47 46 46 46 46 47 45 46 45 39 35 33 34 33 32 32 32 33 37 36 37 37 33 32 32 33 31 31 30 29 33 37 41 43 41 41 41 42 42 43 41 40 40 40 38 34 33 37 38 35 33 33
45 48 46 45 46 46 47 43 40 39 39 34 33 37 35 34 33 33 35 36 40 36 32 34 31 29 33 31 30 34 31 35 39 42 42 41 41 41 43 42 37 39 40 40 40 40 40 39 36 34 34 38 38 36
49 49 46 46 49 45 43 46 40 40 35 39 36 34 35 36 34 35 36 38 37 36 37 33 37 31 30 29 33 37 40 41 42 41 41 42 43 43 44 42 44 41 41 40 38 39 38 35 36 37 38 39 39 37
45 48 45 46 49 44 38 38 44 36 36 38 35 37 36 34 36 36 35 36 38 37 36 35 31 31 34 37 36 37 39 39 39 41 42 42 42 41 41 40 39 40 39 39 39 40 41 40 40 41 41 41 39 39
43 43 44 44 45 41 36 38 45 40 37 38 37 36 34 33 34 33 34 35 36 36 33 32 34 38 39 40 41 40 42 42 41 39 40 43 44 42 41 40 41 41 41 40 40 37 40 41 43 42 41 41 38 36
42 40 41 42 44 46 42 41 39 41 39 38 38 39 32 34 33 33 33 37 33 34 36 41 40 43 43 42 42 43 42 42 41 40 39 39 42 41 41 42 42 42 41 40 38 39 37 38 40 41 36 34 34 34
38 40 35 37 35 36 39 42 40 41 38 36 36 38 31 31 31 32 35 33 35 39 43 43 44 45 44 42 44 44 43 42 42 41 37 39 40 40 41 42 41 39 39 38 39 37 37 40 39 38 35 33 34 33
38 36 34 33 32 32 30 41 34 38 31 32 36 31 31 31 33 36 31 36 39 44 45 46 45 44 43 44 43 43 43 42 42 42 41 42 43 42 41 41 40 37 37 39 41 39 38 36 36 34 33 33 33 32
36 33 31 31 32 28 33 31 37 35 35 33 32 29 32 32 34 31 30 36 41 44 42 42 43 42 43 41 42 43 42 43 42 42 42 41 39 40 41 41 41 40 40 40 38 36 35 33 33 33 32 32 32 32
31 28 30 27 32 30 29 29 30 31 29 30 29 29 29 32 29 29 29 35 32 31 32 37 40 42 40 40 41 40 40 37 35 34 38 39 37 36 36 38 38 39 39 35 33 33 33 33 33 32 32 32 31 31
26 28 29 29 29 29 29 27 28 29 30 28 29 31 31 30 27 27 33 31 29 30 30 31 32 35 36 36 34 32 32 33 31 29 32 32 30 28 29 29 30 32 32 32 32 32 32 32 32 32 31 31 31 30
27 27 31 36 35 33 30 31 33 31 27 27 29 27 27 23 26 31 31 29 29 29 32 32 31 30 30 31 31 31 31 30 27 27 30 32 31 27 26 24 23 25 29 30 30 30 29 30 30 30 30 30 30 30
31 32 26 30 31 34 29 29 28 28 30 35 32 26 26 28 27 27 26 29 29 31 32 31 30 29 29 28 29 28 27 27 27 29 30 31 31 29 26 26 26 25 26 26 26 27 28 28 27 27 27 27 27 27
29 32 31 25 29 30 31 30 31 36 39 36 31 31 30 26 24 25 25 27 28 27 25 25 25 27 27 28 28 27 25 22 18 15 15 17 19 20 23 23 22 22 23 22 24 26 26 27 26 25 26 26 25 26
27 31 30 28 26 28 31 34 32 32 37 35 36 32 28 22 22 25 25 24 22 21 23 23 23 22 21 21 20 22 24 21 19 16 13 13 14 18 19 18 17 19 20 20 21 22 25 25 25 26 24 22 20 21
31 31 29 30 29 30 30 30 31 31 31 32 31 30 23 20 20 22 21 22 23 22 21 20 20 21 19 18 18 16 16 20 19 19 17 17 16 16 16 15 16 17 17 17 18 19 20 20 22 21 19 17 16 16
30 28 28 27 29 30 31 30 30 29 31 30 30 27 24 23 19 18 19 21 20 18 16 18 16 16 18 20 20 21 18 18 18 18 17 16 15 15 14 14 14 14 13 12 15 18 18 17 18 15 15 13 12 11
28 28 28 27 28 28 29 28 30 29 29 28 27 25 21 20 15 17 22 22 19 17 16 16 17 19 19 18 17 19 18 18 17 18 17 15 13 13 12 13 13 12 9 9 12 16 14 13 11 11 9 8 7 5

GFSWCAN_sfc_temp_021.txt.gz
Temp
51 51 51 51 51 51 52 52 52 52 53 53 52 52 52 52 53 57 56 59 57 48 53 58 58 55 56 51 41 49 45 44 36 36 33 32 29 34 36 42 34 30 28 25 30 29 24 52 52 39 43 47 47 45
51 50 50 50 50 51 51 51 52 52 53 55 53 52 52 52 53 54 56 61 61 54 52 57 58 59 58 57 53 52 49 49 45 38 34 35 33 35 34 30 47 35 38 33 35 33 47 52 49 49 50 46 44 44
50 50 50 50 50 50 51 51 51 52 52 53 54 52 52 52 53 54 57 57 57 48 51 53 52 58 62 60 61 49 48 56 52 50 40 40 31 37 29 32 36 47 51 37 40 47 50 49 49 49 48 46 47 49
48 49 49 49 50 50 50 50 50 51 51 52 52 50 51 52 52 54 56 57 54 48 36 47 61 56 63 62 63 60 57 56 52 45 38 36 32 45 33 39 36 44 49 46 40 47 49 49 49 49 47 48 49 51
47 47 48 48 49 49 49 49 49 50 50 49 48 49 51 52 52 57 57 57 57 52 39 40 56 58 61 60 59 60 56 52 45 38 35 34 35 39 33 35 34 48 45 37 34 47 46 44 47 49 47 48 49 48
47 47 47 47 48 49 49 48 48 49 48 48 49 50 51 51 51 56 51 55 55 56 44 37 51 53 57 58 57 55 55 52 48 41 35 41 51 41 34 33 46 53 54 53 46 48 47 47 48 49 47 49 50 49
47 47 47 47 48 48 49 48 48 48 47 48 49 51 51 50 53 50 49 51 50 53 40 37 40 47 52 53 48 50 50 47 47 42 38 36 39 45 34 32 46 51 54 50 50 48 44 46 43 50 52 51 50 49
47 47 47 47 48 48 48 48 48 48 48 48 50 50 50 48 49 51 51 52 51 51 44 38 38 37 51 37 38 45 38 43 46 41 39 36 39 36 34 43 49 53 53 49 48 48 46 47 49 50 51 48 45 43
47 47 47 47 47 47 47 48 48 49 49 49 49 51 52 50 46 49 50 49 54 50 38 34 33 32 45 40 38 38 42 34 41 35 36 40 35 35 41 44 48 50 47 46 49 48 48 47 48 47 45 43 41 39
47 47 46 47 47 47 47 47 48 48 48 49 50 47 40 43 48 49 51 43 41 40 41 36 38 36 42 36 35 35 34 34 33 35 39 33 35 41 45 48 49 48 50 50 45 44 45 43 43 43 42 41 40 38
47 47 47 47 47 47 47 47 48 48 49 45 40 36 43 48 47 41 37 37 38 35 39 38 37 37 41 34 34 35 33 33 32 31 34 32 32 38 45 46 48 49 50 50 49 48 47 45 42 41 38 36 35 34
47 47 47 47 47 47 47 48 48 46 43 43 43 45 43 40 36 36 34 34 34 34 35 35 36 40 37 43 35 34 34 33 30 37 33 30 34 42 44 46 48 48 48 48 48 47 45 44 42 38 36 35 34 32
47 47 47 47 47 47 47 47 47 46 46 43 39 35 37 32 32 32 30 31 32 33 34 34 33 34 36 37 33 33 32 31 34 31 27 30 42 43 44 45 43 43 40 40 43 43 42 41 38 35 32 34 28 32
47 47 46 46 47 46 47 47 48 48 43 35 33 31 32 30 31 31 32 32 33 33 33 33 32 33 33 33 32 31 31 32 29 25 22 34 41 44 43 42 41 38 34 36 37 37 35 33 32 29 29 27 24 28
47 47 47 46 46 46 47 47 47 46 38 34 34 30 30 31 32 32 32 33 33 35 34 33 33 34 32 31 31 30 28 27 28 28 31 34 38 39 38 39 36 34 29 32 36 34 29 29 29 32 32 31 32 27
47 47 45 46 46 47 47 46 43 42 34 35 34 31 32 32 32 32 32 32 35 34 34 34 32 32 30 30 29 29 28 26 30 32 34 35 36 36 37 37 36 36 35 35 35 35 34 29 27 33 32 30 27 29
46 43 46 46 46 47 48 43 39 36 31 33 31 34 33 33 32 32 33 33 37 34 32 32 29 27 30 28 27 31 29 30 33 33 33 36 36 36 36 37 34 36 36 35 35 35 34 34 29 29 30 34 32 32
44 44 46 46 47 45 41 41 33 32 30 34 32 32 32 33 33 33 33 34 34 32 31 30 32 28 27 25 27 31 31 32 32 32 33 36 37 37 39 36 39 36 35 35 32 34 34 29 31 32 33 34 32 31
43 44 45 46 45 40 35 34 37 30 32 30 31 32 32 32 33 33 33 34 34 34 32 30 28 27 27 29 30 31 31 31 31 34 35 37 38 37 37 37 36 35 34 34 34 31 32 34 33 32 32 31 31 31
43 43 43 43 44 36 33 31 37 31 33 30 33 32 30 30 31 32 33 33 33 31 27 26 26 28 29 31 32 32 32 32 31 30 31 34 35 36 35 34 31 34 33 34 33 29 29 30 31 31 31 28 24 27
42 41 42 42 37 39 32 33 33 30 31 32 32 32 29 31 32 32 32 33 31 25 26 29 28 31 35 32 32 32 33 35 32 29 29 29 31 31 31 32 33 30 29 28 26 29 27 30 33 31 31 32 33 33
38 41 34 36 33 33 30 32 32 30 31 32 31 32 28 28 29 29 31 27 26 28 32 30 32 31 32 34 34 35 36 36 36 31 30 29 29 29 29 29 28 26 27 28 31 32 31 32 31 29 31 33 33 32
38 36 33 32 30 30 26 31 31 33 26 29 31 28 28 28 30 29 28 29 27 33 33 34 36 36 35 36 36 35 35 35 29 31 32 31 30 30 30 30 28 28 30 31 29 30 30 30 29 27 30 32 32 32
37 32 31 30 31 27 30 29 28 26 26 28 27 25 25 29 25 22 18 22 27 30 31 31 32 30 30 34 30 29 30 31 30 29 30 29 28 29 29 29 30 30 30 30 30 30 31 31 28 28 32 32 32 27
27 26 29 26 29 27 22 26 28 22 17 20 18 18 22 21 16 15 18 26 28 28 29 29 30 31 29 27 27 28 29 27 25 23 26 26 23 24 25 26 26 26 27 25 25 26 26 28 30 31 31 30 28 26
23 26 26 27 24 22 23 20 25 23 19 20 19 22 21 17 14 14 24 26 25 26 26 26 24 27 26 27 25 24 24 26 24 20 23 24 24 22 19 18 18 19 22 22 22 21 21 23 25 27 29 28 28 28
24 25 26 30 29 28 27 28 28 26 22 19 20 18 16 11 11 22 26 25 26 27 29 28 27 26 25 25 25 25 25 22 19 22 23 25 24 22 19 16 16 18 20 20 19 19 19 21 22 23 24 26 27 26
27 28 23 27 27 28 24 23 21 20 21 25 21 12 12 13 19 23 24 25 26 27 27 26 25 23 24 23 24 19 14 14 15 16 18 23 20 15 16 16 18 18 16 17 17 18 19 19 21 22 23 23 24 22
27 29 25 18 21 22 21 21 21 25 28 24 17 16 20 21 20 22 22 23 24 22 19 20 16 15 15 16 18 19 11 7 8 3 0 2 7 8 14 14 13 12 13 14 16 18 18 19 21 20 21 22 21 16
26 29 22 19 16 19 26 27 29 30 26 28 26 23 21 19 18 20 20 17 16 15 17 18 16 9 5 5 6 8 14 10 4 4 1 0 8 10 11 11 11 10 11 12 11 12 16 18 20 21 18 16 16 13
28 29 28 25 26 27 28 28 30 29 29 30 29 24 16 13 13 14 14 17 17 9 9 7 6 6 3 4 7 6 3 3 6 10 7 4 7 2 3 8 8 9 10 8 7 8 9 14 16 15 12 11 10 8
28 25 27 22 24 27 29 27 28 27 21 27 24 22 17 16 7 9 8 11 8 5 5 3 3 5 4 8 4 3 13 8 5 4 6 8 5 5 5 4 7 8 8 1 5 6 8 12 11 10 9 6 5 4
24 20 20 16 15 16 24 15 15 14 15 13 17 17 11 8 4 8 12 13 6 3 2 2 2 2 10 4 1 6 3 1 3 13 11 11 8 4 2 5 8 7 3 2 4 8 8 8 5 4 3 1 -0 -1

GFSWCAN_sfc_temp_024.txt.gz
Temp
51 51 51 50 50 50 51 52 51 52 52 51 51 51 52 52 52 57 54 56 56 45 50 54 54 52 51 47 40 47 45 42 37 32 28 33 25 33 33 39 34 31 28 24 24 18 24 47 48 39 42 44 45 43
50 50 50 50 50 50 51 51 51 52 52 51 51 51 51 52 52 55 54 57 57 52 51 55 55 55 55 56 50 47 47 45 42 36 35 36 27 34 31 30 43 35 36 32 35 34 45 48 47 48 47 44 43 43
50 50 50 50 50 50 51 51 51 51 52 52 50 50 51 52 52 56 54 54 53 45 48 51 51 57 60 57 58 48 44 52 48 46 38 33 29 34 30 32 35 44 47 35 38 45 46 48 46 47 46 44 46 48
50 50 50 50 50 50 50 50 50 50 50 50 48 48 50 51 52 56 54 53 50 44 35 45 58 54 61 59 60 57 54 51 47 43 36 34 30 41 31 37 34 41 46 43 37 44 44 46 45 45 45 46 48 51
49 49 49 49 49 49 50 49 49 48 48 49 49 50 50 51 52 55 53 52 53 50 39 39 52 56 58 58 57 56 53 49 42 37 34 34 32 36 33 32 32 45 44 37 34 46 45 43 45 46 44 47 50 48
47 47 48 48 48 48 49 48 48 47 48 49 50 51 50 50 52 54 48 53 52 52 42 36 46 49 53 56 53 53 51 48 45 39 35 38 46 38 34 35 42 48 52 50 45 48 47 45 46 48 48 48 48 44
47 47 47 48 48 48 48 48 47 47 48 49 50 50 48 49 51 50 47 50 50 50 39 36 35 45 49 49 45 47 47 45 45 38 36 38 37 42 34 33 44 49 51 48 48 47 42 43 43 49 50 48 46 44
47 47 47 47 47 48 48 48 48 47 48 49 50 50 49 49 51 49 49 49 49 47 41 34 33 36 48 36 37 41 37 41 42 41 39 36 37 35 34 41 46 50 50 46 46 46 45 46 49 48 47 45 41 39
46 46 46 47 47 47 48 48 49 48 48 50 50 51 50 48 45 48 48 47 51 48 36 33 32 33 43 39 37 36 39 34 39 35 35 37 34 34 39 42 45 46 45 44 45 46 47 48 47 45 43 41 39 38
46 46 46 46 47 47 47 48 48 48 49 50 48 45 40 43 48 48 47 42 39 41 39 33 38 34 41 34 34 34 34 33 33 35 39 33 35 39 41 44 46 46 47 47 43 42 42 41 41 41 40 41 39 38
47 46 46 47 47 47 47 47 48 48 50 46 41 37 43 48 45 39 37 36 37 35 38 36 36 36 39 34 34 34 33 33 32 30 31 29 31 36 43 43 45 48 48 47 48 45 45 43 40 38 37 36 35 34
47 47 46 47 47 47 47 48 48 45 44 45 44 45 43 40 37 36 34 34 34 34 34 35 35 39 36 40 34 34 32 32 29 34 32 30 34 39 41 42 44 46 46 45 45 43 43 42 41 38 36 35 34 33
46 46 47 46 47 47 47 47 47 46 46 43 39 35 38 33 32 33 32 31 32 33 34 34 34 34 36 37 33 33 32 31 34 32 30 31 41 42 41 42 41 43 40 40 42 42 40 39 38 35 33 34 28 32
46 46 46 46 46 47 47 47 47 47 43 36 34 31 32 30 30 30 31 32 32 33 33 33 32 33 32 33 32 31 32 32 29 25 22 34 38 40 41 40 40 37 34 36 36 38 36 33 32 29 26 26 23 28
46 47 46 45 46 47 47 47 46 45 39 34 32 29 28 31 32 32 32 33 33 34 33 33 32 34 32 30 31 29 28 26 28 27 31 33 36 37 36 37 36 34 30 33 35 34 28 27 28 31 31 30 31 27
47 46 43 46 46 47 47 44 41 39 32 34 33 30 31 32 32 32 32 32 35 33 33 33 31 31 29 30 28 27 27 25 28 31 33 34 36 36 36 36 35 36 36 36 35 35 33 27 25 32 32 29 27 25
47 41 46 46 46 47 46 40 35 34 30 35 31 33 32 32 31 32 33 33 36 34 31 31 26 25 29 26 27 30 27 30 32 32 33 35 35 35 36 36 33 35 35 34 34 34 34 33 28 27 28 34 32 32
40 42 46 46 46 43 40 38 32 31 30 31 30 31 32 32 32 32 33 33 32 32 31 27 30 27 26 25 27 31 31 31 32 33 34 36 36 36 38 36 38 35 35 34 31 33 33 27 30 31 33 33 31 30
41 41 45 45 43 36 34 33 34 28 31 31 31 31 31 31 32 32 32 33 32 30 29 27 25 25 25 27 28 31 30 29 31 33 34 36 36 36 36 35 35 34 34 34 34 31 31 33 31 31 31 29 28 27
43 43 43 44 44 31 30 29 33 30 29 31 32 30 30 30 31 32 32 33 32 27 23 21 22 24 26 27 28 28 28 29 29 28 29 32 33 35 34 33 30 33 32 33 31 27 30 30 31 31 29 27 27 31
40 40 41 40 34 33 29 31 33 30 30 30 31 31 28 31 30 30 31 32 27 21 24 26 24 28 31 29 28 28 31 32 30 27 26 26 29 27 29 31 31 29 27 27 24 28 25 26 31 32 26 31 31 30
37 41 34 36 33 31 27 30 29 29 31 31 30 30 28 28 28 30 30 27 25 26 29 27 30 28 31 33 32 32 33 33 32 30 28 27 28 27 28 28 28 25 25 24 27 29 29 30 30 29 32 32 32 32
38 36 32 32 23 29 25 31 29 30 24 27 29 27 26 26 28 30 28 29 27 31 29 31 33 34 32 30 31 29 30 29 27 27 27 26 26 24 23 24 24 23 23 26 28 28 25 25 27 28 31 30 31 30
38 31 27 21 26 22 28 27 27 28 27 27 25 24 24 27 26 24 15 26 30 28 27 28 28 29 29 28 26 25 26 27 25 24 24 23 22 23 23 24 25 23 21 23 22 20 21 21 22 24 25 26 28 28
28 21 20 18 25 23 18 21 24 23 16 21 18 16 20 18 11 10 12 26 26 26 24 25 27 27 26 25 24 24 26 25 22 21 22 22 17 17 19 20 20 19 18 17 16 15 16 17 18 19 21 24 24 26
17 18 17 18 16 20 19 16 18 20 18 18 18 21 12 11 12 11 23 21 24 24 23 25 21 22 24 24 23 23 21 22 20 18 21 22 19 14 11 11 12 12 15 14 14 12 12 14 15 16 16 19 22 23
16 18 25 28 26 28 22 23 27 24 22 21 22 19 15 10 6 21 24 24 25 26 26 26 26 25 23 22 23 20 18 17 15 16 19 19 17 15 12 9 9 11 13 11 11 11 10 11 12 14 15 18 21 23
24 23 19 24 27 27 24 23 23 22 21 24 21 14 14 12 16 20 23 24 25 25 24 24 23 21 20 20 17 12 11 9 11 11 16 14 12 7 7 4 6 13 7 7 9 10 9 9 11 12 15 17 19 16
25 27 25 22 21 21 20 20 20 25 28 22 14 11 19 19 17 21 21 21 22 21 17 15 14 14 13 11 9 7 2 3 5 -2 -6 -6 -3 1 4 -0 -0 6 6 7 9 10 10 10 11 13 18 15 12 11
23 25 18 14 16 21 25 26 27 27 26 25 21 20 18 15 16 18 16 16 16 13 13 13 6 4 -4 -1 -2 4 5 -2 -3 -2 -5 -6 2 6 -0 1 5 5 5 6 5 5 7 7 8 14 13 12 10 8
26 26 26 22 23 25 26 27 28 29 29 29 25 18 14 11 11 11 12 10 6 5 6 1 1 -4 -0 1 -1 -6 -2 3 1 2 -2 2 1 -4 -4 -1 -0 1 3 5 2 1 3 3 7 7 5 5 5 4
26 23 24 18 23 24 27 26 21 18 18 21 20 15 11 5 -1 4 7 5 2 0 -5 -7 -5 -1 2 2 -0 -4 -2 -4 -5 -4 1 2 -0 -4 -4 -2 -2 -2 2 -4 -5 -3 3 3 2 0 -1 -1 -0 -1
16 6 9 2 8 12 14 9 6 6 9 9 10 6 4 5 1 5 7 -0 0 -3 -5 -5 -6 -5 -2 -3 -4 -6 -4 -7 -6 3 3 6 0 -2 -5 -7 -6 -10 -12 -11 -9 -5 -3 -6 -6 -3 -4 -4 -4 -4

GFSWCAN_sfc_temp_027.txt.gz
Temp
51 51 50 48 48 49 51 51 51 51 52 51 50 50 51 51 53 56 53 54 54 45 48 52 52 50 48 46 41 46 44 41 34 32 28 28 23 32 32 37 33 31 29 27 26 19 26 46 45 38 42 41 44 43
50 50 49 48 49 50 51 51 51 51 50 50 50 50 51 51 53 55 54 55 54 50 50 53 53 53 52 54 47 45 47 43 42 33 30 31 26 33 29 28 39 32 36 32 34 34 44 46 44 46 45 44 43 43
50 50 49 50 50 50 50 50 51 51 49 47 48 49 51 52 53 55 53 52 50 44 48 50 49 55 58 55 56 46 42 49 45 43 38 32 28 32 30 31 33 41 44 34 37 44 44 45 46 45 45 44 44 45
50 49 49 50 50 50 50 50 50 48 47 48 48 50 51 52 53 54 51 50 48 42 35 44 55 53 58 57 56 55 51 47 44 40 35 33 28 38 30 36 33 40 42 40 36 42 43 46 46 45 44 45 46 47
49 49 49 49 49 49 49 48 48 48 48 49 50 50 51 52 53 54 51 50 51 49 37 37 50 54 54 55 54 53 51 47 41 36 33 34 32 35 34 31 33 43 42 35 35 45 44 44 45 45 43 44 46 46
49 48 48 49 49 49 48 47 47 48 48 50 50 48 49 51 53 53 48 52 51 49 41 36 45 47 50 52 51 50 49 46 43 39 34 37 43 37 34 35 42 46 48 48 44 46 45 43 43 45 45 47 47 44
47 48 48 48 48 48 47 46 47 48 49 49 49 48 50 51 50 49 46 48 48 48 39 36 35 43 46 46 43 45 45 43 43 39 35 36 35 40 34 33 44 46 48 48 47 45 40 42 42 46 47 45 45 44
47 47 47 47 48 48 47 47 47 48 49 50 50 49 49 50 50 48 48 48 48 45 40 33 32 36 45 37 37 41 37 41 40 39 38 37 36 34 33 40 43 46 46 45 44 44 44 45 46 45 45 43 41 39
46 46 46 47 47 48 47 47 47 48 49 51 50 50 50 47 46 48 48 47 48 46 35 33 32 32 41 38 36 35 39 34 39 34 35 36 34 34 39 41 43 43 43 44 43 43 44 44 43 43 42 40 38 37
46 46 46 46 47 47 47 47 48 48 50 49 48 44 36 43 49 48 46 40 38 40 37 33 36 33 40 34 34 33 34 33 33 33 39 33 34 38 40 42 43 44 45 44 40 39 39 39 39 39 39 40 40 37
46 46 46 47 47 47 47 48 48 49 50 44 38 37 44 48 44 39 36 35 37 36 38 36 35 36 39 34 33 32 33 33 31 29 33 31 31 35 39 39 41 42 43 43 43 43 41 38 35 36 36 36 36 35
47 47 46 47 47 47 48 47 48 46 44 44 42 44 40 38 35 34 32 34 34 34 34 35 35 39 36 37 34 34 30 32 28 34 32 30 32 36 37 38 40 41 41 39 40 38 38 39 40 37 36 35 35 33
46 46 46 46 46 47 47 46 46 46 46 44 40 36 38 34 33 34 32 32 32 33 34 34 34 33 36 37 33 33 32 30 33 32 30 31 35 38 38 39 38 39 38 38 39 40 39 39 37 35 33 34 29 32
46 46 46 46 46 46 47 47 47 46 43 36 34 31 32 30 30 30 31 32 32 33 33 33 32 33 32 33 32 31 32 31 29 26 22 32 35 37 38 37 38 35 32 35 35 36 35 32 32 29 27 27 25 28
46 46 46 46 46 47 47 46 46 45 39 33 33 28 28 30 31 32 32 33 33 34 33 33 33 34 32 31 31 29 27 25 26 22 29 32 33 35 35 35 34 34 30 33 35 33 29 27 28 30 30 29 30 24
46 45 43 46 46 47 46 44 41 40 34 34 32 30 31 31 31 32 32 32 35 33 33 33 31 30 28 29 24 22 23 20 23 30 33 34 33 33 34 35 35 35 34 34 34 34 33 28 26 32 31 29 25 24
45 40 45 45 46 46 45 38 33 33 30 33 31 33 32 32 31 32 33 33 36 33 31 30 24 25 29 27 26 30 26 30 32 32 32 35 35 34 35 35 33 34 35 35 34 34 34 32 26 27 28 34 32 31
41 41 45 46 44 42 38 35 30 31 30 31 30 30 31 32 32 32 32 32 30 32 31 26 29 23 21 21 26 30 32 33 32 32 33 35 35 35 36 35 36 35 34 34 30 32 32 26 30 30 32 32 30 29
41 41 44 45 43 34 31 32 33 29 30 31 31 31 31 31 31 32 32 32 28 28 27 24 22 22 24 26 26 29 30 28 30 32 33 34 34 34 34 34 34 33 33 32 32 30 30 31 30 29 30 30 28 28
43 43 43 43 43 31 31 29 32 30 27 31 31 30 29 30 30 32 32 32 30 25 23 21 23 24 25 26 27 26 27 27 27 25 26 28 29 30 29 29 28 29 29 29 28 25 28 29 30 30 29 28 28 29
39 39 41 39 32 32 29 31 32 32 32 30 30 30 28 30 30 30 31 31 23 20 24 25 21 25 29 28 27 27 30 31 28 25 25 25 27 28 27 27 27 27 24 23 26 28 28 27 27 27 27 28 30 31
37 40 35 36 32 28 27 30 31 29 31 30 29 30 27 26 27 28 30 30 25 24 27 30 32 32 33 30 28 28 29 29 29 27 26 25 25 23 24 24 23 22 24 24 25 23 23 23 23 23 24 25 26 28
38 36 32 32 25 25 23 32 30 31 26 27 28 26 25 26 28 30 27 30 28 30 27 29 31 32 29 29 29 28 27 27 24 24 24 23 24 20 20 24 21 16 16 18 20 18 16 15 17 16 19 19 22 24
38 32 27 26 25 17 21 26 25 24 27 26 25 23 24 26 27 23 16 26 29 30 27 27 28 27 27 27 24 23 24 25 24 22 22 21 21 21 20 20 18 16 15 16 15 12 12 11 11 14 14 14 16 16
28 21 26 16 23 14 11 11 18 18 14 23 23 22 22 21 16 19 12 23 26 25 25 26 26 28 25 23 24 24 23 23 21 20 21 19 13 14 15 17 16 15 13 8 7 8 8 9 9 10 10 11 11 14
16 18 18 12 16 16 13 10 13 16 17 19 22 23 18 18 19 12 22 23 23 24 22 24 24 24 23 24 22 19 19 20 19 17 18 17 14 7 4 4 6 7 11 4 5 4 5 6 6 6 7 9 10 12
11 10 20 27 26 25 21 18 24 24 22 21 18 18 19 17 15 19 23 23 24 24 25 25 26 24 23 19 18 16 14 14 12 16 17 15 14 13 6 -1 3 7 10 6 1 2 3 4 3 4 5 8 10 13
20 22 21 21 25 27 23 22 23 23 23 26 24 20 19 16 16 19 21 23 22 23 21 20 19 20 18 16 13 10 10 9 10 12 12 10 8 2 2 -0 1 9 1 -1 -3 2 2 3 3 5 6 8 8 9
24 27 26 21 23 21 22 22 21 26 28 24 16 17 16 17 15 17 18 19 20 18 14 13 12 12 11 10 7 5 0 0 0 -5 -9 -11 -9 -2 3 -6 -6 -4 -4 -4 2 7 7 7 7 7 10 11 7 4
24 25 21 16 17 21 24 25 25 26 27 21 20 18 16 13 14 16 15 15 12 10 8 6 1 3 -8 -5 -7 -1 1 -5 -6 -5 -8 -9 -2 2 -9 -7 -5 -6 -7 -8 -4 -0 1 -3 -1 -2 -1 -0 1 1
24 25 25 24 18 23 25 26 27 27 27 25 21 16 12 8 9 11 10 6 8 2 0 -4 -2 -10 -4 -7 -9 -10 -6 -7 -9 -6 -5 -6 -7 -9 -9 -6 -7 -10 -9 -8 -9 -11 -10 -9 -11 -11 -10 -9 -8 -6
24 22 21 20 21 23 16 16 15 9 22 22 17 13 5 1 -4 3 5 1 -2 -3 -8 -13 -8 -5 -4 -5 -9 -10 -4 -8 -10 -10 -9 -5 -7 -9 -11 -9 -13 -15 -16 -16 -15 -15 -14 -15 -16 -15 -16 -15 -12 -11
13 8 9 0 8 10 11 3 2 5 14 16 9 3 1 3 -1 3 5 -2 -2 -5 -8 -9 -10 -11 -8 -8 -7 -9 -8 -11 -11 -2 -2 -1 -4 -5 -12 -15 -18 -18 -18 -19 -18 -19 -16 -16 -18 -18 -17 -17 -15 -13

GFSWCAN_sfc_temp_030.txt.gz
Temp
51 49 49 48 49 50 51 51 51 51 50 50 50 50 51 53 54 58 54 52 52 44 47 50 51 47 46 45 40 44 43 41 33 32 29 27 24 31 32 36 32 31 29 28 25 17 25 44 45 38 42 40 42 42
49 48 48 48 49 50 51 51 50 51 49 48 49 50 51 53 53 57 55 53 52 49 48 51 52 52 50 52 46 43 46 43 42 33 27 29 29 32 29 29 37 32 35 30 33 33 43 44 43 44 44 44 42 42
48 48 48 49 50 50 50 50 49 49 48 49 50 50 52 52 53 55 52 49 50 44 47 49 48 54 56 53 54 45 40 47 43 41 33 32 28 30 27 30 32 38 41 32 36 42 42 43 45 46 45 44 44 44
49 49 50 50 49 49 49 48 47 48 48 49 50 51 52 52 52 53 51 49 47 42 36 43 52 51 55 54 54 53 49 45 42 39 33 31 29 36 28 33 32 38 40 38 35 41 41 45 45 45 44 44 43 45
49 49 49 49 49 49 47 47 47 48 49 49 50 52 52 53 53 54 50 48 49 49 38 38 48 51 52 53 51 51 50 46 41 36 33 33 29 33 33 30 32 41 40 34 34 44 43 44 45 44 43 43 45 44
49 49 49 49 48 47 47 47 48 48 48 47 48 49 51 49 52 52 48 50 49 47 42 36 43 45 48 49 49 47 47 44 42 39 34 35 40 36 33 34 42 44 45 45 44 44 44 42 42 42 43 44 44 42
48 48 48 48 47 47 47 47 48 48 48 48 49 50 51 52 51 47 45 47 48 47 39 36 35 42 44 45 42 43 43 42 42 39 34 35 36 38 33 31 43 46 47 46 45 43 40 40 42 45 45 43 44 43
47 47 47 47 47 47 47 47 48 49 49 49 49 50 50 50 49 47 47 48 47 44 39 33 32 35 43 37 37 41 38 40 40 39 38 35 37 35 34 38 42 44 45 44 44 42 42 43 43 41 42 43 40 38
47 47 47 47 47 47 47 47 48 49 49 50 49 50 50 47 45 46 48 48 47 46 34 31 32 31 40 38 36 37 39 35 39 34 36 36 33 33 36 36 39 41 41 42 42 42 42 40 40 41 40 37 34 33
46 46 47 47 47 47 47 47 48 49 49 49 49 45 38 43 48 48 46 40 38 37 39 33 35 34 40 34 34 33 34 33 33 34 38 33 33 36 36 37 38 38 41 42 38 36 36 36 35 35 35 35 36 36
46 46 47 47 47 47 47 48 48 50 50 45 40 38 43 47 44 37 34 34 36 33 37 36 35 35 39 34 34 31 33 33 32 29 33 31 31 34 36 35 37 38 38 38 38 38 38 37 35 33 33 35 35 35
46 46 46 46 47 47 47 48 48 44 42 44 42 43 40 38 35 34 32 34 34 32 34 34 35 38 36 36 34 34 30 31 26 34 32 28 31 36 36 36 38 38 38 37 37 35 35 35 35 35 35 34 34 33
46 46 46 46 46 47 47 47 47 47 46 43 39 35 36 32 33 34 31 32 32 33 34 34 33 33 35 36 33 33 32 30 33 31 29 31 34 36 37 38 37 38 37 37 37 37 36 36 36 34 33 34 30 32
46 46 46 46 47 46 46 47 47 46 44 36 34 33 32 31 30 31 32 32 32 33 33 33 33 33 33 33 32 32 31 32 29 25 22 31 34 36 35 35 36 33 31 33 35 35 34 31 31 29 28 27 25 28
45 45 46 45 46 46 46 46 46 44 38 33 33 28 28 30 31 32 32 33 33 34 33 33 33 34 32 31 31 29 27 22 23 21 29 31 33 34 32 34 33 32 27 31 33 31 26 26 27 29 29 29 30 24
46 45 43 45 45 46 46 45 42 41 35 33 32 30 31 31 31 32 32 32 34 33 33 33 31 28 27 29 26 24 22 17 23 29 32 33 33 32 33 34 34 34 33 33 33 33 32 26 25 31 29 28 24 22
45 41 44 45 45 45 45 38 35 34 33 32 31 33 31 32 31 32 33 33 35 33 31 29 24 24 27 23 23 27 21 27 31 31 32 34 33 33 34 34 32 34 34 34 33 33 32 31 25 27 29 31 30 30
39 39 44 45 43 41 37 34 31 32 30 31 30 30 31 32 32 32 32 32 32 32 29 25 30 22 19 18 21 29 30 29 30 30 32 34 34 34 34 33 34 33 32 31 29 30 29 27 28 28 29 29 28 28
40 41 43 44 42 34 32 32 33 29 29 30 30 30 31 31 31 32 32 33 27 27 27 23 20 19 20 23 21 31 31 25 30 31 31 31 32 32 31 31 31 29 29 29 28 27 28 29 28 28 26 26 25 27
42 43 42 43 42 31 30 28 32 31 29 30 31 29 29 29 30 32 32 31 27 24 23 21 22 23 24 26 27 27 27 27 27 25 25 26 27 28 27 27 26 27 26 26 27 24 25 25 25 25 24 24 24 24
38 38 40 36 31 32 30 29 32 31 31 30 30 30 28 30 29 29 30 31 22 20 24 24 22 25 29 28 27 27 29 29 27 24 24 25 26 25 25 25 24 24 23 22 21 20 18 18 20 20 17 17 19 19
36 40 31 33 28 27 27 31 31 30 30 29 29 30 26 26 26 28 30 25 24 24 27 29 31 32 31 28 28 28 28 28 27 26 25 23 21 21 22 21 19 16 17 15 17 14 13 17 16 15 13 13 15 17
37 34 33 28 24 24 26 32 26 31 26 26 27 24 25 25 27 29 26 29 27 30 30 31 30 30 28 28 28 27 27 26 23 22 22 22 22 20 22 18 15 10 10 13 15 15 12 9 11 9 10 11 11 11
36 31 28 26 19 17 21 23 24 21 27 26 23 22 23 25 26 23 19 25 28 29 29 29 28 26 27 26 22 22 24 24 22 20 20 20 18 18 18 17 14 12 12 11 9 6 7 3 3 6 6 5 6 7
20 20 23 20 25 13 8 8 16 17 11 20 23 22 22 21 17 19 15 22 24 24 24 27 27 27 24 23 22 20 21 22 21 18 17 16 12 12 13 14 13 12 10 3 2 0 0 1 -1 1 3 2 4 5
16 21 17 8 10 20 9 9 8 10 11 13 16 20 17 16 17 15 20 21 22 22 21 22 22 22 21 22 20 18 17 18 19 15 15 14 11 5 1 -1 -0 3 8 -3 -5 -3 -2 -0 0 -1 -0 1 3 5
13 11 18 26 26 24 15 15 20 16 14 20 19 18 22 19 16 18 22 22 22 22 23 23 25 24 20 17 16 15 14 13 14 15 15 14 12 11 2 -5 -3 4 7 2 -7 -11 -7 -3 -2 -1 0 2 3 4
20 16 17 18 20 24 22 22 22 20 22 25 22 20 19 15 14 17 20 22 20 20 19 18 18 17 15 13 12 11 9 11 10 9 8 7 6 1 -1 -3 -2 6 -3 -9 -11 -8 -8 -4 0 2 2 3 -0 -1
20 21 20 16 22 23 23 22 22 25 27 25 20 17 14 15 13 15 17 18 18 17 14 12 10 11 10 9 6 3 0 -2 -3 -6 -9 -11 -11 -3 -1 -9 -10 -9 -12 -10 -4 2 3 3 3 1 -4 -3 -0 -3
16 20 16 14 15 20 18 23 20 22 23 21 20 17 15 12 13 15 15 14 11 7 4 2 0 3 -8 -7 -8 -4 -7 -12 -9 -7 -10 -12 -7 -2 -10 -14 -12 -10 -13 -18 -13 -11 -6 -12 -10 -13 -12 -13 -14 -16
20 22 22 22 18 19 23 25 26 26 24 16 15 13 11 8 8 10 8 5 4 1 -3 -7 -7 -15 -10 -11 -12 -11 -8 -10 -13 -9 -9 -11 -8 -12 -13 -12 -15 -19 -21 -21 -22 -21 -20 -19 -21 -22 -20 -17 -16 -18
22 20 18 18 16 15 10 15 12 15 17 20 13 10 3 1 -4 3 2 1 -2 -6 -9 -16 -11 -7 -9 -11 -14 -14 -7 -11 -12 -11 -12 -11 -10 -10 -12 -14 -20 -21 -21 -21 -22 -21 -22 -21 -23 -23 -23 -21 -21 -21
13 6 8 4 8 8 7 0 -2 4 12 9 1 -1 -2 -0 -2 2 3 -3 -3 -6 -9 -10 -12 -15 -12 -11 -11 -13 -12 -14 -13 -4 -3 -4 -9 -8 -14 -19 -21 -22 -19 -21 -23 -24 -21 -20 -21 -22 -22 -23 -21 -21

GFSWCAN_sfc_temp_033.txt.gz
Temp
50 49 49 49 49 49 50 50 50 50 50 50 50 51 52 53 53 57 52 54 54 45 49 52 53 48 48 48 44 47 47 45 39 37 36 36 35 38 39 41 36 37 33 31 27 29 32 48 50 44 50 49 49 49
48 48 48 49 49 50 50 50 49 48 48 49 50 51 52 54 54 55 53 54 53 50 49 53 54 54 54 55 48 46 50 46 46 39 35 33 33 33 34 36 41 37 41 38 39 40 48 50 50 51 50 50 51 48
48 48 49 49 49 49 49 48 48 48 49 49 50 51 53 54 54 55 54 52 52 46 49 51 50 55 56 54 55 48 44 50 46 45 38 36 35 36 34 36 38 42 44 40 41 48 46 48 51 50 51 51 52 51
48 49 49 49 49 48 47 48 49 48 49 50 50 51 52 52 53 55 53 50 50 45 37 46 53 51 54 55 56 54 49 46 45 43 36 34 35 39 35 40 39 43 43 42 41 46 46 49 49 52 51 50 50 50
49 49 49 48 47 47 47 48 48 48 49 51 51 51 52 52 53 54 51 50 49 52 39 41 49 51 52 53 52 52 51 48 44 39 35 37 36 37 36 36 36 44 44 40 40 48 49 50 52 51 48 49 49 48
48 48 47 47 47 47 47 47 48 48 48 49 51 52 51 51 52 52 51 51 49 49 44 37 45 45 48 50 49 48 48 46 45 42 35 39 41 40 34 36 44 47 48 48 48 50 50 50 49 49 49 48 46 45
48 47 47 47 47 47 47 48 48 48 49 50 51 51 52 51 52 49 47 48 47 47 41 36 37 43 44 46 43 44 46 44 45 40 36 38 40 41 35 36 41 44 46 47 49 48 47 47 46 47 45 44 44 43
47 47 47 47 47 47 47 48 49 49 49 49 50 50 50 50 49 49 48 48 48 45 41 35 34 37 44 39 38 42 40 43 42 40 39 36 38 37 35 38 40 42 43 46 45 46 45 44 44 43 44 42 38 36
47 46 46 46 46 47 47 48 49 49 49 49 49 49 50 47 45 47 48 48 48 47 36 32 34 34 44 38 37 38 40 36 40 36 37 39 34 32 32 34 35 36 37 39 41 42 42 40 39 39 38 36 33 32
46 46 46 46 46 46 47 47 48 49 49 50 49 46 39 44 48 48 46 42 40 38 40 33 37 35 42 36 35 35 36 35 36 35 39 34 33 35 35 36 37 37 38 42 40 35 36 34 34 34 34 34 34 34
46 46 47 47 47 47 47 47 48 50 50 45 41 39 45 47 46 39 35 36 36 34 37 36 37 36 40 36 34 34 34 34 33 35 35 32 30 33 36 36 38 38 38 38 38 36 36 35 34 34 34 34 36 37
46 46 46 46 46 47 47 47 48 46 43 45 44 45 43 41 37 36 33 34 33 32 34 35 35 39 36 38 36 35 32 33 29 36 33 29 30 35 36 36 37 38 38 37 38 37 37 37 38 37 37 36 36 35
45 46 46 46 46 47 47 47 47 47 46 45 41 37 39 34 32 29 30 32 32 33 34 34 34 34 36 37 34 34 32 31 35 32 30 30 33 36 36 38 38 38 37 37 37 38 38 37 37 36 34 35 32 34
45 45 45 45 45 46 46 47 47 46 43 35 34 30 29 32 31 31 32 33 32 33 33 34 33 34 33 33 32 32 32 33 30 28 26 31 34 34 37 36 37 35 30 34 36 36 34 33 33 31 30 30 29 32
45 46 45 45 45 45 45 45 46 44 38 33 34 28 28 30 32 32 32 33 33 34 33 34 34 35 32 32 31 31 28 25 26 25 30 31 32 35 34 36 35 34 29 33 36 34 29 28 30 32 32 32 31 28
46 45 43 44 45 46 46 45 42 41 35 34 32 30 31 31 32 32 32 32 35 33 33 34 32 31 29 30 26 26 26 23 27 31 32 32 32 34 34 35 36 36 35 35 34 34 32 29 28 32 31 30 28 28
44 39 43 45 45 44 45 40 37 35 33 32 30 33 32 32 32 32 32 32 35 33 31 30 27 26 29 26 26 29 26 29 32 33 34 34 34 34 35 35 33 34 34 33 33 32 30 30 28 28 27 29 29 29
38 38 44 45 43 42 37 35 34 33 30 30 30 30 32 32 32 32 32 33 34 33 32 30 32 26 24 22 25 29 31 32 34 34 34 35 35 35 35 34 33 33 31 30 28 29 29 28 27 27 27 27 27 28
39 40 43 43 41 35 34 32 33 29 30 30 31 31 31 31 32 32 33 32 31 30 30 27 24 25 26 27 28 32 32 31 32 32 31 31 32 32 31 31 30 29 28 28 28 27 28 27 25 25 24 24 23 25
42 42 41 42 42 33 31 28 34 32 29 30 31 29 30 30 30 32 32 32 30 28 27 24 25 27 27 28 30 32 32 31 32 28 26 28 29 28 28 28 27 27 26 26 25 22 23 23 23 22 20 19 18 18
38 37 39 36 31 32 29 30 31 31 31 30 30 30 28 30 29 30 30 31 25 24 25 28 27 28 29 29 30 30 30 32 29 29 27 25 26 26 25 25 25 23 21 19 19 18 17 17 18 18 15 14 15 16
34 39 30 32 28 28 29 32 31 31 30 30 29 30 27 26 27 28 30 26 25 27 29 30 32 31 29 28 28 29 29 29 28 27 26 25 23 23 20 20 19 17 17 15 16 14 14 16 14 13 11 11 12 14
36 33 28 28 26 24 25 32 24 31 27 27 28 25 26 26 28 29 26 28 28 30 30 30 29 29 27 28 28 27 28 26 24 23 22 22 22 21 18 17 15 13 13 14 14 13 10 7 10 8 9 9 10 9
34 27 23 24 21 22 20 22 26 23 27 26 24 20 24 25 26 23 22 26 28 29 29 28 28 25 26 25 23 23 24 25 21 20 21 21 18 18 18 16 14 12 12 11 10 7 6 5 3 6 5 5 5 5
20 22 19 22 23 14 15 14 17 23 12 18 17 15 18 20 18 20 18 23 23 23 24 27 28 27 23 21 21 20 21 23 20 17 17 17 15 15 15 14 13 12 11 7 5 4 3 3 3 3 4 3 3 4
18 21 16 17 20 15 14 9 15 11 11 14 18 20 18 19 18 16 19 20 22 22 22 23 23 21 20 22 19 18 18 19 20 16 15 15 13 10 8 6 6 8 10 5 2 1 2 2 1 1 1 3 2 3
16 16 21 28 27 25 15 17 22 17 13 14 19 18 19 18 14 18 22 21 21 20 21 20 24 21 18 16 16 15 16 16 16 16 15 14 13 12 8 5 4 7 8 5 1 -1 -2 -2 -2 0 1 4 5 5
24 18 15 15 15 21 16 13 16 18 19 24 22 16 18 16 15 16 19 20 20 19 18 16 16 16 14 13 12 13 12 12 11 10 10 10 9 7 5 5 4 4 0 -1 -1 -2 -0 -1 -0 2 3 2 2 3
17 18 16 10 13 15 14 14 15 22 25 25 21 16 13 14 13 14 16 18 18 17 14 13 11 11 10 8 5 4 4 7 7 1 -0 1 1 5 5 2 1 0 -2 -3 -2 2 4 5 5 2 -1 -2 -2 -2
18 20 16 11 12 18 19 20 18 20 21 20 19 17 14 12 12 14 14 13 11 7 5 5 4 6 0 2 1 2 1 -1 1 2 1 -0 1 3 1 -0 -1 -1 -4 -5 -5 -4 -3 -4 -2 -4 -5 -5 -6 -6
19 22 21 21 18 17 16 15 26 26 20 16 13 11 10 9 9 9 8 6 5 3 3 -0 -0 -7 -1 -2 -1 -2 -0 0 -7 -3 -2 -2 -2 -1 -0 -1 -2 -5 -7 -7 -7 -7 -8 -6 -8 -9 -7 -8 -9 -9
20 18 17 11 12 11 10 16 9 14 17 16 6 7 2 4 -1 6 5 4 2 1 -7 -9 -3 0 -4 -4 -7 -5 -6 -3 -2 -3 -4 -3 -2 -1 -1 -2 -7 -8 -7 -7 -8 -8 -10 -9 -9 -9 -10 -10 -11 -11
10 3 10 8 9 7 2 1 -2 1 8 5 2 -1 -0 2 -1 4 5 1 5 1 -4 -3 -3 -5 -5 -6 -3 -3 -8 -4 -8 -4 -2 -2 -4 -3 -3 -4 -7 -8 -8 -7 -8 -10 -9 -9 -9 -10 -11 -13 -12 -13

GFSWCAN_sfc_temp_036.txt.gz
Temp
49 49 48 49 50 50 50 49 49 49 49 50 50 50 51 53 53 64 60 63 68 57 58 60 61 60 60 64 56 56 57 55 53 47 47 48 44 49 49 52 47 46 42 38 39 36 36 58 56 50 58 61 60 60
49 49 49 49 49 49 49 49 50 50 50 50 50 50 51 53 53 58 61 62 67 63 58 62 60 62 61 63 63 60 61 59 61 53 48 45 40 38 46 46 51 46 52 51 51 52 58 60 61 63 61 59 61 60
48 49 49 49 49 49 48 48 48 49 49 49 50 51 52 54 53 59 62 61 65 58 59 63 59 62 64 62 64 61 58 61 59 59 54 49 38 50 38 47 49 53 53 50 49 58 59 60 63 64 64 61 62 63
49 49 48 48 48 48 48 48 48 48 49 49 50 51 52 53 53 58 64 59 61 57 42 54 63 58 61 64 64 63 61 58 58 60 49 42 42 51 47 51 51 54 53 52 51 58 60 61 61 60 60 61 60 61
48 47 47 47 47 48 48 48 49 49 49 50 51 52 53 53 53 59 59 58 60 61 45 52 58 58 61 63 62 63 62 61 59 51 42 46 49 48 46 48 48 55 52 49 49 54 54 57 60 59 57 58 58 57
47 47 47 47 47 48 47 48 48 49 50 51 52 52 52 53 52 67 62 57 59 62 55 44 55 54 58 60 58 57 59 59 61 54 43 51 49 51 39 46 48 51 53 54 52 56 56 56 57 56 54 54 54 53
47 47 47 47 48 48 48 48 49 50 50 51 51 51 51 52 58 61 59 54 51 58 52 42 47 53 53 56 52 55 56 55 57 48 41 44 46 53 40 46 45 49 52 52 54 54 53 51 49 51 51 50 47 46
47 47 47 47 47 48 49 49 49 50 51 51 51 51 51 51 54 57 56 50 52 60 58 43 42 48 52 45 43 48 47 54 47 43 43 42 43 44 40 41 44 47 49 50 49 52 50 51 50 48 46 41 37 37
46 47 46 46 47 47 48 48 49 49 49 49 49 50 58 55 55 56 48 49 58 59 49 38 41 39 49 42 42 45 50 40 46 40 41 47 38 35 35 37 39 40 41 42 47 48 45 43 41 40 38 36 34 34
46 46 46 46 46 48 48 49 49 50 49 50 56 53 46 50 48 51 58 54 51 49 47 36 43 38 48 42 39 40 41 39 38 39 42 38 32 38 37 37 38 40 45 45 41 36 37 36 36 36 36 38 41 42
47 46 46 47 47 48 49 49 49 51 53 54 50 45 53 50 57 51 43 44 46 39 42 40 44 40 45 40 37 40 37 38 35 40 39 35 31 34 37 38 42 42 43 44 44 43 43 41 39 37 38 40 41 41
46 46 46 47 47 47 49 49 49 51 50 51 51 51 52 50 47 38 35 38 39 37 38 38 39 43 40 48 40 39 34 36 32 42 36 32 34 35 37 37 39 41 41 42 44 43 43 43 43 42 41 41 41 39
45 46 46 46 46 47 47 47 47 47 48 54 50 41 47 39 36 36 33 35 34 35 36 36 36 40 41 45 36 37 33 34 42 34 34 34 35 35 38 40 42 43 42 43 43 43 43 42 41 39 38 39 35 40
45 45 45 45 46 46 46 47 47 48 49 40 37 34 35 34 35 34 36 36 34 34 36 38 36 37 37 36 34 34 33 35 31 30 30 33 35 36 41 42 42 40 35 40 41 41 38 38 37 35 33 33 33 35
45 45 45 44 45 45 45 46 47 50 44 38 39 31 31 32 33 33 33 34 34 35 36 36 36 39 34 33 34 34 31 31 33 32 34 35 36 39 40 41 41 39 34 39 42 37 33 33 36 36 36 36 34 31
46 46 43 44 45 45 45 45 45 45 38 36 35 32 33 33 32 33 33 32 35 35 36 36 34 34 32 34 32 31 31 31 32 34 34 33 37 35 36 39 40 40 40 40 39 38 35 32 32 34 34 32 30 30
46 43 43 44 45 45 45 44 40 35 34 33 33 34 34 33 32 32 33 33 35 34 33 36 32 30 34 32 30 35 32 35 34 34 35 39 37 36 34 36 35 38 38 38 36 33 32 33 33 32 31 33 32 32
41 44 43 45 46 45 43 42 39 37 31 33 32 32 33 33 33 33 34 36 39 38 38 34 38 32 31 29 32 33 33 35 36 34 36 38 39 36 38 39 39 37 34 31 32 33 33 31 32 32 31 30 31 31
43 43 43 43 45 44 39 38 41 32 32 34 33 34 34 34 35 35 34 35 36 40 39 37 33 33 33 36 33 33 35 35 34 32 32 35 37 37 37 36 35 34 33 33 33 32 32 30 29 29 29 28 26 28
42 43 42 42 46 41 35 36 43 36 32 32 34 32 33 33 33 33 34 37 38 38 34 32 32 32 34 33 35 37 39 42 38 33 31 34 36 35 35 34 33 33 32 31 29 27 29 29 28 27 25 23 22 22
43 42 42 44 41 40 36 36 35 35 34 32 33 33 31 33 32 32 33 39 35 30 31 31 30 31 34 36 38 40 39 41 38 37 34 31 33 33 32 31 31 30 29 27 26 25 23 24 24 23 21 20 20 21
40 41 40 40 37 36 36 36 36 37 35 33 33 34 30 30 30 30 33 34 31 31 32 33 33 33 32 31 33 35 35 35 34 32 31 31 29 29 28 28 28 25 24 22 23 21 21 21 19 19 18 17 19 20
40 40 36 34 32 32 29 38 33 34 30 31 33 30 30 30 31 35 30 32 31 32 32 31 31 31 30 32 32 32 33 33 30 29 29 29 27 27 25 23 23 22 22 21 21 20 18 14 17 15 16 17 17 17
38 31 29 28 30 25 29 28 33 32 32 30 29 26 28 30 33 31 27 29 30 32 31 30 30 28 28 27 27 27 29 30 27 27 28 27 24 23 24 22 20 19 18 19 18 16 16 15 12 15 14 14 14 13
29 25 28 24 28 26 23 23 25 29 25 26 26 26 26 30 25 24 24 25 27 27 28 30 30 29 25 24 24 24 25 28 25 22 23 24 23 22 21 20 19 18 18 16 14 13 13 12 12 12 12 12 11 11
21 25 25 23 25 25 23 24 23 23 24 25 25 27 28 27 22 19 22 24 25 24 24 25 26 24 22 24 23 21 20 23 25 21 20 21 20 19 17 17 17 16 16 14 12 10 10 11 10 9 10 11 10 10
21 23 27 31 29 29 27 27 28 27 24 24 26 26 26 21 18 21 25 24 24 23 23 23 25 24 21 19 20 20 21 22 21 20 19 19 18 18 16 13 11 13 14 12 10 9 8 8 8 8 9 11 12 10
26 27 22 25 27 29 25 25 25 24 26 29 29 22 21 20 19 21 22 24 23 23 21 20 20 20 19 18 19 19 18 17 16 17 18 17 17 15 13 14 13 9 10 9 8 8 8 8 8 9 9 8 8 9
26 28 27 20 24 26 25 25 25 28 28 28 25 21 17 18 18 20 20 22 23 23 20 18 16 18 16 15 15 16 17 18 16 12 10 13 14 14 14 13 13 12 11 10 8 8 9 9 9 7 6 6 6 7
25 28 26 22 22 23 25 28 28 28 27 25 23 20 18 16 16 19 20 19 18 15 14 14 15 17 14 16 14 13 13 13 12 11 11 10 10 11 11 11 10 11 9 8 7 7 7 7 7 7 5 5 5 4
29 29 27 27 25 26 25 24 28 27 25 22 20 18 15 15 16 15 15 14 15 15 16 14 12 13 13 12 13 13 11 11 7 7 8 9 10 10 11 10 10 9 8 6 6 5 4 4 5 3 3 2 0 -0
25 21 22 21 23 22 23 23 22 24 24 20 15 15 14 15 11 13 12 15 15 13 4 11 13 12 11 12 9 11 1 9 9 8 7 8 9 10 10 9 8 7 6 5 5 4 3 2 2 2 1 0 -1 -2
22 22 20 21 21 21 18 18 16 17 18 16 13 13 12 13 7 11 13 12 12 11 11 11 11 11 9 6 9 10 4 9 6 4 2 3 2 4 6 8 7 6 4 4 4 3 1 1 1 0 -0 -3 -3 -3

GFSWCAN_sfc_temp_039.txt.gz
Temp
49 49 49 49 49 49 49 48 48 49 50 50 50 50 50 51 52 53 65 70 74 65 65 68 72 70 69 71 59 63 61 60 59 50 50 53 48 54 54 59 51 48 45 40 46 37 37 65 63 53 60 66 66 66
49 49 49 49 49 48 48 49 50 49 49 49 50 50 50 51 52 53 63 71 75 69 63 67 66 67 67 69 71 65 67 64 66 60 54 53 43 41 52 48 60 51 57 54 55 54 63 66 65 68 67 64 65 65
48 48 47 48 48 48 49 49 49 49 49 49 50 50 51 51 53 54 69 72 72 63 63 65 63 66 70 69 71 66 66 71 67 69 61 56 41 56 40 52 55 60 61 55 54 62 64 66 67 68 67 64 66 66
48 48 48 48 48 48 48 48 48 49 49 49 49 50 50 52 53 54 69 71 71 63 46 56 68 63 68 70 70 70 69 67 67 68 55 45 44 60 53 57 57 59 60 57 56 62 63 66 64 63 62 64 64 66
47 47 48 48 48 48 48 48 48 48 49 50 50 50 51 53 54 60 65 65 69 69 50 54 63 64 68 69 68 69 68 66 64 56 45 50 58 55 54 55 54 62 58 53 52 57 56 59 61 60 60 59 59 60
47 47 47 47 48 48 48 48 48 48 48 49 50 51 52 53 55 63 61 64 67 73 58 48 61 60 65 67 66 66 68 68 69 57 51 59 57 58 43 50 55 56 57 57 55 59 59 58 57 58 54 54 56 55
47 48 48 48 48 49 49 48 48 48 49 50 51 52 53 52 63 63 61 60 56 70 56 47 49 58 60 64 60 64 65 62 65 57 47 55 56 59 43 49 51 52 55 57 57 58 53 54 52 53 50 47 46 42
47 47 48 49 49 49 49 49 50 50 50 51 52 51 51 51 53 61 58 50 58 66 64 45 43 49 59 51 47 58 55 61 53 48 49 46 50 48 46 48 50 51 55 52 54 56 54 54 51 47 48 46 40 37
47 46 46 48 49 48 49 50 50 50 51 51 51 50 61 62 61 60 48 53 62 62 53 38 40 38 56 49 50 50 58 42 53 42 45 49 42 40 43 44 46 46 45 47 49 49 47 45 46 45 44 44 41 39
47 47 47 47 48 48 48 49 49 49 50 50 62 65 53 53 49 52 59 59 59 55 52 39 50 43 54 46 42 44 43 42 40 43 49 41 39 44 43 43 44 45 48 47 42 41 42 41 42 43 45 46 46 46
47 46 46 47 47 49 48 49 50 51 50 63 55 50 57 51 62 55 47 50 53 42 45 44 49 44 51 42 38 44 39 42 36 42 41 37 36 39 40 43 45 48 50 50 50 48 47 46 44 43 43 43 44 43
47 46 46 46 47 48 49 50 52 55 53 52 55 57 60 57 50 40 37 39 42 39 40 40 42 46 43 53 44 44 37 39 34 47 38 35 36 37 39 41 43 47 48 48 49 47 47 46 46 45 44 43 41 42
46 46 46 46 46 47 47 48 47 47 51 60 55 42 49 40 37 35 33 35 35 37 38 39 37 42 44 48 39 40 35 36 45 35 36 36 36 37 40 43 46 48 47 46 46 46 46 43 42 41 40 39 38 41
45 45 45 45 46 46 46 48 49 52 56 48 40 34 35 35 35 35 36 36 35 36 38 40 37 40 40 37 37 34 34 39 32 31 32 35 35 37 44 45 46 43 38 44 44 43 40 40 38 35 34 34 33 35
45 44 45 44 45 46 46 48 50 50 43 37 40 33 32 33 34 33 34 35 35 37 40 39 39 43 36 35 37 34 32 32 36 34 36 35 38 42 42 44 43 40 36 42 43 37 34 36 39 38 37 37 35 31
47 46 44 44 45 46 47 50 52 50 44 38 35 32 33 33 32 33 33 33 36 37 41 44 38 37 34 35 33 34 34 34 33 35 36 37 39 41 43 43 44 44 43 42 41 39 35 33 34 37 36 34 32 31
49 46 43 44 46 47 47 47 41 36 36 36 33 34 34 33 32 32 33 33 36 36 34 37 35 32 37 34 32 36 33 34 34 35 37 38 36 40 41 40 37 41 41 40 38 38 37 37 35 35 34 35 35 35
46 49 44 45 50 50 46 46 39 38 33 35 33 33 34 34 34 33 35 37 37 36 37 35 41 33 33 31 32 33 34 35 35 35 36 37 36 36 39 41 42 40 37 37 37 37 35 34 35 35 34 34 34 34
44 44 43 44 49 48 41 41 44 33 33 35 35 36 36 35 37 38 38 39 42 43 40 39 35 34 33 35 33 34 34 35 35 36 37 37 36 37 39 38 38 39 37 37 37 37 36 33 33 33 32 31 29 30
43 43 43 44 49 44 37 38 47 38 33 34 36 34 35 35 36 35 36 40 42 41 34 32 30 30 31 33 35 38 40 41 39 35 33 35 36 36 37 39 38 37 36 34 32 31 34 34 33 30 28 27 26 25
47 45 46 50 47 45 40 40 37 37 37 34 35 36 34 36 34 33 35 41 34 31 31 32 31 32 36 38 40 40 39 40 39 39 36 34 37 38 36 36 36 36 34 32 31 29 28 27 28 26 25 25 23 25
45 44 45 45 41 39 39 41 39 41 37 35 35 37 32 31 32 32 36 34 31 31 32 32 34 36 36 36 37 37 36 35 35 35 35 35 33 33 33 33 33 30 28 27 28 25 26 25 23 22 22 22 23 24
44 45 39 37 34 33 31 42 34 37 32 32 36 32 31 32 34 40 31 34 32 34 33 33 33 33 33 35 36 37 38 38 35 34 33 32 32 31 30 28 29 27 26 25 26 25 23 19 22 19 22 21 22 21
42 34 31 30 33 28 33 30 37 35 35 32 32 28 30 31 37 32 28 28 30 33 33 32 33 31 31 30 29 28 30 34 32 32 32 31 28 27 27 26 25 23 23 24 23 22 22 20 18 20 19 18 19 17
32 27 31 28 32 30 28 28 29 32 28 29 28 28 29 34 28 26 26 27 28 28 30 32 32 31 28 27 27 25 27 29 27 24 26 28 26 26 25 24 23 21 22 20 19 18 18 18 17 17 16 16 15 14
25 27 28 28 28 28 29 27 26 26 28 27 27 30 31 29 25 22 25 26 26 26 25 26 28 27 25 26 25 23 23 26 27 23 23 25 25 25 23 22 22 20 21 19 17 15 15 15 14 13 14 15 15 14
24 25 30 33 31 32 29 30 31 30 27 26 28 28 28 23 22 23 26 26 25 25 26 26 27 26 24 23 23 23 23 23 23 23 23 23 22 22 20 17 16 17 18 17 15 14 12 12 12 13 13 15 15 14
28 29 25 28 30 32 28 28 27 26 27 30 30 25 23 22 20 23 24 25 26 26 25 24 23 23 23 22 23 23 23 22 21 22 23 22 22 20 19 19 17 12 15 15 13 12 12 12 12 13 13 12 11 13
28 30 30 24 28 29 27 27 27 28 30 29 27 24 21 21 21 23 23 25 27 26 23 22 21 22 22 21 21 21 22 21 20 16 16 17 18 19 19 17 17 17 16 15 14 13 13 11 11 11 10 10 11 12
28 31 29 27 25 25 26 29 28 28 29 28 27 24 22 19 19 23 23 22 21 19 19 19 20 20 19 21 18 17 18 17 15 14 13 13 14 16 16 16 15 15 15 14 12 13 13 12 12 12 11 10 10 8
32 31 29 29 26 26 27 29 30 29 28 25 25 23 19 18 19 19 19 20 20 20 20 19 18 19 18 16 16 16 16 16 13 13 12 12 14 14 15 14 14 14 13 12 11 10 10 8 9 9 9 8 7 6
28 25 25 24 26 27 28 27 27 26 26 25 21 21 19 20 15 16 17 19 19 17 13 18 17 15 16 16 16 17 7 13 14 12 12 12 13 14 14 14 13 13 12 10 9 10 9 7 7 7 7 6 5 3
27 26 26 26 26 25 25 24 24 22 23 21 18 19 17 17 11 15 18 18 16 15 14 16 16 17 14 13 14 14 11 15 12 11 10 7 5 7 8 11 12 12 10 9 9 9 8 7 6 5 4 3 3 2

GFSWCAN_sfc_temp_042.txt.gz
Temp
48 48 48 48 49 49 49 50 50 50 49 49 49 49 49 50 51 49 50 54 51 55 69 72 72 70 65 51 47 61 59 61 58 49 50 51 45 54 54 58 48 44 43 38 44 35 34 66 63 52 58 63 63 63
48 48 48 49 49 49 49 49 49 49 49 49 49 49 49 50 50 51 49 56 57 56 62 66 66 68 69 65 64 63 65 63 63 58 53 53 41 41 48 46 63 49 56 50 50 49 62 67 64 67 65 63 62 62
48 49 49 49 49 49 49 48 48 48 48 49 49 49 50 50 50 51 52 56 63 62 60 63 62 67 70 65 69 62 67 72 68 70 59 54 40 54 39 50 54 61 63 55 55 62 64 66 67 64 63 61 63 64
48 48 48 48 48 48 48 47 47 47 48 49 49 50 50 50 51 51 50 56 63 62 45 56 70 64 70 72 72 72 71 70 68 66 55 43 42 62 51 57 55 59 61 58 57 61 63 62 60 59 61 61 60 62
47 47 47 47 47 47 47 47 48 48 49 49 49 49 49 50 51 52 54 62 63 64 48 52 64 67 70 70 69 70 69 67 63 54 42 50 58 54 54 55 53 62 58 50 49 57 56 53 57 59 56 55 56 56
47 47 47 47 47 47 48 47 48 48 48 49 49 49 50 50 51 54 52 65 65 72 57 45 59 62 67 70 68 67 68 68 67 55 52 58 60 56 42 48 57 59 60 59 56 59 58 55 55 54 50 50 49 48
47 47 47 47 47 47 47 47 48 48 49 49 49 50 50 52 58 54 53 54 51 66 55 44 46 57 64 64 62 64 67 63 64 56 50 54 55 57 42 47 54 56 58 58 58 57 51 55 48 49 47 45 45 45
48 48 48 48 48 48 47 47 48 48 49 49 50 51 50 50 51 53 55 53 52 66 60 43 39 48 59 51 48 58 56 59 54 49 50 48 50 50 45 51 53 54 55 54 54 56 52 51 50 48 48 46 43 41
47 47 48 48 49 48 48 48 48 49 50 50 51 51 59 58 56 56 49 51 63 59 49 38 40 38 57 49 48 50 56 41 50 42 45 49 43 41 49 49 48 49 49 49 50 50 49 47 46 46 45 44 41 40
47 47 47 47 48 49 49 50 50 51 51 52 60 60 47 55 50 52 59 56 54 54 51 41 49 42 51 45 42 44 43 42 40 41 48 41 38 45 46 47 48 49 50 49 43 42 43 42 43 44 44 44 43 42
47 47 47 47 48 49 49 49 49 50 53 63 56 49 56 51 59 54 47 46 46 41 45 46 49 44 51 42 38 43 39 42 37 42 40 38 37 40 44 46 48 50 49 49 49 48 47 45 43 42 42 43 41 40
47 46 46 46 47 48 50 49 50 58 57 56 56 57 58 56 47 39 36 40 42 38 40 40 43 46 45 54 43 43 36 40 35 46 37 35 36 41 43 45 48 49 48 47 48 46 46 46 46 44 42 40 38 36
46 46 46 46 47 48 48 49 48 50 50 61 52 42 49 40 36 36 32 35 34 36 38 40 37 42 44 47 39 39 34 36 46 35 36 36 36 40 42 44 46 47 47 46 45 45 44 41 40 39 36 36 36 37
45 46 46 46 46 47 48 48 50 53 56 46 39 34 36 33 34 34 35 34 34 35 38 39 37 39 39 36 37 34 35 39 32 32 34 33 35 40 43 45 44 42 38 42 43 41 37 36 34 33 31 32 30 32
46 45 47 45 46 47 48 49 50 51 44 38 39 32 32 32 33 33 34 35 35 38 39 40 40 42 36 35 37 34 32 31 34 34 34 34 37 41 43 42 40 38 36 39 39 35 33 34 36 35 34 34 32 27
48 49 46 45 46 47 48 50 50 49 41 36 34 32 33 33 32 33 33 33 36 38 41 44 38 35 33 35 33 33 33 33 32 34 35 36 38 39 40 40 40 42 41 39 37 35 34 33 33 35 34 33 28 28
49 42 43 45 47 48 48 49 44 39 35 34 32 32 33 32 32 32 33 33 36 37 34 38 34 32 37 34 32 34 31 32 34 34 36 37 36 39 40 39 38 39 40 38 38 37 36 36 34 34 33 33 34 34
49 51 45 45 48 49 48 42 40 40 33 33 32 32 33 32 32 33 34 35 36 35 35 34 40 33 32 32 31 32 33 33 35 34 35 37 38 39 41 40 40 39 37 37 36 36 35 34 35 33 33 32 33 32
45 47 44 45 49 49 41 41 44 33 33 34 34 34 34 34 35 36 36 37 38 38 37 35 33 31 31 32 32 32 33 34 32 33 34 35 35 35 36 37 36 37 37 37 37 35 33 33 32 31 30 29 27 28
45 44 44 46 50 45 38 39 46 37 32 34 35 34 34 34 35 34 36 38 39 37 32 30 28 29 30 32 33 35 36 37 36 32 32 33 34 36 35 36 36 35 34 32 31 32 34 32 31 29 27 26 24 22
48 47 47 51 48 45 40 39 37 37 37 34 36 37 34 37 34 33 34 40 34 30 30 31 31 32 33 33 34 35 36 39 37 37 34 32 35 36 35 35 36 36 33 31 30 28 27 26 26 25 24 24 22 23
47 45 45 45 40 38 39 41 39 40 37 35 36 37 33 32 32 32 38 33 30 30 31 31 32 33 32 32 33 34 33 34 35 35 35 35 33 32 31 32 31 28 28 27 27 25 25 23 22 22 22 21 21 23
45 46 40 38 33 33 31 43 34 38 32 33 36 32 32 32 34 40 31 31 30 33 33 32 32 33 32 33 33 33 35 34 32 31 31 30 30 29 28 28 29 27 24 24 25 24 22 20 21 19 21 20 20 20
43 34 31 32 33 28 34 32 37 35 35 33 31 28 29 31 36 32 26 27 29 32 32 32 33 31 31 29 27 27 30 32 30 30 31 29 26 25 26 24 23 23 24 25 23 22 21 20 18 19 18 16 17 16
32 28 32 29 34 31 30 30 30 32 28 30 29 28 29 34 28 27 25 26 26 26 27 30 30 30 28 26 26 25 27 28 26 24 26 27 25 25 23 23 22 21 22 20 18 18 18 18 17 16 15 15 14 14
25 28 28 28 29 29 29 27 27 27 29 29 27 30 31 30 26 22 23 24 23 23 23 25 27 26 23 24 23 22 22 26 26 21 21 23 23 23 22 22 20 17 20 18 16 14 15 14 14 13 13 14 13 14
25 27 31 34 32 32 30 31 33 30 27 26 29 29 29 24 21 22 25 25 24 24 25 25 26 25 23 22 22 22 23 23 22 22 23 23 22 21 19 16 14 14 17 16 14 13 11 11 11 12 12 14 14 13
28 29 25 29 30 33 28 29 28 25 26 29 30 24 22 20 18 22 23 26 26 27 25 24 23 23 22 22 23 23 23 22 22 23 22 22 22 21 19 19 17 15 16 16 14 14 12 11 10 10 11 10 10 12
28 30 32 24 29 28 26 26 26 26 28 27 26 22 19 20 20 22 24 25 26 25 23 22 22 23 22 22 21 21 20 19 19 16 16 16 17 16 18 18 18 17 17 16 15 15 14 12 12 11 10 10 11 11
28 33 30 29 26 24 25 28 27 27 28 28 26 23 20 18 20 23 22 22 21 19 20 20 21 21 19 20 18 17 17 15 13 12 11 11 11 15 16 16 15 15 15 14 13 13 14 13 12 11 11 11 11 9
32 32 30 29 26 25 27 29 30 29 27 25 25 22 18 17 18 19 19 21 20 20 20 18 17 18 16 14 14 14 14 15 14 14 12 12 14 14 15 14 15 14 13 13 11 10 10 9 9 8 8 8 7 7
29 26 26 25 25 27 29 27 27 27 26 24 21 22 20 20 14 15 17 19 18 16 15 16 15 14 15 16 16 16 9 14 15 13 11 10 10 11 12 12 12 13 12 11 11 10 9 9 8 7 7 6 5 3
29 29 28 27 27 26 27 26 26 23 23 20 19 20 17 16 10 15 19 19 16 15 14 15 16 16 16 16 15 15 13 16 14 14 13 10 6 7 7 9 10 9 8 8 8 8 8 8 7 6 4 3 3 2

GFSWCAN_sfc_temp_045.txt.gz
Temp
48 48 48 48 48 48 48 49 48 48 49 49 50 50 50 50 50 48 46 50 46 45 49 56 63 54 52 49 42 48 49 49 46 40 38 34 34 40 41 47 40 37 33 27 32 31 30 58 55 44 47 52 52 53
48 48 47 47 48 48 48 48 49 49 49 49 49 49 50 50 50 50 45 51 53 47 48 55 60 59 62 57 53 50 52 51 53 45 41 38 37 35 38 33 51 37 42 37 40 37 50 55 51 53 53 51 52 51
48 48 47 47 48 48 48 49 49 49 49 49 49 49 50 50 50 49 47 50 50 46 45 48 54 58 63 59 61 50 51 58 57 56 46 41 36 39 32 35 41 50 55 44 45 51 53 52 54 55 54 52 53 52
47 47 47 48 48 48 48 49 49 49 49 49 49 49 49 49 50 50 47 50 50 46 35 49 62 58 63 63 61 61 60 60 58 52 41 37 36 49 36 44 42 47 51 49 46 49 49 50 51 52 52 52 49 47
48 48 48 48 48 48 48 48 48 48 48 48 49 49 49 50 50 50 50 51 52 46 43 47 57 62 63 61 60 62 59 56 49 43 36 39 45 42 41 41 37 50 48 38 36 47 46 45 48 50 47 46 48 43
48 48 48 48 48 48 48 47 47 47 47 48 49 49 50 50 50 50 46 52 54 53 48 40 53 54 61 60 60 59 58 56 51 44 39 46 51 42 34 31 48 50 51 51 47 50 47 45 45 45 42 42 42 41
46 47 47 47 47 47 46 45 46 46 47 47 48 49 49 49 51 48 49 52 51 51 46 39 41 53 55 54 50 53 54 50 50 45 40 43 44 44 35 33 47 51 51 51 52 49 43 45 40 43 42 42 42 41
46 46 46 47 47 47 47 47 47 48 48 48 49 49 49 49 50 49 55 51 50 54 48 38 37 43 54 44 40 48 46 46 45 44 43 36 40 35 33 44 48 50 50 48 47 48 45 45 43 42 43 41 38 36
47 47 47 47 47 47 47 47 48 48 49 49 49 49 49 50 49 52 49 51 53 52 39 35 36 36 50 44 43 44 44 38 45 36 40 40 36 35 42 43 44 47 45 44 45 45 44 42 42 41 40 38 36 35
47 47 47 47 47 47 47 47 48 49 49 49 52 50 41 49 50 52 54 47 45 44 42 36 42 37 46 38 36 37 36 36 34 36 42 35 33 40 41 43 45 45 47 44 39 38 40 40 41 41 40 40 40 38
47 47 48 48 47 47 47 48 49 50 51 50 47 43 49 50 52 44 36 36 38 34 37 39 41 39 46 36 35 36 34 33 30 33 33 32 32 38 43 44 44 48 47 46 46 45 44 41 40 38 37 36 34 32
47 47 47 48 49 49 49 49 50 51 51 52 51 52 50 47 41 35 33 35 33 33 36 36 38 42 39 45 35 36 34 31 28 39 34 29 33 38 41 41 45 45 45 45 45 43 43 43 41 38 36 34 31 30
46 46 47 47 47 48 49 49 50 51 49 52 46 38 43 36 32 30 26 33 33 34 36 35 34 36 38 39 35 35 34 28 35 34 32 31 37 39 41 43 43 44 43 42 40 39 37 36 35 34 32 33 31 29
46 47 47 47 47 48 48 49 49 51 49 39 35 33 33 32 31 30 32 33 33 33 35 36 34 34 34 34 33 33 33 35 32 29 27 32 36 39 42 42 42 39 37 37 36 34 32 31 30 30 28 27 27 28
47 46 47 46 47 47 48 48 49 47 40 34 34 29 29 31 32 32 33 33 33 36 36 36 35 36 33 33 33 32 30 29 28 27 31 34 37 40 39 38 36 34 34 34 35 33 31 31 30 29 29 29 27 22
47 47 43 45 47 48 48 48 45 43 36 34 32 31 32 32 32 32 32 32 35 34 35 34 33 33 32 32 32 31 27 25 29 31 34 37 37 36 37 37 38 37 34 33 33 33 32 30 29 29 29 27 20 20
48 40 45 46 47 48 47 44 41 36 32 32 30 32 32 32 31 31 32 33 36 34 33 33 31 30 33 31 28 31 28 30 32 33 35 36 35 34 33 36 35 35 34 33 33 32 31 32 29 29 27 29 28 27
41 45 46 47 49 46 43 41 36 34 30 32 30 31 32 32 32 32 33 34 34 33 33 32 34 31 29 28 28 30 31 32 33 34 34 35 35 36 38 36 36 35 33 33 32 32 31 29 28 26 27 27 27 26
41 43 45 47 47 41 36 36 38 30 31 32 32 32 32 32 33 34 35 36 36 36 34 33 28 26 27 29 30 31 31 32 31 32 33 35 35 34 34 33 32 32 32 32 30 28 28 28 26 25 24 24 21 20
46 45 45 47 47 35 34 33 40 33 30 31 32 32 32 32 33 33 34 35 34 32 28 26 25 27 28 30 32 32 33 33 32 30 30 32 33 33 32 32 30 30 29 29 28 27 26 24 25 24 22 20 15 14
44 43 45 45 39 38 33 32 32 33 33 31 32 32 31 32 32 32 31 34 29 27 27 29 28 29 32 32 33 33 34 34 32 32 31 30 30 31 31 31 31 30 28 25 24 22 20 19 20 20 11 8 8 9
40 45 35 38 33 33 32 35 32 33 32 31 31 31 29 28 29 30 32 27 26 27 29 29 29 29 28 28 30 32 32 33 33 33 32 31 28 27 27 27 25 22 22 22 22 19 18 19 17 13 8 6 10 10
42 39 34 33 26 27 25 33 27 32 26 28 31 28 27 28 29 32 25 27 28 30 30 29 29 29 27 28 29 30 30 30 28 27 27 26 25 24 22 22 23 20 19 21 22 20 17 15 12 6 7 6 6 2
39 32 25 24 27 27 27 24 30 28 27 28 25 23 24 25 29 24 21 23 24 27 27 28 30 27 27 26 24 24 27 27 25 26 26 24 21 21 21 20 19 19 20 20 18 15 13 5 5 6 1 -2 -3 -2
24 23 24 18 25 24 21 27 26 23 19 23 22 20 24 27 21 20 20 21 20 20 22 26 24 24 22 21 21 21 23 25 21 19 21 23 21 20 18 18 18 18 18 13 10 3 1 -0 -1 -2 1 -4 2 -2
23 26 25 25 26 25 25 22 22 20 19 16 24 27 25 22 14 14 19 19 17 18 18 20 21 20 18 20 18 18 18 23 22 18 18 19 18 18 17 14 12 11 13 7 -0 -2 -0 -0 -2 -1 -4 0 3 2
23 24 28 31 29 28 23 26 27 20 16 18 21 20 23 13 10 18 20 21 20 19 21 20 22 20 19 19 20 20 20 20 19 19 19 18 18 17 13 7 2 5 8 4 -1 -3 -5 -5 -5 -5 -6 1 2 -3
26 27 24 27 27 28 23 24 21 19 22 24 25 12 12 10 11 18 20 23 22 22 21 21 20 20 18 18 17 16 16 17 16 16 16 16 15 11 8 6 7 11 8 6 -0 -1 -3 -2 -5 -6 -5 -6 -7 -7
26 29 24 18 25 25 22 22 22 23 24 24 17 13 13 16 17 19 20 21 22 20 17 17 19 17 15 15 14 12 10 9 6 3 1 4 5 6 4 2 4 2 1 2 7 9 7 4 4 1 -4 1 2 -2
25 29 25 26 22 20 22 25 20 22 24 21 18 17 15 14 16 18 18 18 17 14 15 15 15 13 10 10 8 6 4 1 3 -2 -6 -7 -4 3 3 7 4 -0 2 -1 -3 -1 5 0 -0 -5 -5 -5 -0 -3
28 25 20 19 15 22 24 27 25 25 18 14 16 9 9 10 11 14 14 15 14 15 14 8 8 9 8 7 4 -1 -1 0 3 0 -2 -3 -2 0 6 6 6 1 -3 3 -1 -4 -7 -7 -4 -3 -7 -8 -5 -5
24 21 14 14 16 22 27 22 18 22 20 15 11 9 8 10 3 7 12 13 10 9 9 7 6 2 0 1 1 1 1 2 4 -1 -1 -2 -6 -7 -6 -5 -3 3 4 3 2 -2 -2 -3 -5 -3 -4 -7 -11 -14
19 18 16 15 16 17 15 15 18 11 11 10 12 11 6 5 1 6 12 11 5 3 7 8 9 7 8 4 -0 1 5 -0 1 7 8 6 -2 -3 -7 -8 -9 -10 -10 -10 -10 -10 -5 0 1 -2 -6 -12 -11 -11

GFSWCAN_sfc_temp_048.txt.gz
Temp
47 47 48 47 47 47 47 48 48 48 48 48 49 48 49 48 50 50 44 49 45 41 46 50 51 51 55 52 44 46 47 46 41 36 37 35 31 39 38 44 39 38 32 27 29 25 30 52 52 45 45 48 49 49
47 47 47 47 47 47 48 48 48 48 48 48 48 48 50 51 51 49 42 49 50 44 45 50 51 53 52 60 49 47 49 48 48 43 39 37 36 33 36 33 46 38 41 36 38 36 47 49 49 50 50 49 48 47
47 47 47 47 48 48 47 47 47 47 47 47 47 49 49 50 51 48 43 46 47 43 45 47 48 56 59 59 58 47 47 54 51 51 45 41 37 37 33 33 40 46 50 42 42 45 46 48 49 50 49 45 46 47
47 47 47 47 47 47 48 48 47 47 47 48 49 49 49 50 50 49 43 47 47 46 36 43 57 54 59 58 58 58 57 55 53 49 41 38 36 46 34 43 41 46 49 44 40 44 47 46 46 46 45 44 43 43
47 47 47 47 47 47 48 47 48 48 48 49 49 49 49 49 50 47 46 48 50 47 39 41 53 58 58 59 58 59 58 52 45 40 36 39 42 42 38 39 36 47 46 38 35 46 43 42 43 46 43 42 42 40
47 47 47 47 47 47 47 48 48 48 48 48 48 49 49 49 49 46 41 48 50 51 43 36 51 52 55 56 56 55 55 51 49 45 39 45 49 41 34 31 45 47 48 48 43 46 43 41 42 43 40 40 40 39
47 47 47 47 47 47 47 47 47 47 47 48 48 49 49 49 46 44 42 48 51 51 43 37 40 50 53 52 49 51 52 47 49 44 40 42 43 42 33 33 44 46 47 46 45 44 39 41 37 40 40 39 40 38
47 47 47 47 47 47 47 47 47 47 47 47 48 48 48 49 49 46 50 51 51 47 46 37 38 42 51 43 43 48 44 45 44 43 40 34 39 33 33 42 45 45 45 45 43 44 42 41 40 39 40 39 36 34
46 46 46 46 46 46 46 46 46 47 47 48 48 48 48 47 45 46 50 49 50 48 40 34 36 36 47 42 41 41 42 37 43 36 37 39 34 31 39 42 42 44 42 40 41 41 40 38 38 38 37 36 34 32
45 45 46 45 45 45 45 45 46 46 47 47 47 46 39 45 50 51 49 45 44 43 41 35 40 37 43 36 36 37 36 35 34 36 41 33 33 38 39 40 42 43 43 42 36 34 36 36 37 36 36 36 35 33
47 46 46 46 46 46 46 47 47 48 48 47 46 42 49 49 48 44 37 35 37 33 35 39 40 39 44 36 34 34 34 31 31 35 34 33 32 37 41 43 45 46 45 44 42 42 42 41 38 36 34 33 31 30
48 47 47 47 47 47 48 48 49 50 50 50 49 49 48 45 38 36 33 33 34 32 36 36 37 41 38 42 35 35 33 30 29 38 34 29 34 39 42 42 44 45 44 43 43 42 41 40 38 35 33 30 29 30
46 47 48 48 48 48 48 49 49 50 51 49 44 38 42 34 32 25 25 31 32 33 35 34 34 36 38 40 34 34 28 28 34 32 26 31 36 38 40 42 41 42 40 39 38 38 37 36 35 32 29 29 29 29
47 47 47 47 47 47 48 48 49 49 47 38 33 31 31 30 30 30 31 32 33 33 34 34 34 35 33 34 33 33 33 34 26 26 26 32 36 39 40 40 38 36 34 34 34 33 32 31 29 30 29 28 27 27
47 47 47 46 47 47 47 48 47 45 38 32 34 28 28 31 32 32 33 33 33 35 34 34 34 35 33 33 32 32 30 29 26 26 31 34 37 38 36 36 34 33 32 32 32 30 29 29 29 29 29 29 27 24
46 46 44 46 47 47 47 45 43 41 35 32 31 31 32 32 31 32 32 32 35 33 34 34 32 32 31 32 31 29 26 28 29 31 34 37 36 35 35 35 34 33 33 32 32 31 30 29 28 29 28 26 22 21
45 39 46 46 47 46 47 42 38 33 33 31 29 32 32 31 31 31 32 33 35 34 33 31 31 29 32 30 28 30 27 29 31 33 34 35 34 33 33 33 33 33 33 32 32 31 30 31 29 28 26 27 28 25
38 40 47 47 48 45 41 40 35 33 30 31 28 30 32 32 31 32 33 35 34 33 33 31 33 27 24 25 26 29 30 31 33 34 33 33 34 34 35 34 33 33 32 31 32 31 30 28 28 26 27 27 25 25
41 43 46 47 46 38 33 34 35 30 30 32 32 32 32 32 33 33 33 33 34 34 32 30 25 24 25 28 29 30 31 31 31 32 32 34 34 33 32 32 31 31 30 30 29 27 27 27 25 25 24 23 20 20
45 45 44 45 44 33 32 31 35 31 29 31 32 31 32 31 32 31 31 32 33 31 27 25 24 25 27 29 31 32 32 33 32 30 29 31 32 31 30 29 28 29 29 28 26 25 24 23 23 22 20 18 14 13
40 40 41 39 34 36 33 31 33 33 32 30 32 32 31 32 29 28 28 32 28 25 25 26 25 27 28 30 31 32 32 33 32 31 29 27 29 29 28 28 29 27 25 22 20 19 19 18 19 18 9 6 5 6
36 41 31 35 30 30 30 33 31 32 31 31 30 30 27 27 26 26 30 26 25 25 27 26 26 26 26 26 27 29 30 31 31 29 29 29 26 25 24 24 23 21 21 20 20 18 17 18 17 15 11 6 10 7
38 34 29 28 24 23 21 29 25 30 25 27 29 26 25 24 29 30 22 25 23 25 27 27 26 26 25 25 27 27 27 27 25 24 24 22 22 21 21 21 21 19 18 19 20 18 16 15 12 9 7 8 3 -4
36 27 25 19 23 18 20 22 27 26 25 22 22 19 23 25 27 22 18 18 21 24 24 24 25 24 24 23 21 21 24 24 23 23 23 21 19 18 19 18 17 18 18 17 16 13 12 8 7 7 -1 -8 -10 -9
22 21 19 14 21 21 16 22 17 18 14 16 15 18 20 23 17 16 15 17 18 17 19 22 21 21 19 18 18 19 22 22 19 17 18 21 18 18 16 16 14 15 15 11 7 4 3 2 -3 -8 -5 -11 -0 -2
21 20 22 23 22 19 16 19 13 21 13 10 21 23 20 12 8 9 16 15 15 16 16 17 18 17 16 18 16 16 17 21 20 15 15 17 16 16 14 12 10 9 11 4 1 -3 -5 -7 -9 -7 -10 -3 1 -3
15 16 24 28 26 24 17 18 20 14 11 16 15 10 16 2 4 14 19 19 18 18 19 19 19 18 16 16 17 16 16 17 16 15 16 16 15 14 8 0 0 4 6 -0 -6 -8 -7 -10 -11 -11 -12 -13 -11 -10
22 24 19 22 15 19 10 9 9 11 11 20 16 5 1 2 8 16 18 21 20 20 19 19 18 16 13 12 12 11 11 13 14 14 13 12 11 9 6 6 4 11 4 1 -2 -2 -4 -2 -5 -6 -7 -11 -9 -12
23 26 19 18 14 15 16 14 13 19 23 21 6 7 7 13 13 15 17 18 19 17 14 13 13 12 10 9 7 7 7 4 -0 -4 -8 -7 -6 -1 5 6 4 3 -4 -3 3 5 2 1 0 -2 -7 -10 -3 -7
16 19 13 8 8 12 14 11 12 10 18 12 14 14 12 11 13 15 15 14 12 9 8 9 9 7 4 -2 -2 2 -0 -2 1 -5 -9 -11 -5 -2 -3 -2 1 2 1 -5 -3 -3 0 -9 -7 -9 -7 -9 -13 -12
18 14 11 9 9 19 22 13 15 12 6 3 3 1 2 6 8 12 12 10 11 7 7 3 -1 -7 -2 -5 -9 -11 -7 -2 -5 -6 -7 -9 -12 -13 -13 -12 -13 -12 -10 -8 -5 -5 -5 -8 -10 -7 -6 -7 -10 -13
7 6 6 10 10 15 20 21 20 13 7 2 3 -3 -0 -3 -4 2 8 4 5 3 -0 -3 -4 -2 -7 -9 -10 -4 -1 -3 -4 -5 -3 -5 -8 -11 -13 -11 -15 -16 -16 -17 -17 -16 -15 -12 -7 -6 -4 -8 -11 -15
8 4 2 6 11 10 6 13 10 8 6 0 3 2 -1 -1 -3 3 8 2 -2 -6 -7 -7 -5 1 2 -3 -6 -7 -6 -10 -9 -1 1 1 -0 -1 -9 -14 -15 -15 -14 -16 -18 -19 -13 -12 -12 -10 -7 -7 -10 -14

GFSWCAN_sfc_temp_051.txt.gz
Temp
46 47 47 46 47 47 47 47 47 48 48 48 48 48 49 49 49 46 44 49 45 40 43 48 47 46 50 49 42 44 46 45 41 37 35 32 29 38 37 42 39 38 32 27 28 25 30 49 49 43 45 45 47 47
46 46 46 47 47 47 48 48 48 48 48 48 48 48 49 49 48 48 43 49 49 42 43 49 49 50 48 48 48 45 46 46 46 41 37 35 33 30 36 33 44 38 41 37 39 36 45 46 48 46 47 48 46 47
47 47 47 47 47 47 47 47 47 47 48 48 48 48 48 49 49 47 45 47 46 41 41 43 45 52 54 52 54 46 45 51 48 48 41 39 35 37 32 33 38 44 47 39 40 43 43 44 45 45 46 45 45 47
47 47 47 47 47 47 47 47 47 47 48 48 48 48 48 49 49 49 46 47 46 45 36 42 55 54 56 55 54 55 55 51 50 46 38 36 34 44 33 41 41 46 47 40 38 41 44 44 42 42 41 42 41 42
47 47 47 47 47 47 47 47 47 47 47 47 47 47 48 49 49 47 47 47 48 42 38 41 50 54 55 54 55 55 54 49 44 39 35 37 41 41 39 40 37 46 44 39 36 45 43 41 42 43 41 39 40 39
47 47 47 47 47 47 46 46 45 45 46 45 48 49 49 48 48 46 40 45 48 49 43 35 47 48 52 53 52 51 52 48 46 42 38 43 46 42 36 37 47 46 48 49 46 49 42 41 40 41 39 39 39 38
46 46 47 47 47 47 47 46 46 47 47 48 48 49 49 48 44 40 40 45 50 50 43 36 37 46 52 49 47 48 48 45 46 42 37 40 41 41 29 33 43 44 44 43 43 43 38 39 35 39 38 38 38 37
46 47 47 47 47 47 47 47 47 47 48 48 48 48 48 49 47 41 47 49 50 45 45 35 36 39 50 43 42 46 43 44 45 41 39 35 39 31 34 39 42 43 43 42 41 42 40 38 38 37 38 37 35 33
47 47 47 47 47 47 47 47 47 47 48 48 48 48 46 44 38 44 49 50 50 44 36 34 34 34 46 42 41 40 44 36 43 37 38 41 34 34 36 39 41 42 41 37 38 38 38 36 36 36 36 34 32 30
46 46 46 46 46 46 46 47 47 47 47 48 47 43 38 41 49 49 47 43 43 43 43 35 40 37 44 36 36 35 36 35 34 37 41 35 34 39 38 41 41 40 39 39 34 32 34 34 34 34 34 36 34 31
46 46 46 46 46 46 46 46 47 47 47 44 41 39 47 49 47 41 35 35 36 33 36 38 39 39 43 36 35 35 33 33 33 35 36 33 32 36 40 41 42 42 42 41 41 40 39 38 36 34 32 32 31 31
46 46 46 46 46 46 46 46 47 46 45 46 47 49 48 45 38 34 32 33 33 32 35 36 37 40 38 41 34 34 33 30 31 37 34 31 33 39 40 40 42 43 42 42 43 41 40 39 37 34 32 30 30 30
46 46 46 46 46 47 47 47 46 48 48 48 43 37 39 34 32 29 29 30 30 33 35 34 34 34 37 38 32 30 26 27 34 33 32 30 35 39 40 41 40 42 41 40 39 38 36 34 34 32 29 29 29 28
46 47 47 47 47 47 46 47 47 47 45 37 35 30 31 29 29 30 31 32 32 32 33 34 33 34 33 33 32 26 32 33 22 21 24 32 36 38 38 38 37 35 34 34 34 33 32 30 29 29 29 28 27 27
46 46 47 46 46 47 47 47 46 44 38 33 34 27 29 31 32 32 32 33 33 34 34 34 34 33 33 32 31 31 30 28 23 23 30 34 36 36 35 34 33 32 32 32 32 30 29 29 29 28 29 29 26 23
46 47 45 45 47 47 46 45 43 40 34 33 31 30 32 32 31 32 32 32 35 33 32 32 29 27 31 30 30 27 22 22 28 31 33 35 34 34 33 33 33 32 32 30 30 30 30 28 28 28 27 25 23 21
45 41 45 46 47 46 46 42 39 33 31 31 29 32 31 31 30 31 32 32 35 34 32 30 30 29 32 29 27 29 26 29 31 32 34 34 33 32 32 32 31 31 30 30 30 30 30 29 27 26 25 25 26 23
37 39 46 47 48 45 41 40 35 33 30 31 29 30 31 30 30 30 32 33 33 33 33 30 32 26 23 24 25 29 30 31 32 32 32 33 33 33 33 32 32 32 31 30 30 30 29 28 28 26 27 26 24 23
41 42 45 45 45 38 34 34 36 30 30 32 32 32 32 30 31 31 31 32 32 33 31 28 23 22 23 27 28 30 30 31 30 31 31 32 33 32 32 32 31 30 29 29 28 28 27 27 26 25 24 23 20 19
44 44 43 44 43 32 31 31 36 32 29 30 31 28 28 28 29 30 30 31 32 30 25 22 21 22 23 26 30 31 32 32 31 29 27 28 30 30 29 29 28 27 25 25 24 23 23 22 22 21 20 18 16 15
39 39 40 38 33 34 31 31 32 32 31 31 32 31 27 29 26 25 25 30 26 24 22 23 23 24 26 27 29 30 30 30 29 29 27 26 27 27 27 26 26 24 22 21 20 19 19 18 19 18 14 10 10 12
34 40 29 33 29 30 29 32 31 32 31 30 29 29 25 24 22 24 28 21 20 21 24 23 23 23 23 23 24 26 27 26 26 25 24 25 23 22 22 23 22 20 20 19 19 17 17 17 17 15 12 9 11 11
36 33 27 28 24 22 20 28 25 29 24 25 27 25 24 24 25 28 19 21 20 22 24 25 24 24 23 23 25 24 25 24 22 22 21 20 20 20 19 20 20 18 17 18 19 17 15 15 13 10 9 9 6 1
35 23 18 16 20 13 17 18 25 23 22 21 21 18 24 23 24 18 14 16 19 21 22 21 22 21 22 21 19 20 22 23 21 20 21 19 17 16 17 16 15 15 15 15 13 11 10 7 8 7 3 -3 -5 -7
22 19 17 12 16 16 10 11 13 16 9 12 12 14 21 21 12 12 11 14 16 15 17 20 19 18 16 16 17 18 20 20 17 14 16 19 16 15 13 13 12 12 13 8 5 4 3 1 -1 -4 -1 -9 -2 -7
15 18 20 12 17 15 14 10 13 11 8 10 18 20 11 7 2 5 13 13 13 15 14 15 15 15 14 15 14 13 15 19 17 12 12 14 14 13 11 8 7 7 9 3 -0 -4 -4 -7 -11 -10 -12 -8 -6 -11
15 16 21 27 23 22 14 12 16 10 9 11 12 8 4 -2 -0 12 18 17 15 16 17 17 16 14 13 13 14 14 14 15 13 12 13 11 10 9 5 -0 -1 4 5 -2 -8 -9 -6 -9 -12 -12 -12 -18 -16 -15
24 23 12 13 13 16 8 5 5 7 9 19 11 -1 -4 -3 5 14 16 19 18 18 16 14 12 11 8 8 9 9 10 8 9 8 6 7 6 6 5 7 7 10 4 0 -2 -4 -9 -6 -5 -6 -10 -10 -8 -14
18 17 16 8 9 11 13 8 9 15 18 15 -1 2 4 10 10 11 15 15 15 13 10 8 8 3 4 5 3 2 4 0 -3 -6 -11 -14 -11 -5 -2 -4 -3 -2 -2 -4 -0 6 4 1 -2 -8 -9 -11 -5 -10
14 14 9 1 5 9 11 9 7 5 12 8 12 11 10 9 11 14 13 10 8 5 1 0 -1 -0 -10 -9 -8 -3 -2 -7 -8 -9 -12 -12 -8 -9 -16 -16 -14 -12 -14 -15 -13 -8 -1 -7 -6 -8 -10 -11 -15 -16
11 9 7 5 8 12 13 6 10 6 -2 -1 -2 -3 -0 4 5 9 8 5 5 2 -0 -6 -8 -13 -9 -10 -14 -13 -10 -5 -7 -7 -7 -9 -13 -14 -16 -17 -18 -20 -21 -20 -20 -19 -17 -17 -16 -13 -10 -9 -11 -11
5 -1 4 6 11 15 12 13 5 2 -2 -5 -3 -8 -5 -6 -7 0 4 -1 -3 -6 -6 -11 -9 -5 -8 -10 -12 -12 -7 -9 -12 -13 -11 -10 -10 -12 -14 -13 -17 -19 -19 -21 -22 -20 -19 -17 -18 -18 -16 -10 -9 -9
0 -2 -3 1 7 8 7 13 9 5 2 -1 -0 -2 -4 -6 -8 -0 3 -2 -5 -9 -10 -12 -11 -6 -2 -6 -10 -14 -12 -16 -15 -5 -3 -2 -7 -7 -14 -18 -20 -20 -18 -20 -20 -20 -20 -19 -19 -13 -9 -10 -10 -11

GFSWCAN_sfc_temp_054.txt.gz
Temp
48 48 49 49 48 48 47 47 47 48 49 49 49 49 49 50 51 48 44 47 44 40 43 46 45 43 45 46 36 41 42 42 37 35 34 34 30 38 36 41 38 39 34 28 28 25 31 49 49 43 45 42 45 45
46 46 46 46 46 46 47 48 48 48 48 48 49 49 49 50 50 48 41 48 49 42 43 47 47 47 47 49 47 43 44 43 44 39 36 32 31 30 36 34 43 39 42 38 39 38 46 47 47 47 47 45 46 45
46 47 46 47 47 47 48 48 48 48 48 48 48 49 49 49 50 49 43 45 46 41 42 43 42 49 50 49 51 43 43 49 46 46 39 37 33 35 31 34 37 43 45 40 41 44 43 44 45 44 44 44 45 45
47 46 46 46 46 46 46 46 46 46 47 48 48 48 48 49 50 48 43 47 45 40 33 41 52 49 53 51 49 50 51 49 47 45 38 36 33 42 34 40 39 43 45 40 39 41 43 45 42 42 41 42 42 41
46 46 46 46 47 47 47 47 47 47 47 48 48 48 48 49 50 47 45 45 45 41 36 36 47 51 52 52 50 50 50 47 42 38 34 36 39 39 36 37 36 44 42 39 38 47 46 44 42 42 41 39 40 39
47 46 46 46 46 46 47 47 47 47 47 47 47 47 48 47 47 43 38 45 49 47 37 33 45 45 49 52 52 49 50 46 44 41 35 40 43 42 34 32 45 48 48 50 49 48 40 41 39 40 38 38 38 38
46 47 47 47 46 47 46 46 46 47 47 47 48 48 48 47 45 41 38 43 49 47 41 32 33 44 50 51 48 48 46 44 44 40 35 39 40 41 29 33 45 43 43 44 43 42 38 39 36 38 37 37 38 36
46 47 47 45 45 45 45 45 45 45 45 46 47 48 48 48 47 41 43 48 48 45 44 30 35 38 49 43 43 47 42 42 42 39 35 34 37 31 35 39 39 40 41 41 39 40 40 37 37 35 36 36 33 32
46 46 46 47 46 46 46 45 46 48 48 48 48 48 46 43 39 40 48 49 47 43 35 32 33 33 43 41 40 42 42 35 41 35 37 39 33 34 38 37 38 39 39 35 37 37 37 35 34 34 34 34 32 31
46 46 46 46 46 46 46 47 47 47 48 49 45 40 34 39 47 49 45 42 42 41 41 34 38 35 43 36 35 35 35 35 34 37 40 32 34 37 38 39 41 39 39 38 34 32 33 33 33 33 33 34 33 33
46 46 46 46 46 46 46 47 47 47 47 40 38 36 42 48 45 41 35 36 36 34 37 37 38 36 41 36 34 33 33 34 32 35 35 33 34 36 39 39 41 41 41 41 40 38 38 36 34 32 31 32 32 32
47 46 46 46 46 46 47 47 47 44 42 44 44 47 46 43 37 33 32 32 33 32 34 35 37 39 37 41 35 35 33 32 31 37 34 32 34 37 39 38 39 41 40 39 40 37 37 36 36 33 32 31 30 30
46 46 47 46 46 47 46 47 47 46 47 45 43 37 38 33 31 26 27 30 31 33 34 35 34 35 36 38 33 32 30 31 34 32 32 32 35 38 38 39 38 40 39 39 38 37 34 32 32 31 29 30 30 29
46 46 46 46 46 46 46 46 46 45 43 36 33 28 30 29 29 30 31 32 32 32 33 34 33 33 33 33 31 31 32 33 29 27 24 32 35 36 38 38 37 35 34 34 32 32 30 30 29 29 29 28 27 27
46 46 46 45 46 46 46 46 45 43 38 32 32 27 29 31 32 32 32 33 33 34 33 34 33 35 32 32 31 32 30 28 26 21 30 32 35 35 34 34 33 32 31 30 30 29 28 28 27 27 28 28 26 23
46 46 43 46 47 47 46 44 42 40 35 32 31 29 30 30 30 31 31 32 35 33 33 33 31 31 30 30 28 27 26 24 28 30 32 33 32 32 32 32 32 32 31 30 29 28 27 27 27 26 26 24 22 21
45 40 44 45 45 45 45 41 38 33 31 31 29 30 30 30 28 30 31 31 34 33 32 31 29 27 32 28 26 28 25 28 30 31 32 32 32 31 31 31 30 30 29 29 28 29 28 28 27 26 23 25 25 22
38 40 45 46 46 43 40 39 33 32 29 31 28 29 28 28 27 28 29 32 32 32 31 27 30 24 22 22 23 28 30 30 31 31 31 32 32 32 32 30 30 29 28 28 28 27 26 25 26 25 26 24 23 22
39 41 45 46 45 39 34 34 35 29 28 30 29 29 29 27 29 29 30 31 32 32 30 26 20 18 18 24 23 27 30 30 29 29 30 31 32 31 30 30 29 28 27 27 27 25 25 27 25 25 24 23 20 19
44 43 43 44 44 34 32 31 35 30 28 29 29 26 25 25 26 27 27 29 29 27 22 19 18 19 20 23 25 29 30 32 29 26 25 26 28 28 27 26 25 25 24 24 23 23 21 20 21 20 19 19 17 15
39 38 40 38 32 34 31 31 31 31 31 29 29 28 26 28 24 22 22 28 23 21 18 20 20 22 24 24 26 26 25 26 25 26 24 22 24 25 24 24 24 23 21 20 19 18 18 17 17 17 15 13 13 13
32 39 29 33 29 29 28 30 31 32 30 30 29 29 25 20 19 21 25 18 17 18 21 21 20 21 21 21 22 24 24 24 24 23 22 23 20 20 20 21 20 18 18 17 17 15 16 16 15 14 13 12 14 12
36 32 26 27 23 22 20 28 22 27 20 22 25 22 21 20 23 27 16 18 18 20 21 21 22 22 21 21 22 22 22 22 20 19 19 18 18 17 16 16 17 15 14 14 16 14 12 13 12 10 10 10 9 6
34 21 16 16 20 12 16 17 24 22 19 18 18 17 21 17 21 14 12 14 17 19 19 19 20 19 20 19 16 16 19 20 18 18 18 17 14 13 13 12 12 12 13 12 11 8 7 5 6 6 3 1 0 -2
22 19 16 11 14 15 9 8 11 14 11 14 14 17 15 18 10 9 8 13 14 14 15 18 17 16 15 14 15 15 18 18 15 11 14 17 14 13 11 11 10 10 11 7 4 3 2 1 -1 -1 -0 -7 -1 -8
16 18 20 15 17 15 16 14 15 6 7 9 11 14 6 3 -0 3 12 12 12 13 12 12 13 13 12 12 11 11 13 16 14 9 9 11 10 8 6 5 5 6 6 -0 -4 -6 -5 -8 -12 -10 -13 -9 -10 -15
17 15 17 24 22 19 10 9 13 7 4 5 7 3 -1 -6 -3 11 15 16 14 12 13 11 13 12 11 11 12 11 11 11 9 8 9 8 7 7 4 -1 -0 4 6 1 -4 -7 -7 -9 -12 -11 -13 -18 -20 -18
23 18 9 9 9 14 5 2 3 5 9 16 7 -5 -8 -7 2 11 14 16 14 14 12 10 9 8 7 7 7 6 6 5 4 3 3 4 3 1 -1 -1 -1 5 -4 -7 -7 -7 -7 -7 -6 -7 -11 -11 -8 -12
13 12 13 4 6 8 9 4 6 11 13 10 -5 -2 2 8 8 10 12 13 13 11 6 4 2 -3 0 2 0 -1 -0 -4 -5 -8 -14 -15 -13 -6 -7 -12 -13 -12 -14 -12 -5 2 5 1 -1 -6 -6 -8 -6 -9
9 11 6 2 2 5 2 5 -2 -2 8 5 9 10 7 6 9 12 9 7 4 -4 -10 -11 -13 -10 -15 -12 -12 -6 -6 -14 -13 -11 -15 -15 -10 -7 -17 -19 -18 -18 -22 -23 -21 -15 -7 -16 -11 -16 -16 -14 -15 -14
8 6 7 5 7 4 3 -3 -0 -2 -6 -3 -6 -6 -3 1 3 6 5 2 -2 -9 -8 -11 -9 -17 -13 -15 -17 -16 -13 -12 -15 -14 -13 -13 -15 -17 -18 -18 -20 -23 -24 -23 -24 -24 -23 -23 -24 -24 -20 -16 -10 -8
2 -4 2 3 7 5 6 7 -6 -4 -7 -8 -6 -12 -9 -9 -10 -3 0 -5 -9 -9 -11 -15 -14 -9 -12 -14 -18 -19 -13 -15 -15 -14 -13 -15 -17 -17 -18 -18 -22 -23 -24 -24 -25 -24 -24 -24 -26 -26 -25 -22 -19 -16
-4 -7 -6 0 5 6 8 8 5 1 -4 -5 -3 -5 -9 -9 -9 -4 -1 -9 -10 -12 -12 -15 -14 -13 -10 -13 -15 -17 -15 -19 -18 -6 -5 -7 -11 -12 -19 -22 -24 -24 -22 -24 -26 -26 -24 -23 -24 -25 -24 -24 -24 -23

GFSWCAN_sfc_temp_057.txt.gz
Temp
48 49 48 48 49 49 49 49 49 49 48 48 49 50 50 50 50 48 44 46 44 41 42 46 44 44 47 47 39 43 44 44 40 36 36 37 34 40 42 44 41 41 37 35 35 34 37 52 52 48 54 52 53 52
46 47 48 48 48 48 48 48 48 48 48 48 49 49 50 51 50 49 42 47 47 42 42 47 48 48 49 55 48 45 46 44 45 40 38 38 35 34 41 40 45 40 45 42 44 45 53 54 56 55 53 55 51 53
46 46 46 47 47 47 47 47 47 47 48 49 49 50 49 50 50 49 43 44 44 41 41 43 44 51 50 49 52 44 45 50 47 49 43 42 37 40 35 38 43 45 48 45 47 49 50 51 51 50 52 53 52 52
46 46 46 46 46 46 46 47 47 48 48 48 48 48 49 49 50 48 42 45 43 42 34 40 51 48 53 52 51 53 52 51 50 48 40 37 38 45 40 47 44 48 48 45 44 48 48 51 50 50 48 48 46 47
46 46 46 46 46 47 47 47 47 47 47 47 47 48 49 50 49 45 43 44 45 40 34 39 47 49 52 51 50 51 51 50 46 42 37 39 43 42 40 42 41 49 47 44 44 52 52 54 52 48 46 46 46 43
46 46 46 46 46 46 46 46 47 47 47 47 48 48 49 49 47 42 37 44 46 47 38 33 45 47 50 50 51 49 50 49 48 45 40 44 47 45 37 40 50 52 51 53 53 52 44 43 43 46 44 43 43 43
46 46 46 46 46 46 46 46 47 47 47 47 48 48 48 48 44 38 36 43 47 45 39 33 36 44 47 50 49 49 51 49 48 45 40 44 44 46 36 41 50 49 50 47 46 46 42 43 43 42 41 41 41 41
46 46 46 46 46 46 46 46 46 46 47 47 47 47 48 48 47 41 45 48 48 43 43 32 33 39 48 43 42 47 44 45 44 43 39 41 41 38 36 44 44 44 44 43 44 43 45 41 40 38 39 39 36 35
46 45 45 46 46 45 46 46 47 47 47 46 47 47 44 42 35 40 48 48 47 44 35 34 32 34 45 41 41 41 42 36 43 37 39 42 37 37 43 43 43 42 43 40 39 39 39 39 37 37 37 37 35 34
46 46 45 45 45 45 45 46 46 47 47 48 45 40 35 40 47 47 45 40 41 41 41 35 38 35 43 38 37 37 37 36 34 38 41 36 38 41 41 43 44 41 40 39 35 33 34 34 35 35 36 37 36 35
46 46 46 46 46 47 47 47 47 47 47 43 39 36 41 47 43 39 35 34 35 33 37 38 36 37 43 39 35 35 34 34 33 37 37 36 35 41 42 41 42 42 41 42 42 40 40 37 35 34 34 35 35 35
46 46 46 47 47 47 46 47 47 44 42 43 43 45 43 41 35 32 32 33 34 32 35 35 37 40 38 42 38 35 33 33 32 37 33 33 36 38 40 39 40 41 41 40 41 39 38 37 36 34 33 32 31 30
46 46 46 46 46 47 47 47 46 45 45 44 42 36 37 33 29 30 28 31 32 33 35 35 34 36 37 38 34 33 31 31 35 32 32 32 36 37 38 38 38 39 38 37 35 34 34 33 34 32 29 29 29 27
46 46 46 46 46 46 46 46 46 44 42 35 32 29 30 28 29 29 32 32 32 33 33 34 33 34 33 33 33 32 32 32 31 30 28 32 33 35 37 37 36 33 33 32 32 32 30 30 29 29 28 28 26 26
46 46 46 46 46 46 46 46 45 42 35 32 32 28 29 32 32 32 32 33 33 34 33 34 34 35 32 32 32 32 31 27 27 26 30 32 34 34 33 33 32 31 30 30 29 28 27 27 26 26 27 28 27 25
46 45 44 45 46 46 45 44 42 39 33 32 28 26 29 29 27 29 29 30 33 32 33 34 32 32 31 31 30 27 28 24 27 30 32 32 32 32 31 31 31 30 29 28 28 28 27 26 25 26 26 25 24 24
45 40 45 46 46 45 45 41 38 32 32 30 27 28 26 27 26 27 28 29 33 33 31 32 26 25 31 28 25 28 25 27 29 30 31 31 30 30 30 30 29 29 28 28 27 27 26 28 27 26 24 25 25 23
38 43 46 46 46 43 40 37 33 32 27 27 25 25 26 25 24 26 28 30 31 32 30 26 29 23 20 20 21 23 26 30 30 30 31 31 31 30 30 28 29 28 28 28 27 27 27 26 25 24 23 24 24 23
43 44 45 45 44 38 33 33 35 26 25 27 26 26 26 24 26 27 28 29 30 31 28 24 18 16 17 21 20 21 26 28 26 26 26 28 29 29 28 28 27 26 26 26 25 24 24 24 24 24 23 23 21 21
45 44 44 45 44 34 32 31 36 31 27 26 28 24 24 23 24 25 26 27 27 25 19 17 16 17 18 21 23 24 25 30 27 23 22 24 25 25 24 25 24 24 23 23 22 22 21 20 21 21 21 21 19 17
41 39 41 40 33 34 32 32 31 31 30 28 30 28 25 27 22 20 21 26 21 18 16 18 18 20 22 22 24 24 23 23 22 24 22 20 23 23 22 22 22 21 20 19 18 17 17 17 17 18 17 16 16 16
33 39 29 32 29 29 27 29 31 32 28 28 28 27 20 16 16 18 23 17 15 16 19 19 19 20 19 19 20 22 22 22 21 20 19 19 17 17 17 19 18 16 16 16 16 14 14 15 16 15 15 14 15 14
36 32 26 26 23 22 20 28 22 26 20 22 23 20 17 15 20 24 13 17 16 19 20 20 21 20 19 19 20 20 20 20 18 17 16 15 15 15 14 14 16 14 13 13 15 13 11 11 11 10 11 11 11 10
33 21 15 14 19 11 16 16 23 21 19 18 18 14 18 16 19 13 10 13 16 18 18 18 19 18 18 17 15 14 17 18 17 16 17 15 12 11 12 12 12 11 12 11 10 8 7 6 6 7 6 6 5 5
21 18 16 14 14 13 10 13 11 14 12 14 14 13 10 16 9 8 8 12 14 13 14 16 16 15 14 13 14 14 16 16 13 10 11 16 13 12 10 10 9 9 11 8 5 5 4 3 3 3 3 1 3 2
14 16 18 18 17 14 15 15 12 6 8 7 10 10 7 5 1 3 11 12 11 11 10 11 13 12 10 11 10 10 11 15 13 8 8 9 10 8 7 5 5 5 8 5 5 4 4 3 1 1 2 2 -5 -2
14 11 16 22 20 17 8 8 12 7 4 5 7 2 0 -5 -2 9 14 14 12 10 12 10 13 12 10 10 10 10 10 9 8 7 8 7 7 7 5 2 1 3 6 2 2 1 1 0 0 0 -1 0 0 -3
21 15 7 7 8 12 4 1 2 4 7 13 5 -5 -8 -6 2 10 13 13 12 12 10 9 8 8 7 6 5 6 7 6 5 6 6 5 3 1 -1 -1 -1 1 -2 -2 0 0 2 1 1 0 -0 -1 -2 -0
8 9 11 1 3 6 7 1 3 8 11 7 -5 -3 2 7 7 10 11 12 13 11 7 4 2 0 2 3 0 -0 0 1 2 -4 -6 -5 -4 -0 -2 -3 -3 -4 -6 -2 -2 5 4 2 1 -2 -4 -4 -4 -4
7 9 6 -1 -0 2 0 0 -2 -2 7 6 9 9 7 6 8 10 9 8 6 1 -3 -6 -7 -3 -5 -2 -3 -2 -3 -6 -4 -3 -4 -4 -3 -1 -5 -5 -5 -6 -9 -7 -6 -3 -4 -6 -4 -6 -7 -7 -5 -4
7 5 4 5 3 -0 -1 -6 -6 -5 -5 -3 -5 -5 -2 2 5 6 4 2 -1 -4 -2 -3 -4 -9 -4 -6 -6 -6 -4 -4 -10 -7 -6 -5 -6 -5 -5 -7 -8 -10 -10 -9 -9 -9 -8 -8 -10 -11 -9 -9 -10 -10
0 -4 2 2 5 3 4 1 -8 -6 -8 -6 -6 -11 -7 -7 -9 -2 -1 -3 -2 -4 -8 -10 -7 -4 -8 -8 -12 -10 -12 -7 -6 -6 -7 -5 -3 -5 -6 -7 -11 -11 -10 -10 -11 -11 -11 -11 -10 -11 -11 -11 -12 -12
-6 -8 -6 -0 2 2 4 5 3 -0 -4 -5 -6 -7 -10 -6 -7 -2 -1 -7 -3 -4 -7 -7 -6 -8 -10 -11 -8 -8 -12 -9 -12 -7 -5 -5 -8 -8 -8 -8 -10 -10 -9 -9 -11 -12 -11 -11 -10 -11 -11 -14 -14 -13

GFSWCAN_sfc_temp_060.txt.gz
Temp
48 49 49 48 47 48 49 50 50 50 50 50 49 49 49 49 50 50 48 55 53 49 52 51 55 51 54 53 46 53 51 51 48 43 44 45 42 50 50 55 48 47 44 41 46 40 39 61 61 58 67 66 70 68
47 48 48 48 48 49 49 49 49 50 50 49 49 48 48 49 50 50 44 52 56 52 47 51 51 56 61 61 56 55 55 54 54 49 48 50 42 43 51 44 56 47 53 51 51 54 63 64 70 71 68 71 66 68
46 47 47 47 47 49 48 49 49 49 49 48 48 48 49 50 50 49 48 51 50 48 49 49 45 54 57 59 67 54 57 60 56 62 53 51 43 53 42 47 52 54 54 50 52 64 62 63 68 64 66 66 66 67
46 46 46 46 46 47 47 48 47 47 48 48 48 48 49 48 48 51 50 52 52 46 40 45 56 48 58 59 59 61 62 61 60 57 52 44 44 57 51 55 54 61 56 56 58 63 58 60 64 68 63 61 61 64
46 46 46 46 46 46 47 47 47 47 47 48 48 48 49 48 49 48 50 51 54 47 38 45 53 56 54 57 57 59 59 59 56 50 41 43 55 52 51 50 51 59 58 51 53 66 62 69 66 68 63 61 61 60
46 46 46 47 46 46 46 46 47 47 48 47 48 48 48 48 50 48 39 51 54 53 45 36 50 52 55 52 53 57 58 57 57 55 49 56 59 55 45 48 60 65 65 66 64 67 67 56 55 61 61 61 60 58
46 46 46 47 47 46 46 46 46 47 48 47 47 47 48 49 50 46 44 50 52 54 45 39 40 51 54 53 52 52 55 55 55 53 52 54 54 52 46 45 59 64 66 67 63 58 57 55 60 54 55 57 53 57
46 46 46 46 46 46 46 46 46 46 47 48 48 48 48 49 50 48 51 50 53 49 43 35 37 40 52 47 44 54 50 49 49 50 52 51 55 50 43 56 61 64 64 58 58 58 57 56 54 52 53 51 49 49
46 46 46 46 46 46 46 46 47 47 48 48 48 48 49 48 44 47 47 49 54 48 38 34 33 34 45 44 44 43 45 38 45 39 47 49 48 42 53 57 58 59 57 61 57 53 52 51 51 49 48 48 48 44
45 45 45 45 46 46 46 46 47 47 47 48 49 43 36 45 46 48 43 39 40 45 42 35 41 33 42 40 39 40 43 41 36 38 46 37 45 56 60 58 59 58 58 53 48 45 47 47 47 47 47 48 47 45
46 46 45 45 45 46 46 46 46 47 48 44 40 40 46 47 43 41 35 33 37 34 42 41 39 38 46 42 39 43 36 36 35 37 39 38 39 48 47 53 54 53 52 52 52 51 51 50 47 44 43 44 43 42
47 47 47 46 46 46 46 47 47 49 46 44 45 50 45 40 39 33 33 36 37 37 42 39 41 47 43 50 46 40 36 36 35 38 34 35 37 39 42 45 47 48 48 47 48 46 46 45 45 43 40 39 37 34
46 46 47 46 46 46 46 46 46 45 45 46 46 40 39 35 29 30 27 33 34 37 38 37 37 43 44 47 37 37 34 33 36 34 34 32 35 37 39 39 38 40 39 37 36 37 36 35 35 34 31 31 30 30
46 46 46 46 46 46 46 46 46 46 44 37 34 31 32 30 31 31 34 36 34 36 37 38 36 39 37 37 36 34 35 35 32 32 29 33 34 35 35 35 34 32 32 32 31 31 30 30 29 29 29 29 28 28
46 46 46 46 46 46 46 45 45 44 39 32 32 27 30 32 32 31 33 34 34 35 36 35 36 41 34 34 35 34 32 30 30 28 31 32 33 33 32 32 31 30 29 29 29 28 28 29 28 28 28 28 28 27
46 46 47 46 46 46 45 45 42 40 35 32 28 25 28 28 27 28 29 30 33 33 35 35 33 34 32 34 31 28 30 25 28 30 32 33 31 31 30 30 29 29 29 29 30 30 29 27 27 27 27 27 26 26
46 43 46 46 45 44 44 41 38 34 31 30 26 27 26 26 25 27 29 28 32 32 32 33 28 27 33 29 26 29 25 28 30 31 32 32 30 30 30 30 29 30 29 29 28 28 28 29 30 29 26 27 27 26
41 44 45 45 45 43 40 38 36 32 26 27 25 25 26 25 24 25 28 30 33 32 30 26 29 23 21 21 22 23 26 30 29 29 30 31 30 30 30 29 29 30 29 29 28 28 28 27 26 25 26 26 27 27
44 45 45 46 46 40 36 36 39 28 27 28 27 27 28 25 27 28 28 29 31 34 30 26 19 17 18 21 21 24 27 29 26 26 26 27 28 27 27 27 27 27 27 27 26 26 26 27 26 26 26 26 24 25
45 44 43 44 45 40 35 34 41 33 27 29 30 27 26 25 27 27 28 30 30 27 21 19 17 18 19 22 25 25 27 30 28 24 23 25 25 25 25 26 25 25 25 24 24 24 24 23 24 24 25 25 24 22
41 39 42 46 42 41 35 34 32 34 33 31 34 33 29 30 25 23 23 29 23 19 17 19 19 21 22 23 25 25 23 24 23 24 22 20 23 23 22 22 23 23 22 21 21 20 20 20 21 23 22 21 21 21
40 41 42 41 38 36 36 35 34 36 36 34 34 33 27 24 23 22 26 20 17 18 20 20 19 20 20 19 20 22 22 21 21 20 20 20 18 19 19 20 20 19 19 19 19 17 17 18 20 20 19 19 19 18
41 42 36 35 32 32 29 39 31 33 27 29 32 27 25 24 25 29 18 20 19 21 22 23 21 20 19 19 20 20 20 20 19 18 17 17 17 17 17 18 19 18 16 16 18 16 15 15 15 16 16 16 16 15
39 29 26 26 30 24 29 27 32 30 29 28 26 21 21 23 27 21 15 17 18 21 21 20 23 21 20 18 16 16 18 19 18 17 18 17 15 15 17 16 16 16 17 16 16 14 14 13 13 13 12 13 12 12
27 23 27 22 28 24 21 22 21 25 21 23 21 19 19 25 17 15 13 17 18 17 18 20 19 19 17 16 16 15 17 18 15 13 16 19 17 17 15 14 13 14 16 14 13 12 11 12 12 12 12 10 9 9
18 21 23 24 23 22 21 18 18 18 19 18 17 19 21 17 12 11 15 17 16 15 15 17 17 16 14 16 16 15 15 20 19 14 13 15 16 15 13 12 12 10 13 12 12 12 11 10 9 9 9 9 6 7
18 19 24 26 26 23 20 21 22 19 15 14 16 14 15 8 8 13 18 18 17 16 17 18 19 18 16 15 15 16 16 15 14 12 13 13 12 13 12 9 7 8 11 10 10 9 9 8 8 8 8 9 9 7
23 23 16 17 18 20 14 15 14 13 14 17 17 7 6 7 9 15 17 17 17 17 15 15 15 16 15 14 14 15 14 13 12 13 13 12 11 10 9 9 7 5 9 8 10 9 8 8 7 6 5 5 5 7
19 21 21 9 14 14 12 12 12 14 15 16 11 8 8 12 14 16 17 18 18 17 14 12 11 13 13 12 11 11 12 13 10 6 6 7 8 7 9 8 8 7 8 9 7 9 7 7 5 3 3 4 5 6
18 21 16 11 9 10 11 12 11 13 15 15 15 12 12 11 12 16 17 16 15 13 11 11 11 14 10 12 9 8 8 8 7 9 7 5 5 7 7 6 6 5 6 7 6 7 4 5 5 5 4 4 3 3
18 21 17 16 12 14 13 13 13 14 13 12 12 10 9 11 12 13 12 11 10 10 11 10 8 10 10 9 9 9 6 6 3 4 6 7 7 7 6 5 5 5 5 5 4 4 3 4 3 2 1 -0 -1 -1
17 14 15 12 11 13 13 15 15 14 13 13 10 9 8 10 7 10 11 12 11 11 5 9 10 9 7 7 5 6 -4 6 6 5 3 6 7 6 6 5 4 5 4 3 3 2 1 0 1 -0 -0 -1 -2 -3
14 16 16 14 11 10 14 15 14 10 12 11 10 9 10 10 7 10 9 9 12 12 11 10 10 8 6 5 6 6 1 6 -2 -2 0 1 -1 1 4 6 5 3 2 2 3 1 -0 -0 -0 -1 -1 -3 -3 -4

GFSWCAN_sfc_temp_063.txt.gz
Temp
48 48 48 49 47 48 49 49 49 49 50 49 50 50 50 50 49 48 53 59 54 49 54 57 56 55 54 56 49 56 50 54 51 45 46 49 46 53 53 58 51 46 45 43 47 43 41 67 66 59 67 75 76 76
47 47 47 47 47 49 48 49 49 49 49 49 50 50 50 50 49 50 49 56 59 51 50 60 59 64 58 64 59 56 53 56 58 52 52 54 47 47 53 46 62 47 57 51 55 55 67 67 69 71 76 74 75 75
47 47 47 48 48 48 49 49 49 49 49 50 50 50 50 49 49 51 51 54 53 45 49 53 53 60 62 63 63 55 59 63 61 65 59 54 47 55 45 50 56 60 65 56 58 64 67 69 71 72 74 73 76 75
47 46 47 47 48 48 48 49 49 49 49 50 50 49 48 49 51 54 51 55 53 49 41 48 60 56 60 62 60 62 64 66 66 64 55 50 48 62 52 57 56 61 63 59 58 64 68 69 69 69 74 73 72 72
46 46 46 46 47 47 48 48 48 49 48 48 48 49 49 49 51 51 51 55 59 53 45 48 55 56 57 58 57 61 61 62 60 53 47 47 58 58 58 57 54 64 60 55 53 65 63 67 72 72 72 72 69 70
47 46 47 46 46 46 46 47 47 47 47 47 48 48 48 49 49 48 40 52 60 62 52 42 56 51 51 51 53 57 59 59 58 55 53 59 64 59 47 49 62 66 68 69 63 69 69 67 63 66 69 72 71 69
46 46 46 46 47 47 46 46 47 47 47 47 48 48 49 49 49 46 46 54 56 63 53 44 46 54 54 50 48 54 58 57 57 54 52 57 59 58 50 47 61 66 68 69 71 69 61 65 64 63 64 67 62 67
46 46 46 46 46 47 46 46 47 47 47 47 48 47 48 49 50 50 54 52 58 57 55 42 41 46 55 46 42 54 51 53 54 54 56 54 57 53 46 58 61 64 66 66 66 67 64 66 63 62 62 61 59 61
46 46 46 46 46 46 47 46 46 47 47 47 49 50 52 50 48 50 49 51 59 55 44 35 38 36 53 50 46 48 50 43 52 47 50 54 50 45 54 58 61 63 62 63 67 68 66 59 61 60 58 57 58 56
45 45 45 45 46 46 47 47 47 48 49 50 52 50 43 47 47 49 47 46 50 51 47 38 47 40 42 42 41 40 47 43 37 44 54 47 48 59 59 53 61 62 59 64 56 55 56 56 57 56 55 56 56 54
46 46 46 46 46 46 47 47 48 48 48 51 47 39 48 47 48 44 36 39 38 34 44 46 47 42 43 35 39 45 40 39 35 41 40 38 40 43 48 51 53 56 57 58 58 56 56 56 56 53 52 52 51 50
47 46 46 46 46 46 47 47 48 51 49 45 47 50 49 46 37 33 33 39 38 39 45 43 42 40 36 35 40 38 38 37 34 40 35 32 34 37 40 42 43 47 50 51 53 51 51 52 51 47 43 36 34 33
46 46 46 46 47 47 46 46 46 47 49 51 49 41 37 37 31 30 28 34 35 42 42 41 37 39 38 43 39 39 35 35 39 34 32 32 35 36 36 37 35 36 37 37 36 38 36 33 33 33 31 31 30 28
46 46 46 46 46 46 46 46 47 48 53 39 35 30 33 30 32 31 29 35 35 37 39 43 38 39 38 38 36 34 34 36 33 32 29 33 33 34 33 33 32 30 30 30 29 30 29 30 30 31 31 31 29 28
46 46 46 46 46 45 45 45 47 52 45 33 35 26 29 32 32 32 31 33 33 36 41 39 38 39 35 34 34 33 32 31 30 29 32 32 33 32 31 30 30 29 29 29 30 29 29 30 29 29 30 30 29 28
47 48 46 45 45 45 46 47 48 49 42 35 30 27 30 31 29 29 28 28 32 31 40 39 33 35 33 34 31 29 30 25 28 31 32 33 31 32 31 31 31 31 31 31 31 31 30 29 29 29 29 29 28 27
48 47 45 45 45 45 45 44 42 34 32 30 27 28 27 28 26 26 30 29 32 32 32 35 30 27 37 31 26 28 26 27 30 32 33 33 31 31 31 31 30 30 30 30 30 30 29 30 30 30 27 27 27 26
44 45 45 46 48 45 44 42 36 33 26 27 25 26 26 26 25 27 28 30 32 33 31 26 32 25 23 22 22 26 29 30 30 29 29 29 30 30 31 30 30 30 30 29 29 29 28 27 26 26 27 27 27 27
45 45 45 46 46 42 36 36 40 28 27 28 27 27 28 26 27 28 29 30 30 31 29 25 19 17 19 22 21 24 28 29 27 27 27 27 28 28 27 28 28 27 27 27 27 27 27 28 28 29 29 29 27 28
44 44 44 45 47 42 35 35 43 33 28 29 30 27 27 26 27 27 27 28 27 24 20 18 17 18 19 22 25 25 28 30 28 24 23 24 25 25 25 26 25 25 25 25 26 27 27 26 27 27 27 26 25 23
43 40 43 47 47 44 37 36 36 37 35 33 36 35 30 32 27 27 26 29 24 21 18 20 20 21 23 24 25 25 24 25 24 24 22 21 24 24 23 24 24 24 23 22 22 22 23 22 24 24 23 22 22 22
44 42 48 47 42 41 39 40 38 39 37 35 35 36 29 27 25 25 29 22 19 21 22 22 22 23 22 21 22 23 22 23 22 22 21 22 20 20 21 21 20 19 20 20 20 18 19 21 22 22 22 22 22 19
43 46 42 40 34 34 31 44 33 36 30 31 34 29 28 27 28 33 22 23 21 25 26 24 22 23 22 22 22 22 22 22 20 20 19 19 19 19 18 19 21 19 18 19 21 20 18 18 18 19 20 19 20 18
43 33 30 30 33 27 33 30 37 34 33 30 27 23 24 27 31 25 18 19 21 25 24 24 26 24 23 22 20 20 21 22 20 20 20 19 17 17 20 19 20 20 21 20 19 18 18 17 18 18 16 16 15 15
30 25 30 26 32 29 27 26 27 29 24 26 23 23 23 30 22 19 17 19 21 20 22 23 23 23 20 19 19 19 22 23 20 18 22 24 22 20 18 18 17 17 20 18 17 16 15 16 15 15 14 12 11 12
22 24 26 27 27 26 26 23 23 23 24 22 21 25 27 23 17 15 18 19 19 19 19 21 21 19 18 20 18 18 19 24 22 17 17 19 20 19 18 16 15 13 17 17 16 15 14 14 13 12 13 13 10 11
22 24 27 32 31 30 26 27 28 24 20 19 22 20 21 14 13 16 20 21 20 20 21 23 23 22 20 19 20 20 20 19 17 17 18 17 17 17 15 12 9 11 16 15 15 14 12 12 11 11 11 12 11 11
26 26 19 22 23 26 20 21 20 18 19 22 23 13 12 13 14 19 19 21 20 21 20 20 21 21 20 19 20 21 19 18 16 18 18 17 16 15 14 13 11 11 13 11 13 12 12 11 10 10 9 9 8 10
24 27 24 14 19 19 17 18 18 18 19 22 18 15 13 16 20 19 20 21 22 21 18 17 17 19 18 18 17 17 17 18 16 11 11 12 13 11 13 13 13 12 13 14 10 11 9 9 8 8 8 9 11 12
22 28 20 16 14 15 15 19 16 17 20 20 19 16 15 15 17 22 21 21 20 17 18 18 18 19 17 17 14 12 13 13 13 14 13 10 9 11 12 11 11 11 12 12 11 12 8 11 10 11 9 9 8 7
27 27 21 20 16 17 18 19 19 19 19 17 19 17 14 15 16 18 18 18 18 17 17 15 15 17 15 14 15 13 10 11 8 9 11 12 12 11 10 10 10 11 11 10 9 9 7 9 9 8 6 5 4 4
23 22 19 15 15 18 20 21 21 19 19 18 15 16 15 16 13 15 17 18 17 17 11 16 15 14 13 12 12 10 6 11 11 10 8 11 11 10 11 11 10 11 9 8 9 8 6 5 7 6 5 5 3 2
23 22 21 18 15 15 18 20 19 16 18 17 16 17 17 17 12 15 16 18 17 18 16 17 16 13 11 11 12 10 8 11 6 5 5 4 3 4 7 11 10 9 7 7 8 7 5 5 5 4 4 2 2 1

GFSWCAN_sfc_temp_066.txt.gz
Temp
47 47 47 47 48 48 48 48 49 50 49 49 49 50 50 51 50 47 47 53 50 45 49 51 54 52 55 55 47 54 51 46 49 43 42 44 42 48 48 53 47 43 42 41 43 39 38 67 66 56 62 67 72 72
47 47 48 48 48 48 48 49 49 49 49 49 49 50 50 51 50 50 45 51 54 48 47 55 53 57 63 64 58 56 52 48 55 49 49 51 44 45 49 40 57 42 51 48 51 50 64 63 64 66 69 68 68 70
47 47 48 48 48 48 48 48 49 49 49 48 49 50 51 50 50 50 47 49 50 45 45 48 49 60 65 65 68 53 57 55 56 62 55 54 46 53 41 47 51 56 57 48 46 61 65 66 66 68 69 68 73 73
47 46 47 48 48 48 48 48 48 48 48 49 50 50 50 50 50 50 47 51 53 46 38 44 60 57 63 64 64 62 57 59 54 61 53 50 45 58 48 54 52 58 58 54 51 59 60 64 65 66 67 69 71 72
47 46 46 47 48 48 48 48 48 48 49 49 50 50 49 50 49 49 50 52 55 47 39 43 56 60 61 60 58 58 56 54 49 46 48 47 55 55 56 57 51 62 59 52 51 62 60 62 64 66 65 67 70 69
46 46 46 46 47 47 47 48 48 49 49 48 49 48 48 49 48 46 40 48 52 50 43 38 53 53 56 57 56 53 53 52 51 49 48 55 62 56 45 47 59 63 65 66 61 66 65 67 67 66 63 65 69 67
46 46 46 46 47 47 47 47 48 48 48 48 48 49 49 49 48 45 44 50 52 55 50 43 44 53 55 54 53 53 52 47 48 46 49 53 55 55 46 44 59 64 67 68 69 66 63 66 62 63 63 65 64 68
46 46 46 46 47 47 47 47 47 47 47 47 48 48 49 49 49 48 52 53 53 55 53 40 40 45 54 47 45 54 48 49 50 49 53 51 55 53 45 56 60 63 64 64 65 66 65 65 66 63 63 63 60 61
46 45 46 46 46 47 46 47 47 47 48 48 48 48 49 47 46 49 50 52 59 52 43 37 38 36 52 49 49 48 51 42 52 45 47 49 48 43 51 56 57 58 59 58 62 65 63 62 61 61 60 58 56 56
46 45 45 46 46 46 46 47 48 49 49 49 51 49 39 46 48 49 51 48 49 50 49 39 48 39 46 41 42 40 42 41 39 45 52 43 44 53 46 51 52 54 56 57 55 54 55 56 57 57 56 56 57 55
46 46 46 46 46 46 47 48 48 49 48 50 43 38 48 48 49 46 38 40 42 37 44 45 46 42 45 36 34 37 33 36 34 42 41 40 40 36 39 42 44 48 51 54 55 56 55 55 54 52 44 39 38 38
46 46 46 46 47 47 47 47 48 50 50 46 48 51 48 45 39 34 34 39 39 37 44 43 43 44 38 43 38 38 34 35 33 43 37 32 32 35 35 36 36 40 42 41 44 43 43 42 41 38 36 33 32 31
46 46 47 46 47 47 47 47 47 49 49 54 51 40 41 37 30 31 28 33 35 41 42 40 36 40 40 42 35 35 33 33 38 34 29 29 32 34 33 33 32 33 34 33 32 33 33 32 32 30 28 28 28 27
46 46 46 46 46 46 46 46 47 50 51 41 35 30 31 30 30 29 29 30 33 34 36 42 38 38 37 34 33 32 33 32 33 31 27 30 31 32 32 31 31 29 29 29 29 29 29 29 28 29 29 28 28 26
46 46 46 46 46 46 46 47 48 54 44 33 35 27 28 31 32 31 32 32 32 32 34 38 36 37 33 32 32 33 32 28 28 26 29 31 32 32 31 31 31 30 30 29 30 29 28 29 28 27 28 28 27 25
46 47 46 45 45 46 46 50 51 50 41 34 30 27 29 30 28 29 29 29 32 30 32 36 33 33 32 33 30 26 27 21 25 28 30 31 30 31 30 31 30 30 30 30 29 29 28 28 27 27 28 27 27 27
47 46 45 46 46 46 47 48 44 36 33 30 27 29 27 27 25 28 29 29 31 29 32 36 28 27 35 30 24 26 23 25 27 28 29 30 30 30 30 30 30 30 29 29 29 29 28 28 29 28 25 25 26 26
46 46 46 46 48 47 46 44 37 34 26 27 26 26 27 27 26 28 30 30 31 32 32 27 33 25 21 21 20 24 28 27 27 26 27 27 27 28 29 28 28 28 28 28 28 28 27 27 26 25 26 27 26 26
47 47 45 46 46 45 38 38 40 28 27 28 28 28 27 27 27 28 29 29 31 33 30 27 20 18 18 21 21 24 27 27 24 24 24 25 26 26 26 26 26 26 26 25 25 25 25 26 26 27 27 27 25 26
43 44 44 45 48 43 36 35 41 32 27 28 29 26 26 25 27 27 27 27 28 26 21 18 16 18 19 21 23 23 27 28 25 22 21 23 24 24 24 25 24 24 23 24 24 24 24 23 24 24 24 23 21 20
43 43 45 47 47 43 38 38 36 37 34 32 33 32 29 30 25 23 24 29 23 20 17 20 19 21 23 23 24 24 23 24 23 23 21 20 22 22 22 22 22 22 20 20 19 19 20 20 22 22 20 19 20 22
43 43 47 46 42 41 38 41 38 39 37 35 35 34 29 26 25 25 28 22 20 20 21 21 21 21 21 21 22 23 22 22 21 21 20 21 18 19 19 19 19 17 18 18 18 17 18 20 21 21 20 19 19 18
43 46 41 40 33 33 32 44 34 36 30 31 34 29 27 26 29 33 21 22 21 25 25 23 23 23 22 22 22 22 22 21 20 19 19 19 19 19 19 20 21 19 18 19 21 19 17 18 18 18 18 18 18 17
43 34 31 32 34 28 34 31 36 33 32 30 28 23 24 27 31 24 17 19 22 26 25 25 26 23 22 20 19 19 21 22 20 20 20 19 17 18 19 19 20 21 20 20 19 18 18 17 16 15 14 14 14 14
30 26 30 27 34 31 29 28 28 29 24 27 24 23 24 30 22 20 17 19 21 21 23 24 23 23 19 18 19 19 22 21 18 16 20 23 21 19 17 17 17 18 20 18 16 15 14 15 15 14 12 10 12 11
22 26 27 28 28 28 28 24 25 25 26 23 22 26 28 24 19 15 18 19 19 20 21 22 20 19 18 19 17 17 18 23 20 15 16 18 19 19 17 15 12 12 17 17 16 14 13 13 12 12 12 10 7 10
23 24 28 35 33 32 28 28 30 25 21 20 22 22 23 16 14 16 20 22 20 20 23 24 24 21 19 19 19 19 19 19 18 17 18 18 17 16 14 11 9 11 16 15 14 13 12 11 10 11 10 10 10 10
27 27 20 24 24 28 22 22 21 19 20 23 24 16 14 15 14 18 20 22 21 22 21 21 21 21 20 20 21 21 19 17 17 18 17 17 17 16 14 12 13 12 11 11 12 11 11 10 10 9 9 9 9 10
25 28 23 15 20 19 19 20 19 19 21 23 20 16 14 18 20 19 21 22 23 22 19 18 18 20 19 18 18 18 18 18 16 12 12 12 11 10 14 14 13 12 14 13 11 11 9 9 7 8 9 10 10 11
24 30 21 18 16 14 16 20 17 21 22 20 19 17 16 16 19 23 23 22 20 18 19 19 19 19 17 16 13 12 13 13 12 12 12 9 9 12 12 12 12 12 12 12 11 12 10 11 12 11 9 9 7 5
30 28 22 20 16 17 18 20 22 21 21 19 21 17 14 15 17 20 20 20 19 19 18 16 17 18 16 15 15 14 10 10 8 9 12 12 12 12 10 10 10 11 12 10 10 9 7 8 9 8 7 6 4 3
27 23 19 15 15 19 22 22 22 20 20 19 16 17 16 17 14 15 19 19 18 17 12 18 16 13 14 13 12 10 8 12 11 10 11 11 11 10 11 11 11 11 10 8 9 8 7 6 6 6 5 5 4 2
24 24 22 20 17 18 20 22 21 18 20 18 17 18 17 17 13 15 18 19 18 19 17 17 16 14 12 13 13 10 9 10 5 7 5 5 2 4 5 11 10 9 8 8 8 8 7 6 5 4 3 3 3 2

GFSWCAN_sfc_temp_069.txt.gz
Temp
48 48 47 48 48 49 49 48 48 49 50 50 50 50 50 50 50 47 44 47 44 42 44 49 51 47 48 47 39 43 43 42 37 36 35 32 28 40 40 44 40 37 35 34 34 34 33 60 59 51 53 59 61 58
47 47 47 48 48 49 48 48 49 49 49 49 50 50 50 49 50 48 41 49 50 44 44 50 50 51 49 49 48 47 45 43 41 38 40 38 33 32 40 30 48 37 43 40 43 40 54 58 56 60 62 61 60 59
47 47 47 48 48 48 48 48 48 49 48 49 48 49 49 50 49 48 45 47 47 43 41 42 43 53 58 55 55 45 45 48 46 49 43 41 36 39 32 37 42 49 53 44 46 51 50 52 55 60 63 61 64 62
47 47 47 47 48 48 48 48 48 48 49 49 49 49 49 49 49 50 46 47 47 43 34 40 53 49 58 57 56 54 51 50 50 47 42 38 33 47 36 43 42 48 52 48 46 52 53 55 54 60 61 61 62 62
46 46 47 47 47 48 48 48 48 48 49 49 49 49 49 50 51 49 48 48 49 43 34 40 49 50 51 54 52 53 50 47 41 40 38 38 43 42 42 43 41 51 48 43 41 53 51 54 59 61 61 62 60 60
46 46 47 47 47 48 47 48 48 48 48 48 49 49 49 50 51 46 40 46 49 49 41 33 47 48 50 51 51 49 47 46 43 40 37 43 49 45 30 34 51 56 57 57 53 59 59 58 59 60 58 57 59 58
46 47 47 47 47 47 48 48 48 49 49 49 49 49 49 49 48 43 39 44 50 48 40 34 35 46 50 49 45 45 46 43 43 44 41 43 45 44 31 33 51 55 58 59 59 58 55 56 52 56 57 58 57 58
46 46 46 47 47 47 47 47 48 48 49 49 48 48 48 49 49 45 48 50 50 45 44 31 33 38 49 39 37 44 40 41 42 41 41 41 44 40 33 47 50 52 54 54 54 56 56 58 57 55 56 55 53 52
45 46 46 46 46 47 47 48 48 48 48 48 48 49 47 45 40 45 51 50 50 46 35 31 29 28 44 41 40 39 41 30 42 36 39 41 39 35 38 40 41 43 46 49 52 52 53 53 54 52 52 52 49 47
45 45 45 46 46 46 46 47 47 48 48 48 48 43 36 41 49 49 47 41 41 41 41 32 37 32 40 37 32 33 32 32 32 35 42 35 33 37 37 39 41 41 43 44 45 45 47 47 45 41 39 41 41 38
46 45 45 46 46 46 47 47 48 48 49 45 39 37 44 48 45 40 32 33 36 31 37 36 37 33 39 34 33 34 33 32 27 32 36 33 29 33 35 36 38 40 41 40 41 41 40 42 39 36 33 32 32 30
47 46 47 47 47 47 47 47 49 46 43 44 44 46 44 41 37 32 30 32 32 31 35 32 33 36 32 39 34 34 32 32 27 35 31 27 29 32 33 33 33 35 36 36 36 35 35 34 33 31 29 28 28 28
46 46 47 46 46 47 47 47 47 47 49 47 44 36 37 32 29 26 26 25 27 31 34 32 33 32 34 37 31 33 30 31 35 31 25 26 29 31 31 31 30 31 32 31 31 31 30 29 29 29 26 26 26 25
46 46 46 46 46 46 47 47 48 47 45 36 32 23 25 23 25 24 26 27 30 31 30 32 29 32 34 31 32 31 32 32 28 24 21 26 28 29 29 30 29 28 28 28 28 28 27 27 26 26 26 26 25 24
46 46 47 45 46 46 47 47 49 43 36 26 27 22 22 28 28 29 30 30 30 31 30 34 34 35 32 32 32 31 29 22 21 20 25 27 29 29 29 29 29 28 28 27 27 26 25 25 25 24 25 25 25 24
47 47 44 45 46 47 47 47 43 41 32 27 24 20 23 20 17 25 26 27 31 29 30 32 32 31 30 27 25 22 22 17 19 23 26 28 27 28 28 28 28 28 27 26 26 25 25 24 24 24 25 25 24 24
47 42 45 46 46 47 47 41 36 31 27 27 22 23 22 22 22 24 27 27 30 28 29 30 23 25 30 23 20 23 18 20 23 23 24 25 27 27 27 27 26 26 26 26 26 26 25 26 26 25 23 24 25 24
41 43 46 46 46 44 41 38 31 29 24 24 21 20 24 21 22 24 26 27 29 29 26 23 26 19 15 16 16 20 22 21 22 23 23 24 24 24 25 24 24 25 25 25 26 26 26 25 24 24 24 25 24 23
44 44 45 45 43 40 33 33 35 25 25 26 25 26 25 23 25 25 25 27 28 29 26 20 13 13 13 17 17 19 23 22 20 20 21 23 24 23 23 23 23 23 23 22 22 21 21 22 22 22 22 22 21 22
45 45 45 43 45 37 32 32 37 30 25 25 26 23 23 22 24 24 24 25 25 22 15 13 12 15 16 19 20 20 24 24 22 19 18 20 21 21 20 21 21 21 20 21 21 21 20 19 19 19 20 19 17 17
43 43 44 45 40 39 34 32 31 30 29 28 28 28 24 27 21 20 21 25 19 17 15 16 16 19 20 21 22 21 19 20 19 20 18 16 18 19 18 18 19 18 17 16 16 16 17 17 18 18 15 14 16 16
41 44 39 39 33 34 32 35 33 33 31 30 27 28 23 20 19 19 24 18 16 16 18 18 18 18 18 18 19 20 20 20 20 19 19 19 16 16 16 17 17 15 15 15 15 14 15 17 17 17 15 13 14 13
43 40 33 34 29 27 24 34 26 30 22 23 25 21 19 17 22 25 14 19 19 21 21 20 20 20 20 20 21 20 20 19 17 17 17 17 17 17 17 17 18 15 14 16 17 15 13 13 13 11 12 12 12 8
40 31 26 25 27 24 26 23 29 28 24 22 20 15 18 19 23 14 13 15 20 22 22 21 21 18 18 18 16 16 19 20 18 18 18 16 14 14 16 15 15 16 16 16 14 12 12 9 7 7 5 2 3 2
22 20 23 18 25 21 18 24 20 20 14 18 14 13 16 22 12 12 12 15 15 18 17 19 20 19 15 15 16 16 19 18 15 13 15 18 16 14 13 13 12 13 15 10 7 5 4 4 3 2 2 -0 2 -3
15 20 21 24 22 22 23 18 15 18 16 13 16 20 17 12 6 7 14 13 12 15 17 16 14 14 14 16 13 13 14 18 16 11 12 13 12 13 10 7 6 8 11 9 5 1 2 2 -0 2 -4 -2 -5 -7
15 16 25 30 28 26 20 22 22 14 10 12 16 13 10 2 2 10 15 17 14 16 19 20 20 18 15 15 15 15 15 15 13 13 14 13 11 10 5 -2 -2 4 9 4 2 -2 -5 -7 -7 -6 -8 -9 -9 -7
20 21 12 16 17 21 11 10 7 7 8 16 15 2 1 3 5 13 14 15 14 18 18 17 17 16 15 15 16 14 10 8 9 9 11 10 9 7 3 0 2 8 -3 -4 -4 -4 -5 -8 -9 -9 -8 -6 -6 -5
17 20 16 8 11 12 12 11 10 14 17 16 7 5 5 14 14 13 14 15 16 16 14 13 11 12 13 12 10 9 6 6 -0 -3 -0 -1 -3 -1 -0 -0 -3 -1 3 0 6 -2 -3 -6 -7 -8 -8 -8 -9 -9
17 21 12 8 6 6 11 12 14 12 14 11 13 13 11 10 15 17 16 18 16 13 11 11 14 11 9 0 -4 -2 0 -1 -2 -2 0 -4 -4 -2 -4 -3 -1 -3 -4 -6 -6 -1 2 -4 1 -4 -7 -10 -12 -13
23 18 13 12 8 8 8 10 11 13 10 12 12 5 5 5 6 9 9 8 7 5 5 4 8 7 3 1 1 -1 -5 -5 -6 -4 -2 -4 -4 -5 -7 -5 -6 -5 -2 -7 -8 -9 -10 -11 -10 -9 -10 -11 -12 -14
18 13 9 4 7 12 16 17 14 8 12 6 2 3 4 7 2 5 6 9 9 8 6 10 6 -2 -3 -3 -5 -5 -2 -4 -5 -5 -5 -3 -7 -8 -3 -2 -5 -4 -7 -8 -7 -8 -9 -10 -12 -13 -13 -13 -14 -14
15 15 11 9 6 8 9 13 11 8 9 8 7 7 5 5 1 4 6 8 11 12 9 4 1 -2 -3 2 -3 -5 -2 -7 -4 3 -1 -3 -6 -6 -11 -6 -8 -10 -7 -9 -9 -9 -8 -7 -11 -12 -13 -13 -13 -15

GFSWCAN_sfc_temp_072.txt.gz
Temp
48 48 48 47 47 48 49 49 49 49 49 49 49 49 49 50 50 47 44 46 41 35 42 49 48 44 45 44 35 40 40 39 36 31 32 29 27 35 36 42 39 39 35 32 32 28 30 54 56 49 51 56 58 59
47 47 47 47 47 48 49 49 48 48 49 49 49 49 49 50 50 49 41 46 47 41 42 48 50 54 55 54 46 43 42 40 40 35 34 33 28 28 35 33 46 36 41 37 39 38 50 51 53 54 55 54 57 57
47 47 47 47 47 48 48 48 47 48 49 48 49 49 49 50 50 49 43 45 44 39 40 42 44 51 55 54 52 41 41 46 42 44 38 37 30 35 27 33 39 45 49 42 43 47 50 52 55 55 55 55 58 58
47 47 47 47 48 48 47 48 47 48 48 48 49 49 49 50 50 48 44 45 45 39 33 38 51 49 54 54 53 50 50 48 47 43 38 35 35 42 33 40 39 43 46 45 43 47 51 51 54 56 56 56 57 59
46 47 47 47 47 47 47 47 47 48 49 49 49 49 49 50 49 48 44 47 47 40 35 38 47 48 49 50 50 50 48 45 40 36 34 34 38 40 39 40 38 46 44 40 38 52 50 52 54 56 55 57 58 57
46 46 47 47 47 48 47 48 48 48 48 48 48 49 48 48 50 46 40 46 49 47 38 32 44 43 46 47 47 48 47 44 44 39 35 39 45 42 34 34 45 50 52 52 50 54 53 56 57 57 56 58 58 55
46 46 47 47 47 47 47 48 48 48 48 48 49 49 49 49 46 41 38 44 48 47 39 35 35 45 47 46 44 44 45 42 42 40 37 38 42 44 34 32 41 43 49 50 51 53 50 52 52 55 56 55 55 54
46 46 47 47 47 47 48 47 48 48 48 48 49 49 49 48 47 44 47 49 48 43 41 31 34 37 47 39 38 42 38 39 39 38 38 39 41 39 34 39 40 41 44 45 45 50 53 53 53 53 53 53 49 45
46 46 46 46 46 47 47 47 48 48 48 48 47 48 47 44 41 42 49 49 48 43 31 29 27 31 43 38 37 37 38 29 37 30 35 39 36 31 33 34 37 39 37 38 44 48 49 49 48 48 49 46 41 36
45 45 46 45 46 46 46 46 47 48 48 48 46 41 36 41 47 48 45 40 40 38 37 30 35 32 39 35 34 31 31 28 27 32 38 33 30 33 33 35 36 38 38 39 38 38 40 40 39 38 37 37 35 33
46 46 46 46 46 47 47 47 47 47 47 41 39 36 43 48 44 38 31 31 33 31 35 35 36 33 37 33 33 34 31 32 23 30 31 31 27 30 32 32 33 35 38 37 37 36 35 36 35 32 30 30 30 29
47 46 46 46 46 47 47 47 48 44 41 42 41 42 41 38 33 29 25 30 30 30 33 31 33 34 31 38 35 33 31 31 25 33 27 24 26 30 31 31 31 32 33 33 34 32 32 31 31 29 28 27 27 27
46 46 46 46 46 47 47 48 48 48 47 44 40 34 34 29 22 20 20 26 28 30 31 33 29 29 33 37 32 33 30 30 34 27 22 23 27 29 29 29 29 30 30 29 28 28 28 27 28 27 25 25 25 24
46 46 46 46 46 46 47 47 47 45 41 33 28 20 21 18 21 22 24 25 29 29 29 31 31 34 33 32 32 30 31 30 24 17 17 24 26 28 28 29 28 26 26 25 24 24 24 24 23 24 24 24 23 22
46 45 46 45 46 47 47 46 46 40 33 26 26 17 18 23 23 26 28 27 30 30 29 33 33 35 32 31 28 27 23 16 19 16 22 25 27 27 27 27 26 25 24 24 24 24 24 24 23 23 24 24 24 23
46 46 42 45 46 47 47 43 38 36 29 23 21 17 20 15 13 17 25 26 29 28 30 31 31 29 26 22 20 18 18 14 17 20 23 26 25 25 25 26 25 25 25 24 24 24 24 23 22 22 23 23 22 22
45 38 45 45 46 46 45 37 32 27 24 23 18 15 12 8 10 17 24 25 29 27 26 28 20 20 27 21 17 20 14 16 20 21 23 24 24 24 25 25 25 25 24 24 24 24 24 25 24 23 20 22 22 22
39 42 45 46 45 42 37 34 29 26 21 21 16 20 18 16 16 18 24 25 24 24 24 20 24 15 11 12 12 18 18 20 21 21 21 22 23 23 23 22 22 22 22 21 22 22 23 23 22 21 22 22 21 21
42 43 45 45 43 37 30 31 31 22 22 23 23 22 20 21 23 24 24 26 26 26 23 17 11 10 10 15 15 18 19 20 17 18 18 19 21 21 20 21 21 20 20 20 20 19 19 20 20 20 21 21 18 19
45 45 45 45 45 35 31 30 34 27 23 23 24 21 20 19 22 22 23 25 24 20 14 10 10 13 14 16 18 21 20 21 19 16 15 17 18 18 17 18 18 19 19 19 18 18 18 17 17 18 17 17 15 13
42 42 43 42 38 37 32 29 29 28 26 26 26 26 20 24 20 19 19 24 17 15 11 14 15 17 19 19 20 19 18 20 18 18 16 15 17 18 17 17 17 17 16 16 15 15 15 14 15 15 14 12 12 11
38 43 36 36 31 32 30 31 29 29 26 24 23 25 16 11 10 15 22 16 14 15 17 16 17 17 17 17 17 18 18 19 18 18 18 18 16 15 15 16 16 14 14 14 14 12 12 14 15 12 10 9 10 9
40 37 31 30 26 25 23 31 25 30 22 23 22 19 16 12 17 23 10 17 17 18 16 16 16 17 17 18 19 18 18 18 16 15 15 15 16 16 16 16 16 14 12 13 14 12 9 9 8 8 9 7 6 3
37 27 22 21 24 16 21 21 28 24 21 18 16 12 18 17 18 11 9 14 17 21 18 16 17 15 17 17 14 15 17 18 16 16 16 15 13 12 13 13 14 14 14 13 11 9 6 2 3 4 0 -0 -3 -4
20 19 19 14 20 18 14 11 14 17 8 11 8 9 14 18 6 6 7 12 14 13 14 18 18 17 13 12 14 14 17 17 13 11 13 16 13 12 11 11 10 11 12 7 4 2 -4 -2 -2 -3 -4 -6 -2 -10
12 17 15 19 14 17 17 11 9 9 8 9 11 14 9 4 -1 2 11 9 8 11 10 9 13 12 12 14 12 12 13 16 14 9 10 11 13 7 3 2 3 6 7 -2 -2 -4 -5 -7 -8 -6 -10 -9 -11 -8
8 8 21 27 24 23 14 15 17 11 7 6 8 3 1 -6 -5 8 13 13 12 13 17 18 17 15 13 13 14 14 14 13 11 10 11 10 9 8 3 -3 -3 2 2 -0 -7 -8 -8 -12 -14 -14 -15 -17 -17 -16
17 17 8 8 9 14 1 -0 -2 -1 1 14 8 -4 -6 -4 2 10 10 12 11 17 16 16 16 15 13 13 12 10 9 9 9 9 8 7 5 -0 -2 -3 -1 4 -9 -10 -10 -11 -11 -13 -14 -15 -12 -9 -10 -9
10 13 12 -1 2 5 7 2 3 9 13 10 -4 -1 2 12 10 9 10 11 13 15 12 10 8 8 8 6 3 4 2 1 -1 -4 -10 -11 -11 -2 -6 -9 -7 -5 -6 -8 2 -7 -8 -11 -11 -12 -14 -13 -15 -18
11 14 5 -2 -1 2 3 6 3 0 9 7 10 12 10 8 12 13 12 15 12 9 6 9 10 5 -4 -6 -11 -7 -9 -14 -12 -4 -9 -12 -7 -5 -12 -10 -10 -12 -14 -13 -12 -9 -2 -9 -3 -7 -11 -16 -19 -18
17 10 5 3 -1 -1 1 -3 1 6 1 -2 -5 -3 -1 2 5 8 8 6 5 4 4 -1 -4 -10 -4 -9 -12 -15 -11 -9 -13 -8 -6 -9 -14 -15 -14 -13 -14 -11 -14 -16 -16 -16 -17 -17 -18 -16 -17 -17 -18 -18
8 -1 1 -2 3 6 7 6 3 -1 -4 -6 -6 -10 -4 -5 -6 -2 3 -1 3 2 -1 -5 -4 -7 -12 -14 -16 -15 -9 -11 -12 -9 -10 -14 -16 -16 -12 -7 -9 -13 -15 -16 -14 -13 -13 -15 -18 -18 -17 -17 -19 -20
4 2 -3 -1 1 2 4 6 0 3 2 -1 0 -1 -2 0 -4 0 4 4 -0 0 -2 -7 -11 -12 -10 -8 -7 -11 -9 -12 -12 -0 -5 -7 -11 -11 -18 -18 -18 -17 -15 -17 -18 -16 -13 -12 -13 -15 -17 -19 -21 -21

GFSWCAN_sfc_temp_075.txt.gz
Temp
48 48 48 48 48 48 48 48 49 49 49 49 49 49 49 49 50 47 44 47 39 35 37 45 47 41 41 41 33 39 40 37 34 30 31 28 24 33 33 38 35 35 32 27 31 29 30 52 51 46 49 53 56 54
47 47 47 47 47 48 48 48 48 49 49 49 49 49 49 49 50 49 41 45 46 40 40 44 49 53 52 51 46 44 41 39 38 34 32 30 27 25 32 28 42 33 39 35 40 36 50 51 52 53 54 54 54 53
47 47 47 47 47 48 48 49 48 48 48 49 48 49 49 49 50 49 42 44 43 39 38 39 42 51 57 54 54 40 40 46 42 41 36 34 31 33 26 29 35 41 46 40 41 48 49 52 52 53 54 55 56 55
47 47 47 47 48 48 48 47 47 48 48 48 48 49 49 49 50 49 42 45 43 39 33 38 50 47 53 55 53 50 49 48 47 43 36 31 30 39 31 37 35 41 45 44 43 47 50 51 52 54 54 56 56 57
47 47 47 47 47 47 47 47 48 48 48 49 49 48 49 49 49 47 45 46 44 40 32 36 46 48 48 50 50 50 49 45 41 37 34 32 36 38 36 37 34 41 40 38 40 49 49 50 54 55 53 55 57 55
47 47 47 47 47 47 47 48 48 47 48 48 48 49 49 49 48 45 39 44 46 45 36 33 44 44 46 47 46 45 45 43 41 38 34 38 43 39 27 31 41 43 44 43 42 47 50 52 54 54 54 54 55 53
47 47 47 47 47 47 47 47 48 48 48 48 49 49 49 48 47 40 37 42 49 45 34 33 36 43 45 44 42 43 45 42 43 39 36 37 38 39 31 28 40 41 42 42 45 43 49 49 50 52 53 51 49 46
46 46 46 46 47 47 47 47 47 48 48 48 48 48 48 49 48 44 46 48 47 41 39 32 33 38 44 37 36 41 38 39 41 39 36 38 38 38 33 35 38 39 40 42 40 41 44 48 49 48 49 48 42 39
46 46 46 46 46 47 47 47 48 48 48 48 48 48 44 43 40 43 48 48 47 42 31 30 29 31 40 36 38 37 36 28 35 32 34 35 34 30 30 32 33 34 35 36 38 42 43 41 40 40 42 41 36 33
46 46 46 46 46 47 47 47 48 47 48 47 45 39 33 41 47 46 43 39 39 38 36 29 34 34 37 35 33 33 31 28 27 32 36 33 29 31 31 34 33 33 34 36 34 34 33 36 32 32 32 33 32 31
46 46 46 47 47 47 47 47 47 47 47 41 38 34 42 46 42 37 31 31 32 30 32 31 33 32 37 32 32 31 27 31 24 29 31 30 24 27 31 32 32 32 33 33 35 34 33 32 31 29 28 28 28 28
47 46 46 47 47 47 47 47 47 44 41 42 41 42 40 35 30 27 22 28 30 29 33 32 32 33 33 38 34 33 31 31 23 33 28 21 24 28 29 29 29 30 30 29 30 30 30 30 29 28 27 26 25 25
46 46 46 46 47 47 47 47 47 47 46 42 37 32 31 25 18 22 19 26 25 29 29 32 32 29 32 36 32 32 30 29 32 24 19 21 24 28 28 28 27 27 27 27 26 26 27 26 27 26 23 24 24 22
46 46 46 46 46 47 46 46 46 44 38 29 25 16 17 14 19 20 22 23 28 28 28 30 32 32 33 32 31 30 29 27 20 16 16 22 25 26 26 26 25 23 24 24 23 23 23 23 22 23 23 23 22 20
46 46 46 45 46 47 46 45 45 37 30 23 23 14 17 21 21 23 26 27 28 29 29 32 32 32 30 27 24 24 17 13 16 14 20 23 25 25 24 24 23 23 23 23 23 22 22 22 22 21 22 22 22 21
46 45 42 45 46 46 45 41 37 34 27 23 21 17 18 16 18 20 22 23 27 27 30 31 30 24 18 18 16 14 15 12 14 18 22 24 23 23 23 24 24 24 23 23 23 22 22 21 21 21 22 21 20 19
45 37 45 45 46 45 44 34 31 26 23 20 16 15 10 12 13 18 22 21 26 25 22 25 18 17 25 18 15 18 10 15 18 19 21 22 21 21 21 22 22 23 23 23 23 23 22 22 22 21 19 20 20 20
38 39 45 46 43 40 35 32 27 26 19 19 13 17 16 14 17 18 22 24 24 24 24 18 23 14 10 10 9 15 16 17 17 17 17 19 20 20 20 19 20 20 20 20 21 21 22 21 20 19 19 19 19 18
42 42 45 45 41 34 30 29 30 20 20 20 19 19 18 17 21 22 23 23 23 23 21 16 10 9 8 13 13 15 15 16 15 15 16 17 18 19 19 19 19 19 18 18 18 18 18 18 19 19 19 18 15 16
45 45 44 44 43 32 30 28 31 25 21 20 21 20 19 18 21 20 21 23 22 19 13 10 8 11 12 13 15 16 16 17 17 15 14 16 18 17 17 18 18 18 18 17 17 17 16 16 16 16 15 14 11 9
40 40 42 40 35 35 30 27 26 26 25 24 25 23 18 21 18 17 17 22 15 12 10 13 12 15 17 18 18 18 18 19 16 17 15 13 16 17 16 16 17 16 15 14 14 13 13 13 13 13 10 8 8 7
35 42 34 35 31 31 29 29 28 27 26 25 24 25 16 8 7 14 20 13 12 12 13 13 15 16 16 15 16 17 18 18 18 17 17 17 14 14 14 15 15 13 13 12 12 11 12 12 11 10 7 6 6 5
39 35 29 29 25 24 23 30 23 28 17 18 20 17 13 10 17 22 12 16 15 17 16 16 15 17 16 17 18 17 17 16 14 14 14 14 14 15 15 14 15 12 11 11 12 10 8 8 7 6 5 3 1 -2
36 25 21 20 23 15 20 19 26 22 19 16 15 10 15 10 16 8 7 11 16 18 17 16 17 15 16 16 13 14 15 17 15 15 15 14 12 11 13 13 12 12 12 11 8 5 4 -0 1 1 -3 -6 -13 -11
21 18 19 13 19 16 11 9 12 15 7 10 9 12 12 16 6 4 3 9 10 8 12 16 16 14 11 11 12 13 16 16 13 11 13 14 11 11 10 10 9 9 10 5 -2 -3 -8 -7 -8 -8 -9 -11 -7 -15
12 14 14 13 11 14 13 7 5 5 6 6 8 10 5 1 -3 -0 8 5 5 8 7 8 11 12 12 14 12 11 12 15 14 9 9 11 11 7 5 3 2 4 4 -4 -3 -9 -11 -13 -10 -9 -14 -11 -12 -16
6 7 19 23 21 19 9 10 13 5 -0 0 1 -2 -3 -10 -9 6 13 13 11 12 16 16 16 14 12 12 12 12 11 11 9 9 9 9 8 8 3 -2 -2 2 3 -5 -8 -6 -9 -16 -17 -18 -18 -21 -21 -19
13 14 6 4 7 11 -2 -2 -4 -4 0 12 5 -7 -10 -8 0 7 9 12 13 16 15 14 14 13 12 11 10 9 7 7 6 6 6 5 3 -2 -5 -5 -4 1 -12 -15 -16 -16 -14 -13 -16 -18 -16 -14 -16 -20
7 10 9 -2 2 5 6 -1 1 7 11 6 -7 -5 1 10 6 7 10 8 12 13 10 8 6 5 4 3 1 1 -3 -5 -6 -9 -14 -14 -14 -5 -10 -13 -12 -11 -15 -11 -2 -10 -9 -13 -14 -13 -15 -17 -20 -25
8 11 3 -2 -0 2 1 3 -2 -5 7 5 9 10 8 6 9 9 7 8 5 2 3 5 4 -0 -6 -7 -11 -7 -8 -13 -9 -4 -10 -14 -9 -9 -14 -14 -12 -14 -18 -17 -14 -12 -4 -11 -4 -11 -15 -18 -22 -21
12 7 4 3 2 2 0 -7 -7 -3 -6 -5 -9 -5 -2 1 6 8 9 7 7 4 5 1 -4 -10 -11 -16 -17 -16 -12 -12 -17 -14 -12 -14 -17 -16 -18 -18 -18 -20 -20 -18 -18 -19 -20 -20 -21 -20 -18 -17 -20 -22
3 -2 2 -0 3 4 4 -0 -9 -8 -12 -8 -9 -15 -8 -8 -9 -2 3 0 1 -3 -7 -13 -9 -8 -15 -17 -20 -19 -12 -11 -13 -13 -13 -16 -18 -19 -18 -16 -18 -20 -19 -19 -18 -19 -17 -18 -21 -22 -20 -20 -22 -23
2 -2 -4 -2 -1 -0 1 1 -2 -1 -5 -7 -4 -7 -8 -5 -7 -2 2 -4 -3 -2 -4 -4 -11 -15 -14 -13 -12 -15 -15 -16 -16 -3 -8 -10 -15 -14 -20 -21 -21 -19 -17 -19 -21 -18 -16 -15 -17 -18 -18 -21 -22 -24

GFSWCAN_sfc_temp_078.txt.gz
Temp
48 48 48 48 48 48 48 48 48 49 49 49 49 49 49 49 50 47 43 45 40 35 40 45 44 39 41 41 34 38 37 36 34 30 30 29 24 31 33 37 35 32 30 30 33 30 29 50 51 43 46 50 52 53
47 47 48 47 48 48 48 48 48 48 48 49 49 49 49 49 50 49 41 46 46 40 39 45 45 48 51 50 44 43 40 37 37 31 30 30 26 24 31 26 40 32 36 34 36 35 46 49 50 52 53 51 53 53
47 47 47 47 47 48 48 48 48 48 48 48 49 49 49 49 50 49 43 44 43 39 37 39 38 46 53 54 54 39 38 43 39 41 34 33 29 32 26 28 34 39 43 37 39 44 46 49 51 54 53 53 56 56
47 47 47 48 47 47 47 48 48 48 48 48 49 49 49 49 49 49 42 46 43 39 32 34 48 45 50 53 51 50 48 47 44 41 35 30 29 37 30 35 34 38 41 38 38 44 46 49 51 53 55 53 53 55
47 47 47 47 47 47 47 48 47 48 48 49 48 49 49 49 49 46 45 46 43 38 29 32 44 47 47 50 50 49 48 44 39 37 30 31 35 37 34 35 32 39 37 33 32 41 39 43 51 54 51 52 54 54
46 46 47 47 47 47 47 47 48 47 48 48 48 49 49 48 47 43 37 44 46 42 35 30 43 43 44 47 48 48 47 42 41 37 34 37 41 39 28 29 36 39 40 41 39 42 42 44 45 50 51 51 49 46
46 46 47 47 47 47 47 47 48 48 48 48 48 48 48 47 46 40 38 41 47 44 36 32 34 42 44 45 43 43 45 42 42 39 35 35 37 38 29 27 38 40 38 39 41 40 40 41 40 45 47 46 44 41
46 46 46 47 47 47 47 48 48 48 48 48 48 47 48 49 47 42 45 48 46 40 38 31 33 37 45 36 36 42 39 40 40 39 39 36 37 37 32 33 35 36 35 38 38 40 41 41 41 40 42 41 35 33
46 46 46 46 47 47 47 47 47 47 48 47 48 48 45 43 39 41 48 48 46 41 32 31 31 30 40 35 37 36 35 32 34 35 36 37 34 27 28 30 31 32 32 33 35 39 37 35 34 35 37 36 32 31
46 46 46 46 46 47 47 47 47 47 48 48 43 38 34 39 48 47 43 38 38 38 34 32 34 33 36 35 33 28 31 29 28 32 38 32 26 29 30 32 32 31 32 34 33 33 32 33 30 28 28 30 30 28
46 46 46 46 46 47 47 47 47 47 47 42 36 33 43 46 42 38 31 31 32 30 34 34 34 33 36 31 32 32 26 27 22 28 32 27 22 26 30 30 30 31 31 31 33 33 32 32 30 28 27 27 26 26
46 46 46 46 46 47 48 48 47 43 42 42 42 43 39 34 31 29 24 31 31 29 32 33 32 32 32 37 32 34 30 30 23 32 25 18 23 27 28 27 27 27 28 27 28 28 28 28 29 28 26 25 24 24
46 46 46 46 46 46 46 47 47 47 46 42 37 30 30 23 16 19 16 24 24 28 29 32 30 30 32 36 33 32 30 27 30 21 17 20 25 27 26 26 26 26 26 26 25 25 25 24 25 25 23 23 22 21
46 46 46 46 46 46 46 45 45 42 37 29 24 14 15 12 17 18 21 23 27 28 28 30 31 32 32 31 31 27 24 25 16 10 12 21 23 24 24 25 24 23 23 23 22 22 22 21 20 21 21 21 21 19
46 46 46 45 46 46 45 44 43 35 28 21 21 11 14 20 21 22 24 26 27 28 29 32 33 32 27 25 23 22 15 11 15 11 17 21 23 24 23 23 22 22 21 21 21 21 20 20 20 19 20 20 20 19
46 44 42 45 46 45 44 40 36 33 26 22 19 14 16 15 16 17 20 21 25 25 29 31 28 23 19 19 15 12 14 9 11 16 19 22 21 21 22 23 23 23 22 21 21 21 20 19 18 18 19 19 18 17
44 37 44 45 45 44 43 33 31 27 23 20 15 18 13 12 11 15 19 20 25 22 21 24 13 12 22 13 11 15 8 14 16 17 19 19 19 19 20 20 20 21 21 21 21 21 20 21 20 19 17 18 18 17
37 38 44 46 42 39 33 31 27 24 17 17 11 14 15 11 15 17 19 22 21 22 22 16 21 14 10 10 10 15 15 16 17 15 16 17 18 19 19 18 19 19 19 19 20 20 20 19 18 17 17 17 17 16
40 40 44 45 40 33 29 28 28 16 16 17 17 17 16 15 19 21 21 21 21 23 20 17 10 8 8 12 12 14 14 16 14 15 16 17 18 18 18 19 18 17 17 17 17 16 16 17 16 16 16 16 14 14
44 44 43 44 42 32 29 26 30 24 17 18 18 18 16 14 17 12 18 20 20 17 12 9 8 10 10 12 14 14 14 17 16 14 13 15 17 17 16 17 17 17 17 16 16 16 15 14 14 13 13 13 11 9
40 39 41 38 33 33 28 26 24 24 23 22 23 22 16 19 16 14 14 20 14 12 9 12 9 14 16 16 17 17 16 17 14 15 14 12 15 16 16 16 16 15 14 14 12 12 12 11 11 11 8 6 7 7
34 41 33 34 31 31 28 28 25 25 24 24 22 23 13 9 9 14 19 12 11 11 12 12 14 14 14 13 14 16 16 17 17 16 16 16 14 14 13 14 14 12 12 11 12 10 10 11 9 8 5 3 5 4
37 34 29 29 24 23 21 29 23 27 17 18 21 17 12 8 15 21 9 14 13 17 16 16 15 16 15 16 17 16 16 15 13 13 13 13 14 14 13 13 14 11 10 10 12 10 8 8 5 3 3 2 0 -2
35 23 18 16 20 12 17 16 25 21 17 16 14 11 11 10 15 9 7 8 13 17 16 14 16 15 15 15 12 13 15 16 14 14 14 13 11 11 12 11 11 11 11 10 8 5 4 -1 1 1 -3 -6 -9 -11
20 16 17 10 15 12 6 3 7 11 4 7 8 9 8 14 3 2 2 8 10 8 10 15 15 14 11 11 12 12 15 15 12 10 12 13 11 10 9 9 8 8 9 4 -2 -3 -6 -5 -7 -9 -9 -13 -8 -17
9 12 12 10 8 11 10 3 1 1 2 2 4 5 1 -2 -5 -2 6 5 5 8 4 6 9 12 11 13 11 10 11 14 14 9 8 10 10 5 2 1 1 3 3 -4 -4 -7 -10 -13 -12 -11 -16 -14 -15 -19
3 4 16 20 19 16 6 6 10 4 -2 -2 -2 -5 -6 -11 -12 3 11 12 11 11 14 14 16 14 11 10 10 10 9 9 8 7 8 7 6 6 1 -4 -5 -1 -0 -6 -11 -9 -10 -17 -19 -19 -20 -23 -22 -21
9 11 4 2 4 8 -5 -5 -7 -6 -1 10 2 -7 -12 -10 -1 6 10 11 12 14 12 11 11 11 10 9 7 5 4 3 5 5 4 4 1 -4 -7 -8 -6 -1 -12 -17 -18 -17 -16 -13 -15 -19 -19 -15 -17 -25
2 6 6 -5 -1 2 3 -5 -2 7 10 2 -8 -7 1 8 4 7 9 11 10 11 7 5 2 1 1 1 -1 -1 -5 -8 -6 -9 -14 -16 -16 -7 -9 -14 -15 -16 -18 -12 -4 -11 -11 -16 -16 -17 -18 -19 -22 -28
3 9 0 -6 -4 -1 -3 0 -3 -4 5 3 8 9 7 4 6 7 8 8 6 0 -3 -5 -8 -7 -9 -9 -11 -7 -11 -16 -11 -5 -8 -13 -10 -13 -16 -17 -16 -19 -21 -18 -16 -13 -3 -6 -8 -17 -18 -20 -22 -22
10 4 2 2 1 -0 -3 -10 -13 -9 -10 -8 -11 -7 -2 -2 3 5 4 1 0 -3 -3 -7 -9 -15 -15 -17 -17 -16 -12 -14 -20 -18 -16 -19 -20 -18 -17 -17 -17 -21 -22 -20 -20 -21 -22 -21 -20 -19 -18 -18 -20 -24
-1 -5 0 0 2 3 -1 -8 -13 -11 -14 -9 -11 -17 -10 -9 -10 -3 1 -2 -4 -5 -9 -14 -10 -7 -13 -18 -22 -21 -15 -15 -17 -17 -16 -18 -19 -21 -20 -18 -21 -22 -21 -21 -22 -20 -20 -19 -21 -23 -22 -21 -23 -25
-2 -2 -2 0 -1 -3 -3 -3 -3 -5 -8 -10 -9 -12 -12 -10 -8 -4 -2 -6 -5 -4 -1 -5 -11 -18 -18 -18 -16 -19 -17 -19 -18 -6 -10 -11 -16 -16 -22 -24 -22 -21 -19 -20 -22 -20 -18 -17 -19 -21 -22 -23 -23 -24

GFSWCAN_sfc_temp_081.txt.gz
Temp
48 48 48 48 48 48 48 48 48 48 48 49 49 49 49 49 50 46 42 45 38 34 37 45 46 41 42 42 35 38 36 36 35 31 32 32 31 36 36 39 37 36 33 32 34 31 30 51 52 45 51 53 55 57
47 47 47 47 47 48 48 48 48 48 49 48 48 49 49 49 49 48 41 45 45 38 39 44 45 47 51 50 44 42 41 39 39 35 35 36 32 32 36 32 43 36 40 37 39 39 49 51 53 55 55 53 58 56
47 47 47 47 47 48 48 48 48 48 48 48 49 49 49 49 49 48 43 43 42 36 38 39 38 48 52 53 54 40 41 45 42 45 39 37 33 38 32 35 39 43 46 41 42 47 46 50 54 55 56 55 57 57
47 47 47 47 47 47 47 48 48 48 48 49 48 49 49 49 49 49 43 44 43 39 33 36 48 44 50 52 51 51 49 48 47 45 39 35 35 41 37 41 40 44 45 42 41 46 48 52 52 51 51 51 54 58
47 47 47 47 47 47 48 47 47 47 48 48 48 49 49 49 49 47 45 45 47 40 32 36 44 48 49 49 48 50 50 48 43 39 36 36 40 40 38 39 39 43 42 39 39 43 42 44 49 48 46 48 52 55
46 47 47 47 47 47 47 47 47 47 47 48 49 49 49 48 48 43 36 44 47 45 37 31 43 43 45 47 47 46 47 46 45 41 39 41 44 42 36 37 38 39 40 40 39 42 41 44 46 45 45 44 43 43
46 46 47 47 47 47 48 47 47 47 48 48 48 49 48 48 44 40 38 42 47 46 39 31 33 42 46 45 44 44 46 44 44 42 39 40 40 42 35 34 37 38 37 38 40 39 41 43 39 42 44 42 40 39
46 46 47 47 47 47 47 47 47 47 47 48 48 48 47 48 47 43 45 48 48 41 39 30 32 37 44 37 37 44 41 43 42 41 40 38 40 39 32 32 35 35 37 38 37 38 39 40 40 39 41 41 36 34
46 46 46 46 47 47 47 47 47 47 47 47 47 47 45 43 40 42 48 48 47 42 32 32 31 30 40 35 36 36 39 33 36 35 39 39 34 23 26 28 30 31 31 32 35 38 38 36 34 34 35 35 32 30
46 46 46 46 47 46 47 47 48 48 48 47 44 39 33 41 48 48 43 38 38 38 36 31 36 32 38 33 32 33 33 32 30 34 38 30 25 29 29 30 30 30 31 32 30 31 31 31 30 29 29 30 30 29
46 46 46 46 47 47 46 46 47 48 47 42 36 34 43 48 42 37 32 32 33 31 33 34 34 34 37 33 32 34 31 32 28 32 32 26 22 26 29 28 28 29 30 30 30 31 31 30 29 29 28 28 28 27
46 46 47 46 46 46 47 47 47 44 41 42 40 41 39 34 32 30 28 31 31 28 31 32 32 35 35 37 34 35 31 32 26 31 25 18 23 27 27 27 27 27 27 27 27 27 28 28 28 27 26 25 24 24
46 46 46 46 46 46 46 47 47 47 45 41 35 30 31 23 17 20 20 24 24 27 29 32 30 32 35 37 33 34 31 26 30 21 17 20 24 26 26 26 26 27 27 26 25 25 24 23 24 23 21 21 21 20
46 46 46 46 46 45 45 46 45 42 36 28 24 14 13 11 17 18 20 23 27 27 27 31 32 33 32 30 29 25 24 26 18 14 14 20 22 23 25 25 24 22 22 22 21 22 21 20 20 20 20 20 18 17
46 46 46 45 45 45 44 43 41 35 29 21 21 11 14 20 21 21 23 26 25 27 29 32 31 30 25 23 24 23 18 13 15 13 18 21 23 23 23 23 22 22 21 20 21 20 19 19 19 18 19 19 18 17
46 45 42 45 45 44 43 40 35 33 27 21 18 16 17 18 16 18 19 20 25 24 28 29 25 21 19 19 16 12 15 10 13 17 20 22 20 21 21 22 22 22 21 21 20 20 19 18 17 17 18 17 16 16
44 37 44 45 45 43 42 33 30 26 21 19 14 18 15 15 14 17 19 19 24 22 19 23 15 15 22 15 11 15 10 14 17 18 19 20 20 19 20 20 20 21 21 21 20 20 19 20 19 18 16 17 17 16
36 38 44 45 41 38 32 31 27 23 16 17 13 15 16 15 16 16 19 21 21 23 21 17 22 14 11 11 11 15 15 16 17 16 16 18 19 19 20 19 19 19 18 18 19 19 19 18 17 16 16 16 15 14
40 40 44 44 39 33 29 27 28 16 16 17 18 19 18 18 19 19 19 21 23 24 21 16 10 9 9 13 14 15 17 17 15 16 16 16 17 18 18 18 18 17 17 17 16 16 16 16 16 16 16 16 13 13
44 43 43 43 42 31 28 25 30 23 16 18 19 18 17 16 19 15 18 20 20 18 11 9 9 11 12 14 17 17 17 19 17 14 14 15 17 17 16 18 17 18 17 16 16 16 15 14 14 13 14 14 12 11
39 39 40 38 32 31 28 26 23 24 22 21 23 22 17 18 16 14 14 19 13 11 9 12 12 14 16 16 18 19 17 19 16 17 15 14 16 17 17 17 17 17 15 15 13 12 12 12 12 12 10 9 9 9
33 40 32 34 30 30 27 27 25 25 24 24 22 22 13 10 11 14 18 11 11 12 13 13 14 15 15 13 15 16 17 17 17 17 17 17 15 15 14 15 15 13 13 13 13 12 11 11 11 10 8 7 9 8
36 34 28 28 23 21 21 29 21 26 16 17 20 15 12 10 16 21 10 14 13 17 17 16 16 16 15 16 17 16 16 16 15 14 14 14 14 14 14 14 15 13 12 12 13 11 9 8 7 6 6 6 5 3
34 21 16 15 19 11 16 14 24 19 16 16 15 9 11 11 16 10 7 11 15 18 17 16 17 15 16 15 13 14 15 16 14 14 15 14 12 12 13 12 12 12 13 12 10 9 7 6 5 5 3 1 1 0
18 13 14 7 13 11 5 3 7 12 5 8 9 9 9 14 5 3 3 9 11 10 11 15 15 15 12 12 13 13 15 16 13 11 12 14 12 12 10 10 9 9 11 7 4 3 2 2 2 2 2 2 1 -1
7 10 10 8 7 11 9 3 1 2 4 3 3 5 4 1 -1 -1 7 7 7 9 7 9 12 12 12 13 12 11 11 14 14 10 9 11 12 10 8 7 7 7 5 5 4 2 -0 -2 0 -0 -1 -3 -8 -1
2 2 14 18 17 14 5 6 10 4 -1 -1 1 -3 -2 -8 -9 5 12 13 12 13 15 15 16 14 12 11 10 9 9 10 9 8 8 8 7 7 8 5 5 5 5 3 2 3 2 -1 -2 -2 -2 -4 -3 -2
7 10 2 -0 3 7 -4 -3 -4 -5 1 9 3 -6 -9 -7 1 9 11 13 14 14 12 11 11 12 10 9 7 7 6 6 6 6 7 6 4 2 -0 0 1 -0 -2 -2 0 -1 1 1 -0 -2 -1 2 -1 -8
1 5 5 -7 -2 1 2 -4 -1 7 9 2 -6 -4 2 8 6 10 12 13 14 13 9 6 3 3 3 2 -0 1 2 3 4 -2 -3 -1 -2 2 -1 -2 -1 -2 -1 2 1 -2 -1 -2 -2 -1 -2 -0 -3 -8
2 7 -1 -7 -5 -2 -3 -0 -1 -3 5 5 9 9 8 6 7 10 11 11 10 5 1 1 -2 0 0 0 -0 -0 -4 -6 -4 1 -0 -0 0 -1 -3 -1 -1 -4 -4 0 1 1 4 -1 -2 -5 -4 -4 -4 -3
8 2 1 2 -2 -3 -5 -11 -12 -7 -7 -5 -7 -4 0 1 6 6 5 2 -1 -3 0 -1 -3 -7 -3 -5 -3 -4 -2 -3 -13 -9 -7 -6 -6 -4 -3 -5 -6 -7 -5 -3 -2 -3 -5 -5 -4 -4 -3 -3 -6 -8
-1 -5 1 -1 0 2 1 -5 -11 -7 -10 -5 -8 -13 -7 -4 -5 2 2 2 4 2 -3 -4 -2 2 -5 -7 -11 -10 -12 -6 -6 -7 -6 -6 -5 -7 -7 -6 -9 -7 -5 -5 -6 -5 -5 -4 -4 -5 -4 -4 -6 -8
-1 -2 -1 1 0 -1 -3 -4 -4 -6 -8 -9 -9 -13 -12 -7 -5 -0 1 -3 1 4 3 -1 -4 -7 -9 -9 -6 -8 -10 -7 -11 -4 -8 -8 -13 -9 -9 -9 -9 -8 -6 -6 -7 -7 -6 -7 -6 -7 -8 -10 -10 -10

GFSWCAN_sfc_temp_084.txt.gz
Temp
48 48 48 48 48 48 48 48 48 49 49 49 48 49 49 49 50 46 42 46 39 37 45 51 52 48 47 45 39 41 37 36 34 33 35 37 36 42 41 45 39 34 35 34 35 32 32 56 56 45 46 56 59 57
47 47 48 47 47 47 48 48 48 48 48 49 49 49 49 49 50 49 41 46 44 38 39 47 46 53 57 55 47 44 44 41 44 39 41 43 37 40 42 37 50 39 41 36 43 44 54 55 53 57 58 55 56 59
47 47 47 48 48 48 48 48 48 48 48 48 49 49 49 49 50 49 44 44 41 36 40 40 39 50 57 57 60 45 47 50 48 53 46 43 38 46 37 41 46 50 53 46 46 51 52 53 56 53 56 55 59 60
46 47 47 47 47 47 48 48 48 48 48 48 48 49 49 49 50 49 44 45 44 42 35 43 54 48 57 57 57 57 54 54 53 50 42 41 40 50 44 48 47 53 52 49 49 54 54 59 55 52 52 54 55 59
46 47 47 47 47 47 48 47 47 48 48 49 48 49 49 49 49 48 47 47 52 47 36 41 47 52 55 55 54 54 52 50 46 41 38 40 49 46 48 47 47 54 48 46 46 44 45 51 53 52 49 49 50 52
46 46 46 47 47 47 47 47 47 47 47 48 49 49 48 49 49 44 36 44 51 51 39 36 51 48 51 53 51 50 51 47 44 39 40 48 53 47 40 42 42 44 44 45 43 44 47 50 52 50 48 48 47 48
46 47 47 47 47 47 47 47 47 47 47 48 49 49 49 48 44 41 42 45 50 51 41 38 40 49 51 50 50 49 50 45 43 41 41 46 48 48 38 36 37 39 41 44 42 43 46 46 41 45 47 49 46 45
46 46 47 46 47 47 47 47 48 48 48 48 48 48 49 47 47 45 48 49 51 42 43 35 37 39 50 43 42 49 43 42 41 41 47 45 49 47 33 35 36 37 39 40 39 41 40 41 41 41 46 46 44 41
46 46 46 46 46 47 46 47 47 47 47 47 47 47 45 43 40 42 49 50 52 46 38 33 33 32 46 38 39 39 41 35 39 38 39 41 34 28 28 31 33 32 31 33 37 39 37 36 35 34 37 40 39 36
46 46 46 46 46 47 47 47 47 47 47 47 46 41 34 42 48 48 42 38 39 43 42 36 41 34 40 37 36 34 37 35 33 37 39 33 27 30 31 32 32 31 31 33 32 34 34 33 32 31 30 33 35 34
46 46 46 46 47 47 47 47 48 48 48 47 37 36 41 47 45 40 34 35 35 32 36 39 37 35 39 36 34 35 35 35 31 33 34 30 27 28 32 30 31 31 31 32 32 33 33 32 31 30 29 29 29 29
46 46 46 46 47 47 47 48 48 47 44 43 40 41 40 37 36 33 32 33 33 31 34 34 34 34 37 39 35 36 33 34 29 33 30 25 26 31 32 30 31 30 30 29 30 29 29 30 30 29 28 26 24 23
46 46 46 46 45 46 47 47 46 46 48 48 41 35 34 29 25 26 24 29 30 31 32 33 33 36 37 40 34 35 31 28 34 26 23 24 28 30 30 30 30 30 30 29 27 27 26 25 26 25 22 22 22 19
46 46 45 46 45 45 46 46 45 46 45 35 30 21 24 21 24 24 26 27 30 30 30 33 36 36 37 33 33 28 28 33 24 21 18 24 24 26 27 28 27 24 24 24 23 23 22 21 20 20 20 20 19 17
46 46 46 45 45 44 44 43 43 44 37 28 29 20 21 24 26 26 27 29 28 28 32 37 36 37 31 28 29 29 24 20 21 20 22 24 24 26 25 25 24 23 22 22 22 21 20 21 20 19 20 20 19 18
46 46 45 44 45 44 43 44 43 41 34 28 24 23 24 25 23 24 24 25 28 28 35 37 31 28 23 25 23 19 21 17 18 22 24 26 23 24 24 24 23 23 23 22 22 21 20 19 18 18 19 18 17 17
46 47 44 44 43 42 42 42 39 30 26 24 20 24 23 23 21 22 23 24 28 29 28 30 24 20 29 22 17 20 17 19 22 23 24 24 23 23 23 22 23 23 23 22 21 21 20 21 21 19 17 18 18 17
46 46 44 46 46 43 41 39 33 28 20 24 21 21 22 22 22 22 24 26 28 29 28 22 29 20 17 16 17 19 21 22 23 22 22 23 23 23 23 22 22 22 21 21 21 21 21 19 18 17 17 17 17 17
45 45 44 44 46 42 35 33 35 22 22 24 25 25 25 24 25 25 26 28 29 31 28 24 18 16 16 19 20 21 22 23 21 21 21 21 22 21 21 21 21 21 20 20 20 19 19 19 20 20 20 19 17 17
44 43 43 43 46 40 32 31 38 28 23 24 27 24 24 23 24 24 24 26 26 24 17 15 15 16 18 20 23 23 23 24 24 21 20 22 23 22 22 23 23 22 22 21 21 20 20 18 18 19 20 20 18 16
45 44 43 47 42 40 35 32 30 30 29 27 29 29 25 26 23 22 21 27 20 17 15 17 18 19 21 22 24 25 23 26 24 25 22 20 22 23 23 23 23 23 22 21 19 18 18 17 18 18 17 16 15 15
43 42 43 43 38 36 34 36 32 33 31 29 28 28 23 21 21 20 25 19 16 17 19 19 19 21 20 19 20 21 21 22 22 22 21 22 21 21 20 21 21 19 19 19 19 17 17 17 17 17 15 14 15 14
41 42 38 37 30 30 27 36 29 31 24 25 28 22 21 20 22 27 17 19 18 21 21 21 19 20 20 20 21 20 21 22 21 21 20 20 21 20 20 20 20 19 17 17 19 17 14 13 14 14 14 14 13 11
38 27 25 26 30 22 28 25 30 26 26 24 21 16 18 20 24 19 13 16 19 22 21 20 22 20 21 20 20 20 21 22 21 21 21 21 19 18 19 18 19 19 19 19 17 16 15 13 12 14 12 11 11 10
26 18 24 20 25 22 20 19 20 22 17 19 17 16 16 22 15 13 12 16 18 18 19 21 21 21 19 18 19 19 20 21 19 17 19 20 19 19 17 17 16 16 19 16 14 12 11 12 12 11 11 11 9 8
14 16 19 19 20 20 19 16 16 16 17 14 13 15 17 15 11 9 14 17 17 19 19 19 20 19 18 19 19 18 17 20 21 17 15 17 18 18 17 15 15 13 15 16 14 12 11 11 10 9 8 7 5 8
13 14 19 21 23 20 17 18 19 17 13 13 14 12 14 7 7 12 17 19 19 19 21 22 22 21 19 17 16 16 17 17 16 15 15 15 15 15 16 15 12 13 16 14 15 14 12 10 10 10 9 10 10 10
16 17 12 11 12 15 10 11 11 10 12 15 15 6 7 8 9 16 18 20 20 20 19 18 19 19 18 16 16 15 14 14 13 14 15 14 14 13 11 12 10 6 12 12 13 12 13 12 11 10 10 10 9 8
13 16 15 3 9 10 8 9 11 13 14 15 10 9 10 14 15 17 18 20 20 20 17 15 13 15 14 13 13 15 14 14 11 6 5 11 12 11 11 12 12 12 14 12 8 10 10 10 10 11 7 11 10 8
12 17 10 6 5 6 8 12 10 11 14 14 16 14 14 14 15 19 19 19 18 17 15 15 14 16 13 14 12 11 11 9 8 11 11 10 11 10 11 11 11 10 12 13 12 11 9 9 7 7 7 7 9 8
16 16 12 12 9 11 12 10 12 13 13 13 14 13 11 13 15 14 14 14 14 13 14 13 12 12 12 11 13 11 10 8 3 4 7 9 9 10 9 8 9 10 11 10 10 10 9 8 9 7 7 6 5 3
12 12 10 8 9 12 13 12 13 13 13 14 11 11 10 13 10 12 12 14 14 14 9 13 15 14 11 9 7 7 1 7 7 6 6 8 9 6 8 8 6 8 8 8 8 7 4 5 7 6 6 5 5 3
13 14 13 12 10 11 11 13 12 11 12 11 9 8 9 11 8 11 10 10 12 15 14 13 11 9 7 7 8 6 6 6 1 3 0 0 -1 2 6 7 7 6 4 6 6 5 2 1 4 3 3 1 1 1

GFSWCAN_sfc_temp_087.txt.gz
Temp
47 47 48 48 48 48 48 48 49 49 49 49 49 49 49 49 50 49 45 48 40 37 50 53 56 49 50 48 39 41 38 37 35 33 36 40 40 45 44 48 41 39 36 34 38 35 32 58 56 44 46 51 51 50
47 47 47 47 47 48 48 48 48 48 49 49 49 49 49 49 50 49 42 50 45 38 42 53 58 59 59 58 48 43 46 40 45 40 44 45 40 44 44 37 53 38 44 41 45 45 50 58 54 55 55 53 56 56
47 47 47 47 48 48 48 48 48 48 48 48 49 49 49 49 49 49 45 47 41 35 41 41 46 55 60 60 61 46 47 50 48 55 44 45 40 48 37 43 43 53 53 39 41 46 48 55 55 56 57 53 56 59
47 47 47 47 47 47 47 47 48 48 48 48 49 49 49 49 49 49 44 47 48 42 36 44 58 52 60 61 60 58 54 54 51 51 43 43 41 52 44 48 47 53 52 52 51 49 53 51 54 53 55 56 54 56
46 46 46 47 47 47 47 47 47 48 48 48 49 49 49 49 49 48 46 49 56 48 36 44 51 56 58 58 56 56 50 47 45 42 41 41 49 47 49 50 48 51 45 46 42 48 48 52 54 52 52 53 52 52
46 46 46 47 47 47 47 47 47 47 47 48 48 49 49 49 49 44 35 45 57 54 42 38 54 52 55 55 53 52 48 46 44 40 42 48 54 49 40 41 40 45 47 47 42 48 50 50 54 51 49 52 52 51
45 46 47 47 47 47 47 47 47 47 47 48 49 49 49 48 46 39 43 48 53 53 40 38 39 51 54 52 50 49 50 44 47 39 41 46 47 49 43 37 39 41 43 45 45 47 48 45 42 46 46 51 52 52
45 46 46 46 46 46 47 48 47 47 48 48 49 48 48 47 46 44 52 50 54 45 43 36 39 42 51 43 42 50 41 42 41 40 46 45 47 44 33 38 39 39 41 41 42 45 42 43 45 43 43 44 47 45
45 45 45 46 46 46 46 47 47 48 49 48 47 47 45 42 40 44 49 51 54 48 41 37 35 33 49 42 43 43 44 34 41 37 43 43 36 30 29 32 33 34 34 35 40 43 43 41 41 40 40 39 38 38
46 45 46 46 46 46 46 47 47 47 47 48 47 40 33 42 48 48 43 38 41 46 47 40 49 37 40 37 36 36 40 36 34 37 42 37 29 32 34 34 34 33 34 36 34 36 37 38 38 37 34 34 34 33
46 46 46 46 47 47 47 47 47 47 47 50 40 36 42 46 46 42 35 36 39 34 41 45 45 37 39 37 36 43 35 37 33 35 38 33 28 30 35 34 35 34 34 33 33 34 35 35 34 35 33 31 29 28
46 46 46 46 46 47 47 47 48 51 48 47 42 42 42 45 42 35 34 35 38 35 36 38 38 42 38 40 40 36 34 35 31 34 33 28 27 33 34 34 35 34 32 31 31 29 29 30 32 32 31 28 26 25
46 46 46 46 45 47 46 46 47 47 52 54 46 37 40 35 29 29 27 32 32 34 34 34 33 38 37 39 37 36 32 29 38 31 26 26 30 31 31 31 31 31 30 29 28 28 27 26 26 25 23 23 23 22
46 45 45 45 45 45 45 45 47 49 48 38 33 25 28 26 27 27 28 29 31 31 32 33 34 33 35 33 34 29 31 33 28 26 21 25 25 27 29 29 29 25 25 25 24 24 23 22 21 22 22 22 21 19
46 46 46 45 44 44 45 45 47 49 42 31 33 24 24 28 29 28 30 31 29 31 32 34 34 36 32 30 32 31 27 24 26 23 24 26 26 27 26 27 26 25 24 23 24 22 22 22 21 20 21 22 21 20
46 47 46 45 44 44 45 48 49 47 38 31 28 26 29 29 27 28 27 27 32 32 36 41 34 29 27 30 27 24 26 22 22 25 26 27 25 25 25 25 24 24 24 24 23 23 22 20 20 20 20 20 19 18
45 50 44 44 43 44 45 48 43 34 31 28 25 27 28 27 25 25 27 28 34 32 30 35 27 23 34 26 21 23 20 22 24 24 26 26 25 24 24 24 24 24 24 23 23 23 22 22 22 20 18 18 19 18
52 50 45 45 49 47 47 45 38 33 24 27 24 25 25 26 25 26 28 31 33 33 32 26 33 24 21 20 20 22 24 25 26 25 25 24 24 25 25 24 24 24 24 23 23 23 22 21 20 19 18 18 18 18
47 50 45 45 48 48 39 38 40 26 26 28 28 29 28 27 29 30 30 32 34 36 33 30 23 20 19 24 23 24 25 26 23 23 24 24 24 24 24 24 24 24 24 24 24 23 23 23 23 23 22 22 20 20
44 43 44 45 46 44 35 35 43 33 27 27 30 28 28 27 29 29 30 32 32 29 22 20 18 20 21 24 26 26 27 28 27 24 23 25 26 26 26 26 25 25 25 24 24 24 24 22 23 23 24 23 21 19
46 47 46 52 47 44 39 37 34 34 33 29 33 32 27 30 28 27 27 31 24 22 19 21 21 22 24 25 27 28 26 27 26 27 25 23 25 27 25 25 26 26 25 24 23 21 21 21 22 22 21 19 19 18
50 45 49 48 41 40 36 39 36 36 33 32 32 33 28 25 25 25 30 23 20 19 22 22 23 25 23 21 22 24 25 26 26 26 25 26 24 24 24 25 25 22 22 22 22 20 21 22 22 21 19 17 18 18
44 47 43 41 33 32 28 40 31 34 27 29 32 26 25 25 27 33 22 22 21 24 24 23 23 24 23 23 24 24 25 25 24 24 24 24 24 24 24 23 24 22 21 21 23 21 18 18 18 19 18 18 17 15
41 31 29 30 32 25 32 29 34 31 31 28 25 20 23 25 30 24 17 19 21 25 25 23 26 24 25 24 23 22 24 27 25 24 25 25 22 22 23 23 23 22 23 23 22 20 19 17 17 19 17 17 16 15
30 22 27 24 31 27 25 25 25 27 22 24 21 21 21 28 21 19 17 19 21 21 23 26 25 25 23 22 23 22 24 25 24 22 23 25 24 23 22 22 20 21 24 21 18 17 16 16 16 16 16 15 14 13
19 21 23 25 26 26 26 22 22 22 22 19 19 22 25 23 17 15 19 20 21 22 23 23 24 23 23 24 23 22 22 25 26 22 21 23 23 22 21 20 20 17 21 21 20 17 15 15 15 14 12 11 10 12
18 19 23 29 29 27 24 25 27 24 20 18 21 20 22 15 13 16 21 24 22 23 25 25 25 25 23 22 22 22 22 21 20 20 21 21 20 21 20 19 16 17 20 19 20 19 16 15 14 14 14 15 14 15
21 22 16 18 20 24 18 19 19 17 19 22 23 14 14 15 15 21 22 24 23 24 24 24 25 25 23 22 22 22 20 19 18 20 20 19 19 18 16 16 15 12 16 15 17 18 18 17 16 15 14 15 14 14
19 23 19 10 16 16 16 17 18 18 21 23 19 16 15 18 21 20 21 23 25 24 22 20 20 21 20 20 20 20 20 19 16 11 10 16 17 15 17 17 17 17 18 15 12 14 14 15 15 15 12 15 16 14
17 24 16 13 12 12 13 19 15 18 22 22 21 19 17 17 19 24 23 22 22 20 20 20 20 21 19 20 17 16 17 16 14 15 15 14 14 15 16 16 15 15 17 17 16 15 11 13 11 12 12 12 13 13
24 24 19 17 13 15 17 18 20 21 21 20 22 19 16 16 18 20 21 21 21 20 20 18 18 20 18 17 18 16 14 13 10 10 14 15 15 15 14 13 15 16 15 15 14 14 13 12 13 12 12 11 10 8
22 19 16 13 13 16 20 22 21 20 21 20 17 18 18 19 15 17 19 21 20 19 14 18 19 17 16 15 14 13 11 13 12 12 12 14 13 12 13 13 13 14 13 12 12 11 10 9 10 11 10 10 9 9
20 20 20 18 16 17 17 21 20 17 20 18 17 18 18 19 14 17 18 19 18 20 18 18 17 15 13 14 14 12 13 10 6 7 6 4 3 6 11 13 13 11 9 10 11 10 8 8 8 8 8 7 6 6

GFSWCAN_sfc_temp_093.txt.gz
Temp
47 47 47 47 47 47 48 48 48 48 49 49 49 49 49 49 50 46 42 44 38 33 38 44 46 40 39 37 32 36 35 36 34 28 27 28 26 35 35 39 37 33 30 28 28 28 25 44 46 38 39 47 45 45
46 46 46 47 47 47 47 48 48 48 48 49 48 49 49 49 49 48 40 45 45 37 37 42 43 46 45 45 40 39 38 37 36 31 32 33 27 30 33 29 42 31 37 31 35 33 41 44 44 50 48 44 44 45
46 46 46 46 47 47 47 47 48 48 48 48 48 49 49 49 49 48 41 43 41 35 36 35 38 48 52 51 49 37 37 42 41 42 36 35 29 36 28 32 35 42 45 39 37 43 42 44 47 49 49 47 47 48
46 46 46 46 47 47 47 47 48 48 48 48 48 48 48 49 49 49 42 44 42 38 28 34 51 45 52 52 49 48 47 48 45 41 35 33 33 40 35 38 35 39 40 40 39 42 43 44 44 45 46 48 48 48
45 46 46 46 46 46 47 47 47 48 48 48 48 48 48 49 49 47 45 45 47 38 30 33 45 50 52 50 49 48 45 43 38 35 34 34 39 39 39 40 35 39 34 33 31 35 40 40 43 46 44 43 46 44
46 46 46 46 46 47 46 46 47 47 47 48 48 49 48 49 49 44 34 44 48 46 36 31 43 45 49 48 47 45 45 42 40 39 35 40 46 40 34 31 37 40 42 40 36 43 43 44 44 44 43 43 44 42
45 45 46 46 47 46 47 47 46 47 47 47 48 48 48 48 45 38 37 42 48 46 37 31 34 44 49 47 42 42 43 41 41 38 36 38 40 40 33 30 32 33 36 40 40 42 40 42 39 41 41 42 42 40
45 46 46 46 46 46 46 46 47 47 47 47 48 48 48 48 46 41 45 48 48 42 40 31 33 37 46 38 38 41 39 41 39 37 39 38 40 38 27 31 33 32 37 35 37 41 40 42 42 39 38 38 36 33
45 45 46 45 46 46 45 47 47 47 48 48 48 48 42 41 37 41 48 49 48 42 32 30 27 31 42 37 39 39 40 32 38 33 35 38 32 24 28 29 29 30 31 31 35 35 36 35 35 36 34 32 31 29
45 45 45 46 46 45 46 47 47 48 48 47 44 37 32 40 48 47 41 35 38 38 38 33 37 33 39 36 35 35 35 33 31 33 39 29 23 29 32 32 31 31 31 31 28 27 29 29 30 30 29 29 28 27
45 44 45 46 46 44 46 46 48 48 48 43 37 35 43 49 42 37 32 32 33 31 32 35 38 33 37 33 32 33 32 33 25 31 33 28 24 27 29 28 29 30 30 28 28 28 27 27 27 26 25 25 25 24
44 44 46 46 46 47 46 46 46 45 43 43 41 42 42 39 36 32 28 30 29 28 33 29 32 37 35 38 33 33 31 31 25 35 31 19 23 27 28 28 27 26 26 25 25 23 23 23 24 24 23 23 22 22
44 45 45 46 46 47 48 47 46 48 48 46 42 36 36 30 26 24 24 26 28 32 33 33 33 34 34 35 33 33 29 29 30 26 18 19 23 26 26 26 25 26 25 24 22 22 21 20 19 20 17 17 17 16
45 45 45 45 46 47 47 48 48 48 43 34 29 17 22 24 23 24 26 27 28 30 31 32 33 33 33 31 32 28 29 28 25 19 12 20 21 23 24 25 23 21 21 20 18 16 17 17 16 16 16 15 15 14
46 45 46 44 46 46 47 47 47 42 35 28 28 20 21 25 27 26 29 29 29 31 31 32 33 33 29 25 30 27 23 17 17 12 17 20 22 22 21 22 21 19 16 16 13 14 13 14 15 15 15 15 15 14
46 46 42 45 46 48 48 47 43 40 33 28 26 24 26 25 22 22 23 23 30 29 31 31 30 26 23 25 22 15 21 12 15 19 20 19 18 19 17 20 18 20 16 15 16 15 14 12 13 13 14 15 15 14
45 42 44 45 47 48 48 41 36 33 30 27 22 25 26 25 22 23 26 26 30 29 28 29 25 24 28 22 18 20 15 17 18 19 20 20 18 17 19 19 17 17 16 17 18 19 17 17 17 16 13 14 15 15
44 42 45 46 45 46 42 39 32 30 23 25 21 23 25 25 25 25 27 29 29 29 29 24 28 20 16 16 14 18 17 20 21 20 17 17 19 19 19 17 16 15 14 14 15 13 14 14 14 14 15 15 15 14
44 43 45 45 43 40 33 33 33 24 24 26 26 27 26 26 28 27 27 28 28 28 26 21 15 14 15 19 17 19 19 18 17 19 18 16 17 19 20 21 21 21 21 20 19 19 20 20 19 19 18 18 14 14
45 45 45 45 44 37 32 30 36 28 23 24 26 25 25 25 26 24 24 27 27 24 17 15 14 15 18 20 22 21 21 22 21 18 17 20 22 23 22 21 20 19 20 20 20 19 19 18 19 18 18 18 15 13
46 43 45 45 40 38 33 30 29 28 28 26 28 28 24 25 21 20 19 25 19 17 14 16 17 18 17 19 20 21 21 22 23 19 18 20 19 21 21 23 24 22 19 17 18 17 17 16 17 18 14 12 12 12
42 45 40 41 33 33 31 33 30 31 28 28 27 29 23 16 15 18 23 17 15 15 17 19 16 14 17 16 17 18 18 21 22 21 22 22 20 18 20 18 19 17 17 17 18 16 16 18 16 15 12 11 12 11
43 42 35 34 27 26 25 34 28 31 23 24 27 23 19 17 23 26 13 19 17 18 17 17 15 17 16 17 21 20 20 21 20 19 19 19 19 19 18 18 20 17 16 17 18 15 13 14 14 12 11 9 7 4
39 28 25 24 26 21 26 23 30 28 25 23 21 16 17 18 23 15 12 15 17 21 20 19 20 19 20 20 15 15 20 19 17 17 20 18 15 15 17 17 18 17 17 18 17 14 12 8 12 13 11 10 8 8
21 18 21 17 25 19 16 17 20 22 15 18 14 12 15 23 12 9 10 16 18 17 19 20 22 20 15 11 12 13 19 21 17 14 17 20 17 13 14 14 13 13 17 13 10 5 5 4 3 4 6 2 8 4
11 14 17 19 19 20 21 15 15 14 13 9 11 18 18 12 6 7 15 14 13 19 18 18 18 16 16 19 15 13 13 18 20 14 13 16 14 11 12 12 9 7 12 11 6 1 1 1 -1 -1 -2 -1 0 -1
10 11 22 29 27 26 18 20 23 16 11 8 12 11 9 1 -0 10 18 18 15 13 17 18 21 20 16 16 17 15 14 14 13 14 15 15 14 13 7 4 3 7 9 8 10 7 1 -2 -3 -0 -0 -5 -5 -2
18 20 10 16 16 21 11 11 10 8 10 19 14 3 2 3 7 15 16 17 16 19 19 18 18 18 17 16 15 12 9 9 8 10 11 10 9 4 3 1 1 9 -0 -0 1 4 6 3 -1 -2 -0 1 1 -6
14 19 15 5 10 12 11 9 8 14 17 16 6 5 7 16 14 16 14 15 16 16 12 10 8 8 10 11 10 10 8 5 4 -2 -2 6 1 1 1 1 -0 8 4 -1 8 1 1 -3 -4 -1 -3 1 2 0
13 21 10 5 3 6 13 13 9 10 15 14 15 16 15 15 15 15 15 18 19 16 11 11 16 12 10 10 4 0 2 -3 -3 -1 0 -1 -0 0 2 5 3 -2 1 7 1 -1 5 -2 -0 -5 -3 -4 -4 1
22 17 11 10 7 13 17 19 19 18 15 13 12 9 9 8 11 15 16 12 9 7 7 5 8 9 4 3 4 3 -3 -3 -4 -2 -1 -2 4 -2 -5 -5 -4 -3 1 -2 -4 -1 -2 -6 -3 -1 -5 -4 -6 -8
16 10 6 4 9 16 19 17 12 10 10 7 5 6 7 5 2 6 9 13 9 10 8 15 8 1 -0 -1 -3 -1 -0 -1 -1 -5 -3 2 -4 -4 -3 -2 -1 1 -5 -6 -3 -5 -5 -7 -9 -8 -9 -10 -9 -11
14 13 11 8 7 8 14 11 12 10 10 8 8 9 7 6 3 6 8 10 14 15 10 7 2 1 1 3 1 -1 -4 -8 -5 2 -1 -2 -6 -3 -1 -4 -3 -6 -6 -6 -6 -7 -6 -7 -9 -9 -11 -12 -13 -14